[[{"header":{"parameterUnit":"m.s-1","parameterCategory":1,"la1":30.6,"la2":29.2853,"lo1":-89.7004,"lo2":-87.6739,"dy":0.0162,"dx":0.0183,"nx":112,"ny":82,"refTime":"2025-01-01T18:00:00:Z","depth":0,"parameterNumber":2,"parameterNumberName":"U-component_of_WINDS"},"data":[0.0,0.0,0.0,0.0,0.0,0.0,0.0,0.0,0.0,0.0,0.0,0.0,0.0,0.0,0.0,0.0,0.0,0.0,0.0,0.0,0.0,0.0,0.0,0.0,0.0,0.0,0.0,0.0,0.0,0.0,0.0,0.0,0.0,0.0,0.0,0.0,0.0,0.0,0.0,0.0,0.0,0.0,0.0,0.0,0.0,0.0,0.0,0.0,0.0,0.0,0.0,0.0,0.0,0.0,0.0,0.0,0.0,0.0,0.0,0.0,0.0,0.0,0.0,0.0,0.0,0.0,0.0,0.0,0.0,0.0,0.0,0.0,0.0,0.0,0.0,0.0,0.0,0.0,0.0,0.0,0.0,0.0,0.0,0.0,0.0,0.0,0.0,0.0,0.0,0.0,0.0,6.8167,7.386,7.6707,7.5245,7.3091,6.8783,6.1627,0.0,0.0,0.0,0.0,0.0,0.0,0.0,0.0,0.0,0.0,0.0,0.0,0.0,0.0,0.0,0.0,0.0,0.0,0.0,0.0,0.0,0.0,0.0,0.0,0.0,0.0,0.0,0.0,0.0,0.0,0.0,0.0,0.0,0.0,0.0,0.0,0.0,0.0,0.0,0.0,0.0,0.0,0.0,0.0,0.0,0.0,0.0,0.0,0.0,0.0,0.0,0.0,0.0,0.0,0.0,0.0,0.0,0.0,0.0,0.0,0.0,0.0,0.0,0.0,0.0,0.0,0.0,0.0,0.0,0.0,0.0,0.0,0.0,0.0,0.0,0.0,0.0,0.0,0.0,0.0,0.0,0.0,0.0,0.0,0.0,0.0,0.0,0.0,0.0,0.0,0.0,0.0,0.0,0.0,0.0,0.0,0.0,0.0,0.0,0.0,0.0,0.0,0.0,0.0,6.4782,7.4668,7.6669,7.7169,7.6938,7.2706,6.8013,6.3243,0.0,0.0,0.0,0.0,0.0,0.0,0.0,0.0,0.0,0.0,0.0,0.0,0.0,0.0,0.0,0.0,0.0,0.0,0.0,0.0,0.0,0.0,0.0,0.0,0.0,0.0,0.0,0.0,0.0,0.0,0.0,0.0,0.0,0.0,0.0,0.0,0.0,0.0,0.0,0.0,0.0,0.0,0.0,0.0,0.0,0.0,0.0,0.0,0.0,0.0,0.0,0.0,0.0,0.0,0.0,0.0,0.0,0.0,0.0,0.0,0.0,0.0,0.0,0.0,0.0,0.0,0.0,0.0,0.0,0.0,0.0,0.0,0.0,0.0,0.0,0.0,0.0,0.0,0.0,0.0,0.0,0.0,0.0,0.0,0.0,0.0,0.0,0.0,0.0,0.0,0.0,0.0,0.0,0.0,0.0,0.0,0.0,0.0,0.0,0.0,0.0,0.0,0.0,6.332,6.7744,7.6976,7.7553,7.7476,7.79,7.3283,6.8321,6.3589,5.8896,0.0,0.0,0.0,0.0,0.0,0.0,0.0,0.0,0.0,0.0,0.0,0.0,0.0,0.0,0.0,0.0,0.0,0.0,0.0,0.0,0.0,0.0,0.0,0.0,0.0,0.0,0.0,0.0,0.0,0.0,0.0,0.0,0.0,0.0,0.0,0.0,0.0,0.0,0.0,0.0,0.0,0.0,0.0,0.0,0.0,0.0,0.0,0.0,0.0,0.0,0.0,0.0,0.0,0.0,0.0,0.0,0.0,0.0,0.0,0.0,0.0,0.0,0.0,0.0,0.0,0.0,0.0,0.0,0.0,0.0,0.0,0.0,0.0,0.0,0.0,0.0,0.0,0.0,0.0,0.0,0.0,0.0,0.0,0.0,0.0,0.0,0.0,0.0,0.0,0.0,0.0,0.0,0.0,0.0,0.0,0.0,0.0,0.0,0.0,0.0,0.0,0.0,6.8321,7.1437,7.8092,7.79,7.763,7.8438,7.3283,6.809,6.3589,5.7934,0.0,0.0,0.0,0.0,0.0,0.0,0.0,0.0,0.0,0.0,0.0,0.0,0.0,0.0,0.0,0.0,0.0,0.0,0.0,0.0,0.0,0.0,0.0,0.0,0.0,0.0,0.0,0.0,0.0,0.0,0.0,0.0,0.0,0.0,0.0,0.0,0.0,0.0,0.0,0.0,0.0,0.0,0.0,0.0,0.0,0.0,0.0,0.0,0.0,0.0,0.0,0.0,0.0,0.0,0.0,0.0,0.0,0.0,0.0,0.0,0.0,0.0,0.0,0.0,0.0,0.0,0.0,0.0,0.0,0.0,0.0,0.0,0.0,0.0,0.0,0.0,0.0,0.0,0.0,0.0,0.0,0.0,0.0,0.0,0.0,0.0,0.0,0.0,0.0,0.0,0.0,0.0,0.0,0.0,0.0,0.0,0.0,0.0,0.0,0.0,0.0,0.0,7.0321,7.5592,7.9323,7.8246,7.763,7.8438,7.1668,6.6205,6.3474,5.6319,0.0,0.0,0.0,0.0,0.0,0.0,0.0,0.0,0.0,0.0,0.0,0.0,0.0,0.0,0.0,0.0,0.0,0.0,0.0,0.0,0.0,0.0,0.0,0.0,0.0,0.0,0.0,0.0,0.0,0.0,0.0,0.0,0.0,0.0,0.0,0.0,0.0,0.0,0.0,0.0,0.0,0.0,0.0,0.0,0.0,0.0,0.0,0.0,0.0,0.0,0.0,0.0,0.0,0.0,0.0,0.0,0.0,0.0,0.0,0.0,0.0,0.0,0.0,0.0,0.0,0.0,0.0,0.0,0.0,0.0,0.0,0.0,0.0,0.0,0.0,0.0,0.0,0.0,0.0,0.0,0.0,0.0,0.0,0.0,0.0,0.0,0.0,0.0,0.0,0.0,0.0,0.0,0.0,0.0,0.0,0.0,0.0,0.0,0.0,0.0,0.0,0.0,6.8359,7.3283,0.0,7.7207,7.6592,7.6899,7.1898,6.6705,6.205,0.0,0.0,0.0,0.0,0.0,0.0,0.0,0.0,0.0,0.0,0.0,0.0,0.0,0.0,0.0,0.0,0.0,0.0,0.0,0.0,0.0,0.0,0.0,0.0,0.0,0.0,0.0,0.0,0.0,0.0,0.0,0.0,0.0,0.0,0.0,0.0,0.0,0.0,0.0,0.0,0.0,0.0,0.0,0.0,0.0,0.0,0.0,0.0,0.0,0.0,0.0,0.0,0.0,0.0,0.0,0.0,0.0,0.0,0.0,0.0,0.0,0.0,0.0,0.0,0.0,0.0,0.0,0.0,0.0,0.0,0.0,0.0,0.0,0.0,0.0,0.0,0.0,0.0,0.0,0.0,0.0,0.0,0.0,0.0,0.0,0.0,0.0,0.0,0.0,0.0,0.0,0.0,0.0,0.0,0.0,0.0,0.0,0.0,0.0,0.0,0.0,0.0,6.3051,6.8167,7.2822,0.0,7.6515,7.6015,7.6015,7.1398,6.6282,6.1127,0.0,0.0,0.0,0.0,0.0,0.0,0.0,0.0,0.0,0.0,0.0,0.0,0.0,0.0,0.0,0.0,0.0,0.0,0.0,0.0,0.0,0.0,0.0,0.0,0.0,0.0,0.0,0.0,0.0,0.0,0.0,0.0,0.0,0.0,0.0,0.0,0.0,0.0,0.0,0.0,0.0,0.0,0.0,0.0,0.0,0.0,0.0,0.0,0.0,0.0,0.0,0.0,0.0,0.0,0.0,0.0,0.0,0.0,0.0,0.0,0.0,0.0,0.0,0.0,0.0,0.0,0.0,0.0,0.0,0.0,0.0,0.0,0.0,0.0,0.0,0.0,0.0,0.0,0.0,0.0,0.0,0.0,0.0,0.0,0.0,0.0,0.0,0.0,0.0,0.0,0.0,0.0,0.0,0.0,0.0,0.0,0.0,0.0,0.0,0.0,0.0,0.0,6.4166,7.0514,7.5361,7.7092,7.6515,7.5976,7.5976,6.9783,6.4436,0.0,0.0,0.0,0.0,0.0,0.0,0.0,0.0,0.0,0.0,0.0,0.0,0.0,0.0,0.0,0.0,0.0,0.0,0.0,0.0,0.0,0.0,0.0,0.0,0.0,0.0,0.0,0.0,0.0,0.0,0.0,0.0,0.0,0.0,0.0,0.0,0.0,0.0,0.0,0.0,0.0,0.0,0.0,0.0,0.0,0.0,0.0,0.0,0.0,0.0,0.0,0.0,0.0,0.0,0.0,0.0,0.0,0.0,0.0,0.0,0.0,0.0,0.0,0.0,0.0,0.0,0.0,0.0,0.0,0.0,0.0,0.0,0.0,0.0,0.0,0.0,0.0,0.0,0.0,0.0,0.0,0.0,0.0,0.0,0.0,0.0,0.0,0.0,0.0,0.0,0.0,0.0,0.0,0.0,0.0,0.0,0.0,0.0,0.0,0.0,0.0,0.0,0.0,0.0,7.1052,7.5822,7.6322,7.613,7.5515,7.4361,7.0206,6.5205,5.9396,0.0,0.0,0.0,0.0,0.0,0.0,0.0,0.0,0.0,0.0,0.0,0.0,0.0,0.0,0.0,0.0,0.0,0.0,0.0,0.0,0.0,0.0,0.0,0.0,0.0,0.0,0.0,0.0,0.0,0.0,0.0,0.0,0.0,0.0,0.0,0.0,0.0,0.0,0.0,0.0,0.0,0.0,0.0,0.0,0.0,0.0,0.0,0.0,0.0,0.0,0.0,0.0,0.0,0.0,0.0,0.0,0.0,0.0,0.0,0.0,0.0,0.0,0.0,0.0,0.0,0.0,0.0,0.0,0.0,0.0,0.0,0.0,0.0,0.0,0.0,0.0,0.0,0.0,0.0,0.0,0.0,0.0,0.0,0.0,0.0,0.0,0.0,0.0,0.0,0.0,0.0,0.0,0.0,0.0,0.0,0.0,0.0,0.0,0.0,0.0,0.0,0.0,6.4743,7.1475,7.6015,7.6015,7.6015,7.5322,7.363,7.036,6.5667,5.9204,0.0,0.0,0.0,0.0,0.0,0.0,0.0,0.0,0.0,0.0,0.0,0.0,0.0,0.0,0.0,0.0,0.0,0.0,0.0,0.0,0.0,0.0,0.0,0.0,0.0,0.0,0.0,0.0,0.0,0.0,0.0,0.0,0.0,0.0,0.0,0.0,0.0,0.0,0.0,0.0,0.0,0.0,0.0,0.0,0.0,0.0,0.0,0.0,0.0,0.0,0.0,0.0,0.0,0.0,0.0,0.0,0.0,0.0,0.0,0.0,0.0,0.0,0.0,0.0,0.0,0.0,0.0,0.0,0.0,0.0,0.0,0.0,0.0,0.0,0.0,0.0,0.0,0.0,0.0,0.0,0.0,0.0,0.0,0.0,0.0,0.0,0.0,0.0,0.0,0.0,0.0,0.0,0.0,0.0,0.0,0.0,0.0,0.0,0.0,0.0,0.0,0.0,6.5474,7.1822,7.6015,7.6015,7.6015,7.5361,7.3745,7.0475,6.6051,6.0204,0.0,0.0,0.0,0.0,0.0,0.0,0.0,0.0,0.0,0.0,0.0,0.0,0.0,0.0,0.0,0.0,0.0,0.0,0.0,0.0,0.0,0.0,0.0,0.0,0.0,0.0,0.0,0.0,0.0,0.0,0.0,0.0,0.0,0.0,0.0,0.0,0.0,0.0,0.0,0.0,0.0,0.0,0.0,0.0,0.0,0.0,0.0,0.0,0.0,0.0,0.0,0.0,0.0,0.0,0.0,0.0,0.0,0.0,0.0,0.0,5.2492,0.0,0.0,0.0,0.0,0.0,0.0,0.0,0.0,0.0,0.0,0.0,0.0,0.0,0.0,0.0,0.0,0.0,0.0,0.0,0.0,0.0,0.0,0.0,0.0,0.0,0.0,0.0,0.0,0.0,0.0,0.0,0.0,0.0,0.0,0.0,0.0,0.0,0.0,0.0,0.0,0.0,6.5474,7.1822,7.6015,7.6015,7.6015,7.5592,7.4553,7.136,6.7436,6.2781,0.0,0.0,0.0,0.0,0.0,0.0,0.0,0.0,0.0,0.0,0.0,0.0,0.0,0.0,0.0,0.0,0.0,0.0,0.0,0.0,0.0,0.0,0.0,0.0,0.0,0.0,0.0,0.0,0.0,0.0,0.0,0.0,0.0,0.0,0.0,0.0,0.0,0.0,0.0,0.0,0.0,0.0,0.0,0.0,0.0,0.0,0.0,0.0,0.0,0.0,0.0,0.0,0.0,0.0,0.0,0.0,0.0,0.0,0.0,0.0,0.0,5.521,0.0,0.0,0.0,0.0,0.0,0.0,0.0,0.0,0.0,0.0,0.0,0.0,0.0,0.0,0.0,0.0,0.0,0.0,0.0,0.0,0.0,0.0,0.0,0.0,0.0,0.0,0.0,0.0,0.0,0.0,0.0,0.0,0.0,0.0,0.0,0.0,0.0,0.0,0.0,0.0,6.5974,7.2052,7.6015,7.6015,7.6015,7.5668,7.4784,7.1975,6.8629,6.4782,5.9742,0.0,0.0,0.0,0.0,0.0,0.0,0.0,0.0,0.0,0.0,0.0,0.0,0.0,0.0,0.0,0.0,0.0,0.0,0.0,0.0,0.0,0.0,0.0,0.0,0.0,0.0,0.0,0.0,0.0,0.0,0.0,0.0,0.0,0.0,0.0,0.0,0.0,0.0,0.0,0.0,0.0,0.0,0.0,0.0,0.0,0.0,0.0,0.0,0.0,0.0,0.0,0.0,0.0,6.3085,6.4297,6.4877,6.5025,6.5557,6.6199,6.2782,6.1014,6.0287,0.0,0.0,0.0,0.0,0.0,0.0,0.0,0.0,0.0,0.0,0.0,0.0,0.0,0.0,0.0,0.0,0.0,0.0,0.0,0.0,0.0,0.0,0.0,0.0,0.0,6.145,6.1405,0.0,0.0,0.0,0.0,0.0,0.0,0.0,0.0,0.0,0.0,0.0,0.0,6.659,7.2322,7.6015,7.6015,7.6015,7.5707,7.4976,7.2591,6.986,6.6974,6.2743,5.8627,0.0,0.0,0.0,0.0,0.0,0.0,0.0,0.0,0.0,0.0,0.0,0.0,0.0,0.0,0.0,0.0,0.0,0.0,0.0,0.0,0.0,0.0,0.0,0.0,0.0,0.0,0.0,0.0,0.0,0.0,0.0,0.0,5.3637,5.5588,0.0,0.0,0.0,0.0,0.0,0.0,0.0,0.0,0.0,0.0,0.0,0.0,0.0,6.1515,6.3045,6.5471,6.6369,6.5783,6.8222,6.9132,6.8697,6.9458,7.0278,7.1123,7.1299,0.0,6.2243,6.1868,0.0,0.0,0.0,0.0,0.0,0.0,0.0,0.0,0.0,0.0,0.0,0.0,0.0,0.0,0.0,0.0,0.0,0.0,0.0,0.0,0.0,0.0,6.5936,6.5935,6.6216,6.5985,0.0,5.9565,5.5182,5.3896,0.0,0.0,0.0,0.0,0.0,0.0,0.0,0.0,6.6641,7.2294,7.6015,7.6015,7.6015,7.5938,7.5822,7.3476,7.1514,7.0321,6.6282,6.2704,5.9896,5.5934,0.0,0.0,0.0,0.0,0.0,0.0,0.0,0.0,0.0,0.0,0.0,0.0,0.0,0.0,0.0,0.0,0.0,0.0,0.0,0.0,0.0,0.0,0.0,0.0,0.0,0.0,0.0,0.0,0.0,5.3708,5.5938,5.6797,5.6134,5.5292,0.0,0.0,0.0,0.0,0.0,0.0,0.0,0.0,0.0,6.3819,6.5605,6.7219,6.8546,7.148,7.308,7.3275,7.5345,7.6203,7.593,7.632,7.6164,7.5618,7.6008,7.3543,6.9093,6.66,6.3109,5.916,0.0,0.0,0.0,0.0,5.7381,5.8027,6.025,6.0396,0.0,0.0,0.0,0.0,0.0,0.0,0.0,0.0,0.0,0.0,0.0,0.0,0.0,6.9634,7.0326,7.0469,6.9613,6.6679,6.2872,0.0,5.6813,5.5304,5.1953,0.0,0.0,0.0,0.0,0.0,6.8809,7.3619,7.6544,7.6053,7.6015,7.6015,7.6015,7.4514,7.3053,7.1706,6.9013,6.632,6.3782,6.005,5.6665,0.0,0.0,0.0,0.0,0.0,0.0,0.0,0.0,0.0,0.0,0.0,0.0,0.0,0.0,0.0,0.0,0.0,0.0,0.0,0.0,0.0,0.0,0.0,0.0,0.0,0.0,0.0,0.0,5.6519,5.8273,5.8114,5.8475,5.7992,0.0,0.0,0.0,0.0,0.0,0.0,6.3399,6.5273,6.7224,6.9215,7.1591,7.3426,7.4636,7.7179,7.878,7.9405,8.0693,8.1317,8.1317,8.1083,8.0302,7.9053,7.8819,7.7648,7.5501,7.1089,6.7381,6.4258,6.2032,6.0666,6.0119,6.1993,6.2873,6.3501,6.641,6.6615,6.5317,6.3608,0.0,5.9243,5.5614,0.0,0.0,0.0,0.0,6.2386,6.6474,6.8756,7.0612,7.2928,7.3995,7.4293,7.3658,7.2629,6.986,0.0,6.1935,6.0527,5.5654,0.0,0.0,0.0,0.0,6.7782,7.1129,7.4735,7.6736,7.6053,7.6015,7.6015,7.6015,7.5207,7.4168,7.2899,7.1283,6.9398,6.7282,6.3897,6.0781,5.805,0.0,0.0,0.0,0.0,0.0,0.0,0.0,0.0,0.0,0.0,0.0,0.0,0.0,0.0,0.0,0.0,0.0,0.0,0.0,0.0,0.0,0.0,0.0,0.0,0.0,0.0,0.0,0.0,0.0,6.0126,6.1369,0.0,0.0,0.0,0.0,6.2345,6.4219,6.6366,6.8864,7.1435,7.3972,7.6477,7.8311,8.0068,8.1786,8.1942,8.2059,8.2092,8.2209,8.2248,8.2209,8.1389,8.0966,8.081,7.999,7.9561,7.9092,7.4798,7.1474,6.8981,6.8005,6.7107,6.6405,6.7024,6.779,6.8484,6.8369,6.8272,6.8345,6.9025,6.7,6.3931,6.2136,6.1035,0.0,0.0,6.4795,6.7549,7.0975,7.3129,7.4832,7.6621,7.7083,7.7083,7.7044,7.5707,7.3178,0.0,6.6692,6.5026,6.3053,0.0,6.2547,6.5064,6.7039,6.9519,7.2924,7.4965,7.6053,7.6015,7.6015,7.6015,7.6015,7.5207,7.4668,7.4591,7.3014,7.1629,7.0706,6.7436,6.4051,6.0666,5.5588,0.0,0.0,0.0,0.0,0.0,0.0,0.0,0.0,0.0,0.0,0.0,0.0,0.0,0.0,0.0,0.0,0.0,0.0,0.0,0.0,0.0,0.0,0.0,0.0,0.0,0.0,0.0,0.0,6.4251,6.5805,0.0,0.0,6.4684,6.6131,6.8552,7.0348,7.269,7.5852,7.7453,7.893,8.0413,8.1545,8.2443,8.3068,8.4167,8.4746,8.4746,8.5293,8.5293,8.4746,8.4434,8.366,8.2606,8.2293,8.1864,8.1239,7.9717,7.6906,7.351,7.3197,7.2221,7.1123,7.2294,7.2928,7.3159,7.2775,7.2659,7.2381,7.0948,6.8936,6.6974,6.6487,6.6487,6.691,6.8218,6.9997,7.2073,7.4399,7.5793,7.6878,7.7985,7.8177,7.8062,7.8062,7.757,7.6532,7.4495,7.2322,7.0079,6.7833,6.8065,6.8718,6.9091,7.1035,7.31,7.4888,7.6101,7.6823,7.6831,7.6322,7.6245,7.6784,7.5515,7.4476,7.3976,7.2822,7.1591,7.0206,6.8436,6.5897,6.2474,5.9011,5.478,0.0,0.0,0.0,0.0,0.0,0.0,0.0,0.0,0.0,0.0,0.0,0.0,0.0,0.0,0.0,0.0,0.0,0.0,0.0,0.0,0.0,0.0,0.0,0.0,0.0,0.0,6.6552,6.6999,6.9067,6.9962,6.8669,6.9762,7.1675,7.4408,7.5885,7.7954,8.0849,8.1825,8.2677,8.3536,8.4395,8.4824,8.4824,8.5956,8.6549,8.6549,8.7134,8.7095,8.6549,8.6236,8.5456,8.4362,8.4089,8.366,8.3152,8.3152,8.1278,7.8344,7.7765,7.6711,7.5573,7.6516,7.6702,7.635,7.5771,7.5332,7.4793,7.2976,7.1448,7.0382,7.0805,7.1284,7.1998,7.3297,7.4478,7.5697,7.7345,7.7905,7.8269,7.9345,7.9261,7.8954,7.8954,7.9184,7.9146,7.8308,7.6331,7.4168,7.2188,7.2727,7.3486,7.3486,7.4435,7.5549,7.6707,7.6852,7.6976,7.7254,7.6515,7.6245,7.6823,7.5014,7.3514,7.2668,7.1283,6.9975,6.8859,6.7436,6.5513,6.2935,5.9819,5.5857,5.1087,0.0,0.0,0.0,0.0,0.0,0.0,0.0,0.0,0.0,0.0,0.0,0.0,0.0,0.0,0.0,0.0,0.0,0.0,0.0,0.0,0.0,0.0,0.0,6.2413,6.6309,6.8859,6.8307,7.1201,7.2996,7.2372,7.4558,7.7062,7.9639,8.0647,8.1858,8.3536,8.4434,8.5254,8.6119,8.6978,8.7407,8.7407,8.7407,8.7407,8.7407,8.7407,8.7407,8.7368,8.6549,8.6158,8.608,8.5254,8.4863,8.4863,8.4863,8.4356,8.3419,8.1747,8.0576,7.975,7.9561,7.8897,7.7957,7.6962,7.6072,7.5351,7.5351,7.4774,7.4245,7.5082,7.5331,7.5696,7.7414,7.7882,7.8233,7.9678,7.9431,7.9166,8.0663,8.0369,7.9754,7.9754,8.0407,8.0785,7.9946,7.8461,7.7124,7.6286,7.6133,7.667,7.8308,7.7124,0.0,7.8267,7.7006,7.6322,7.7216,7.6515,7.6015,7.6015,7.363,7.1783,7.0937,6.8475,6.7051,6.7051,6.4666,6.2935,6.2127,5.7896,5.4511,5.2049,0.0,0.0,0.0,0.0,0.0,0.0,0.0,0.0,0.0,0.0,0.0,0.0,0.0,0.0,0.0,0.0,0.0,0.0,0.0,0.0,0.0,0.0,6.565,6.7102,7.0497,7.3504,7.5305,7.7453,7.8975,7.9405,8.0107,8.1311,8.3269,8.3614,8.4512,8.6236,8.6549,8.6783,8.7056,8.729,8.7407,8.7407,8.7407,8.7407,8.7407,8.7407,8.7407,8.7407,8.7134,8.7056,8.7017,8.6783,8.6705,8.6705,8.6705,8.6158,8.5293,8.4167,8.2879,8.1591,8.1513,8.0068,7.8065,7.7774,7.7053,7.6235,7.6235,7.6079,7.5962,7.6274,7.64,7.651,7.7134,7.7759,7.8305,7.8579,7.8824,7.9069,7.9365,7.9131,7.8877,7.8877,7.9054,7.9315,7.9715,7.9415,7.9223,7.9638,7.9184,7.8915,7.9377,7.8039,0.0,7.7583,7.6698,7.6322,7.7237,7.6515,7.6015,7.6015,7.3091,7.0898,7.009,6.7628,6.6244,6.6244,6.4936,6.3551,6.2127,5.8511,5.628,0.0,0.0,0.0,0.0,0.0,0.0,0.0,0.0,0.0,0.0,0.0,0.0,0.0,0.0,0.0,0.0,0.0,0.0,0.0,0.0,0.0,0.0,6.7141,7.1045,7.2807,7.4759,7.6867,7.9209,8.0693,8.202,8.323,8.3341,8.4044,8.5761,8.5878,8.6314,8.7368,8.7407,8.7407,8.7407,8.7407,8.7407,8.7407,8.7407,8.7407,8.7407,8.7407,8.7407,8.7407,8.7407,8.7407,0.0,8.7407,8.7407,8.7407,8.7407,8.7095,0.0,0.0,0.0,0.0,0.0,8.1044,7.9209,7.8468,7.7609,7.6828,7.6828,7.6828,7.6906,7.7335,7.7453,7.7564,7.8032,7.8546,7.8897,7.8702,7.8668,7.8707,7.8883,7.8507,7.8062,7.8062,7.8314,7.8536,7.8707,7.9023,0.0,7.9908,7.9908,7.9677,7.9323,7.8139,7.7293,7.7314,7.6544,7.6438,7.766,7.7053,7.6553,7.6553,7.3399,0.0,0.0,0.0,6.4897,6.382,6.3281,0.0,0.0,0.0,0.0,0.0,0.0,0.0,0.0,5.7357,5.7011,0.0,0.0,0.0,0.0,0.0,0.0,0.0,0.0,0.0,0.0,0.0,0.0,0.0,0.0,0.0,0.0,7.2339,7.6672,7.8702,7.9053,7.9717,8.1239,8.2209,8.3341,8.4941,8.5097,8.5722,8.729,8.7407,8.7407,8.7407,0.0,0.0,0.0,0.0,8.7407,8.7407,8.7407,8.7407,8.7407,8.7407,8.7407,8.7407,8.7407,8.7407,8.7407,8.7407,8.7407,8.7407,8.7407,8.7407,8.7329,8.6549,8.5722,8.4785,8.3269,8.2098,8.1044,7.9405,0.0,0.0,7.7296,7.7179,7.7257,7.8038,7.8233,7.839,7.917,7.9405,7.9366,7.917,7.852,7.8116,7.8683,7.8077,7.7368,7.7343,7.7882,7.8151,7.7429,7.7977,7.8454,7.8377,7.8992,7.9285,7.8498,7.7689,7.716,7.716,7.6476,7.6553,7.8054,0.0,0.0,7.713,7.4091,7.1245,6.8975,6.6436,6.4012,6.1743,6.1743,6.2166,6.2935,6.4436,6.5936,6.7513,6.9706,7.0475,6.9821,6.2935,6.132,0.0,0.0,0.0,0.0,0.0,0.0,0.0,0.0,0.0,0.0,0.0,0.0,0.0,0.0,0.0,7.2104,7.5188,7.8155,8.1975,8.3107,8.3692,8.4004,8.4824,8.5761,8.6783,8.69,8.7056,8.7368,8.7407,8.7407,8.7407,8.7407,0.0,8.7407,8.7407,8.7407,8.7407,8.7407,8.7407,8.7407,0.0,0.0,8.7407,8.7407,8.7407,8.7407,8.7407,8.7407,8.7407,8.7407,8.7407,8.7368,8.7212,8.6627,8.58,8.5495,8.4362,8.2879,8.1909,8.0504,7.9092,7.839,7.7687,7.714,7.7296,7.7335,0.0,7.757,7.7609,7.757,7.7375,7.7176,7.7082,7.7082,7.6809,7.6533,7.6546,7.7044,7.7497,7.7314,7.7929,7.8276,7.766,7.766,7.7737,7.7545,7.6813,7.6245,7.6245,7.6092,7.613,7.6438,7.6322,7.6245,7.6245,7.3745,7.1975,7.1514,6.909,6.7436,6.6936,6.7628,6.8052,6.8244,6.8552,6.9206,7.0167,7.0014,7.0552,7.1668,6.9475,6.8821,0.0,0.0,0.0,0.0,0.0,0.0,0.0,0.0,0.0,0.0,0.0,6.11,0.0,0.0,7.1792,7.5227,7.8702,8.1701,8.3848,8.5293,8.5917,8.5488,8.6236,8.6939,8.7368,8.7407,8.7407,8.7407,8.7407,8.7407,8.7407,8.7407,8.7407,8.7407,8.7407,8.7407,8.7407,8.7407,8.7407,8.7407,8.7407,8.7407,8.7407,8.7407,8.7407,8.7407,8.7407,8.7407,8.7407,8.7407,8.7407,8.7407,8.7407,8.7134,8.6705,8.6275,8.526,8.405,8.3191,8.2059,8.0771,7.9483,7.8741,7.8233,7.7375,7.7101,7.7101,7.7101,7.7101,7.7062,7.6984,7.7257,7.757,7.7375,7.7531,7.7677,7.7589,7.7728,7.7891,7.79,7.8237,7.8344,7.7959,7.792,7.7612,7.6775,7.6284,7.6015,7.6015,7.6015,7.6169,7.6621,7.663,7.663,7.663,7.4322,7.2668,7.2206,7.0206,6.9052,6.9052,6.9475,6.9898,7.0283,7.1168,7.2206,7.3437,7.3899,7.4745,7.5976,7.5553,7.4668,0.0,0.0,0.0,0.0,0.0,0.0,0.0,0.0,5.867,5.9802,6.3125,6.6366,6.82,7.2807,7.6828,7.835,8.2092,8.4902,8.5254,8.651,8.7134,8.6431,8.6978,8.7407,8.7407,8.7407,8.7407,8.7407,8.7564,8.7642,8.7642,8.7642,8.7642,8.7642,8.7486,8.7407,8.7407,8.7407,8.7407,8.7407,8.7407,8.7407,8.7407,8.7407,8.7407,8.7407,8.7407,8.7407,8.7407,8.7407,8.7407,8.7407,8.7407,8.7407,8.7329,8.6627,8.5917,8.5176,8.4317,8.3458,8.2528,8.0966,8.0224,7.9678,7.8272,7.7726,7.7609,7.7609,7.7609,7.7609,7.7609,7.8116,7.8624,7.8468,7.8768,7.9063,7.8888,7.8806,7.8699,7.8569,7.8707,7.8767,7.8613,7.8575,7.8083,7.6698,7.6322,7.6245,7.6245,7.6092,7.6245,7.6967,7.7053,7.7053,7.7053,7.5322,7.386,7.2976,7.1514,7.0744,7.0937,7.1091,7.1552,7.236,7.3937,7.5399,7.6746,7.79,7.8861,7.9554,7.9554,7.8554,5.5508,5.4452,0.0,5.6797,5.7343,5.8749,0.0,0.0,6.5273,6.762,6.9723,7.1909,7.433,7.6594,7.9405,8.3302,8.4434,8.5332,8.69,8.729,8.7368,8.729,8.7329,8.7407,8.7407,8.7407,8.7407,8.7407,8.811,8.854,8.854,8.854,8.854,8.854,8.7798,8.7407,8.7407,8.7407,8.7407,8.7407,8.7407,8.7407,8.7407,8.7407,8.7407,8.7407,8.7407,8.7407,8.7407,8.7407,8.7407,8.7407,8.7407,8.7407,8.7407,8.729,8.7173,8.6978,8.6119,8.5254,8.4356,8.338,8.2059,8.0816,8.0621,8.0035,7.9405,7.9405,7.9405,7.9405,7.9405,7.9483,7.9561,7.9522,7.9325,7.9095,7.9092,7.9369,7.9485,7.8877,7.9408,7.9677,7.8877,7.8762,7.8639,7.8267,7.7612,7.716,7.716,7.6476,7.6053,7.613,7.613,7.613,7.613,7.6592,7.6515,7.563,7.4668,7.4476,7.5245,7.6053,7.6823,7.763,7.8592,7.9208,7.9361,7.8784,7.8554,7.8631,7.8631,7.89,6.0225,0.0,0.0,0.0,6.273,6.4434,6.6995,6.8083,6.9015,7.0582,7.308,7.5462,7.7017,7.9945,8.2723,0.0,8.5644,8.6588,8.729,8.6978,8.6627,8.6627,8.6197,8.6275,8.729,8.7876,8.8149,8.8149,8.8969,8.9477,8.9477,8.9477,8.9203,8.8735,8.8344,8.7915,8.7407,8.7407,8.7407,8.7407,8.7407,8.7407,8.7407,8.7407,8.7407,8.7407,8.7407,8.7407,8.7407,8.7407,8.7407,8.7407,8.7407,8.7407,8.7407,8.7407,8.7407,8.7368,8.6978,8.6627,8.608,8.4707,8.377,8.3035,8.2059,8.1161,8.0459,8.0459,8.0459,8.0341,7.9834,8.0459,8.1044,8.042,8.092,8.1311,8.0743,8.1131,8.1362,8.0631,8.0787,8.1048,8.1009,8.0614,8.04,8.0662,7.9169,7.8015,7.7997,7.7699,7.7438,7.7438,7.7438,7.7438,7.7438,7.7784,7.7823,7.7476,7.7092,7.7053,7.7438,7.7784,7.8169,7.8477,7.8861,7.9285,7.9823,7.9438,7.9515,8.0015,8.0015,8.0208,6.2878,0.0,0.0,6.5156,6.7455,6.9351,7.0074,7.1591,7.3153,7.4246,7.6828,7.9131,8.0023,8.2912,0.0,8.5488,8.6588,8.7407,8.7407,8.6666,8.6119,8.6119,8.5338,8.5299,8.6549,8.7681,8.8422,8.8696,8.9711,9.0342,9.0359,9.0342,8.9945,8.9086,8.8813,8.8266,8.7407,8.7407,8.7407,8.7407,8.7407,8.7407,8.7407,8.7407,8.7407,8.7407,8.7407,8.7407,8.7407,8.7407,8.7407,8.7407,8.7407,8.7407,8.7407,8.7407,8.7251,8.7056,8.7056,8.7056,8.6822,8.5566,8.498,8.4512,8.3074,8.2053,8.135,8.1356,8.1356,8.12,8.0569,8.1356,8.2098,8.1317,8.2215,8.3011,8.2294,8.2714,8.3048,8.2249,8.2114,8.2176,8.2332,8.1892,8.167,8.224,8.0523,7.9138,7.8892,7.8661,7.8515,7.8477,7.8477,7.8477,7.8477,7.8477,7.8592,7.8823,7.8631,7.8592,7.8861,7.8861,7.8861,7.8861,7.9092,7.9515,8.0169,8.0169,8.0477,8.1093,8.1093,8.1093,0.0,0.0,6.5039,6.8398,7.0586,7.2537,7.5082,7.6945,7.8663,8.0386,8.2143,8.3666,8.4473,8.541,8.6353,8.7173,8.7368,8.7407,8.7407,8.6666,8.6119,8.608,8.5338,8.4831,0.0,8.6431,8.7798,8.8657,9.0296,9.1263,9.125,9.1267,9.0843,8.9984,8.9125,8.8266,8.7407,8.7407,8.7407,8.7407,8.7407,8.7407,8.7407,8.7407,8.7407,8.7407,8.7407,8.7407,8.7407,8.7407,8.7407,8.7407,8.7407,8.7407,8.7407,8.7407,8.6861,8.6158,8.6158,8.6158,8.6119,8.608,8.5488,8.4629,8.3731,8.2912,8.2248,8.2254,8.2254,8.2254,8.2248,8.2248,8.2293,8.2254,8.2723,8.3185,8.317,8.3685,8.3958,8.3295,8.3146,8.284,8.1903,8.1734,8.1843,8.224,8.1554,8.0746,7.9869,7.9023,7.8485,7.8477,7.8477,7.8477,7.8477,7.8477,7.8861,7.9708,7.8977,7.8861,7.9746,7.9746,7.9746,7.9746,8.0592,8.1016,8.1054,8.1054,8.1054,8.1093,8.1093,8.1093,0.0,0.0,6.9961,7.2265,7.5,7.75,7.8942,8.0151,8.085,8.0269,8.15,8.2651,8.2337,8.3916,8.5527,8.6392,8.7017,8.7407,8.7407,8.6158,8.526,8.5221,8.4011,0.0,0.0,0.0,0.0,8.8625,9.0307,9.1559,9.2148,9.2146,9.174,9.0882,9.057,9.0023,8.9125,8.9125,8.8813,8.8266,8.7681,8.7407,8.7407,8.7407,8.7407,8.7407,8.7407,8.7407,8.7407,8.7407,8.7407,8.7407,8.7407,8.7407,8.7329,8.6744,8.5995,8.5332,8.5885,8.5729,8.5254,8.5254,8.5026,8.4753,8.4441,8.3777,8.3113,8.3113,8.3113,8.2957,8.245,8.2684,8.2957,8.245,8.2879,8.3269,8.2716,8.3185,8.3497,8.2755,8.2606,8.2606,8.2684,8.2241,8.1869,8.1689,8.1792,8.1785,8.1484,8.0715,8.0439,8.0939,8.0554,8.0208,8.0208,8.0208,8.0362,8.0631,8.04,8.0362,8.0669,8.0669,8.0669,8.0669,8.0939,8.1093,8.1093,8.1093,8.1093,8.1093,8.1093,8.1093,0.0,7.0586,7.3555,7.6211,7.8555,8.0469,8.164,8.2109,8.1991,8.084,8.1011,8.1211,8.0625,8.1625,8.3107,8.4863,8.5644,8.6314,8.729,8.5878,8.4792,8.4792,8.3582,8.2996,0.0,0.0,0.0,8.8164,8.9844,9.1211,9.2109,9.2422,9.2182,9.1311,9.1311,9.0882,9.0023,8.9984,8.9555,8.8696,8.8149,8.772,8.7407,8.7407,8.7407,8.7407,8.7407,8.7407,8.7407,8.7407,8.7407,8.7407,8.7407,8.7407,8.7329,8.6783,8.5995,8.5293,8.5534,8.5065,8.4323,8.4323,8.4323,8.4284,8.3972,8.3504,8.3074,8.3074,8.3074,8.2957,8.245,8.2684,8.2957,8.2411,8.2918,8.3347,8.2833,8.338,8.3731,8.2872,8.2723,8.2723,8.2762,8.2474,8.2031,8.1477,8.1907,8.2201,8.1939,8.1439,8.1285,8.1823,8.14,8.1093,8.1093,8.1093,8.1208,8.1516,8.1246,8.1246,8.1516,8.1246,8.1093,8.1093,8.1093,8.1093,8.1093,8.1093,8.1093,8.1093,8.14,8.1516,7.2344,7.4219,7.5976,8.0117,8.1211,8.1679,8.3242,8.2969,8.2304,8.2031,8.0625,7.9414,0.0,0.0,7.9476,8.2755,8.3536,8.4551,8.7056,8.5917,8.487,0.0,0.0,0.0,0.0,0.0,0.0,8.7344,0.0,9.0351,9.1328,9.2148,9.2221,9.1389,9.1389,9.096,9.014,9.0101,8.9633,8.8813,8.8735,8.8266,8.7486,8.7407,8.7407,8.7407,8.7407,8.7407,8.7407,8.7407,8.7407,8.7407,8.7407,8.7407,8.7407,8.7407,8.6861,8.6002,8.5143,8.4284,8.3543,8.3504,8.3504,8.3347,8.2528,8.2293,8.2293,8.2293,8.2293,8.2293,8.2293,8.2293,8.2293,8.2293,8.2879,8.3426,8.3426,8.4089,8.4441,8.3582,8.3426,8.3152,8.2176,8.2293,8.2272,8.1533,8.1893,8.197,8.1246,8.1131,8.1131,8.117,8.1131,8.1093,8.1093,8.1093,8.1439,8.217,8.1516,8.1439,8.2208,8.1516,8.1093,8.1093,8.1093,8.1093,8.1093,8.1131,8.117,8.117,8.1977,8.2362,7.5195,7.8242,8.0742,8.25,8.3906,8.4648,8.3789,8.3437,8.2187,7.832,7.664,7.5312,7.3345,0.0,0.0,8.0413,8.3887,0.0,8.7329,8.6471,0.0,0.0,0.0,8.5791,8.6362,8.6679,0.0,0.0,8.8789,8.9961,9.2148,9.2461,9.2494,9.2287,9.2287,9.2131,9.1858,9.1272,9.0843,9.0609,8.932,8.8579,8.8344,8.772,8.7407,8.7407,8.7407,8.7407,8.7407,8.7407,8.7407,8.7407,8.7407,8.7407,8.7407,8.7407,8.6861,8.608,8.5846,8.5182,8.4362,8.3699,8.3504,8.3347,8.2528,8.2293,8.2293,8.2293,8.2293,8.2293,8.2293,8.2293,8.2293,8.2293,8.245,8.2606,8.2606,8.2762,8.2879,8.2645,8.2606,8.2528,8.2254,8.2059,8.1844,8.1649,8.1477,8.1554,8.1939,8.1477,8.1323,8.1939,8.1477,8.1093,8.1093,8.1093,8.1208,8.14,8.1208,8.1208,8.14,8.1208,8.1093,8.1093,8.1093,8.1093,8.1093,8.1708,8.1977,8.2016,8.2862,8.3247,7.8594,8.1406,8.3633,8.4531,8.4883,8.4609,8.2851,8.1289,7.8945,7.4531,7.2344,0.0,0.0,0.0,0.0,0.0,0.0,0.0,8.7759,8.7212,8.699,0.0,8.7561,0.0,8.7929,8.8008,8.8515,0.0,8.9492,9.0078,9.1914,9.2383,9.2611,9.2606,9.26,9.2561,9.2482,9.2053,9.1663,9.1272,9.0296,8.9633,8.9242,8.8774,8.8344,8.7954,0.0,8.7759,8.7407,8.7407,8.7407,8.7407,8.7407,8.7407,8.7407,8.7407,8.7095,8.6666,8.6666,8.6353,8.5729,8.448,8.3816,8.3426,8.2957,8.2567,8.2293,8.2293,8.2293,8.2293,8.2293,8.2293,8.2371,8.2723,8.284,8.2918,8.3308,8.3386,8.3386,8.3386,8.3386,8.3386,8.3386,8.274,8.2241,8.2246,8.1554,8.1246,8.1708,8.14,8.1285,8.1747,8.1362,8.1093,8.1093,8.1093,8.1093,8.1093,8.1093,8.1093,8.1093,8.1093,8.1093,8.1093,8.1093,8.1285,8.1631,8.2093,8.2516,8.2901,8.3747,8.417,8.2109,8.3906,8.5234,8.6015,8.4883,8.3047,8.0976,7.793,7.4492,7.078,0.0,0.0,6.618,0.0,7.2906,7.623,0.0,8.4746,8.8227,8.8039,8.7943,8.8945,8.9062,8.9101,8.9219,8.9336,9.0039,9.1523,9.1054,9.0937,9.1445,9.2187,9.2611,9.2606,9.26,9.2561,9.2482,9.2482,9.2131,9.1467,9.135,9.0882,9.0179,9.0062,8.9594,8.8852,0.0,0.0,8.7564,8.7564,8.7486,8.7407,8.7407,8.7407,8.7407,8.7407,8.7407,8.7407,8.7407,8.7407,8.7134,8.5488,8.448,8.3816,8.3699,8.3191,8.2645,8.2645,8.2645,8.2645,8.2645,8.2645,8.2801,8.3504,8.366,8.3894,8.4636,8.4792,8.4792,8.4792,8.4792,8.4792,8.4792,8.3873,8.3056,8.2969,8.1993,8.1316,8.1308,8.1201,8.1093,8.1093,8.1093,8.1093,8.1093,8.1093,8.1093,8.1093,8.1093,8.1093,8.1093,8.1093,8.1131,8.1246,8.1246,8.167,8.2477,8.2593,8.3016,8.3785,8.467,8.5055,8.4804,8.5742,8.6015,8.6172,8.4883,8.2578,7.875,7.5742,0.0,0.0,0.0,6.4306,6.2852,6.7146,0.0,7.4519,0.0,0.0,0.0,0.0,8.9061,0.0,0.0,0.0,0.0,0.0,0.0,0.0,0.0,9.375,9.2422,9.2539,9.2611,9.2606,9.2561,9.2522,9.2482,9.2482,9.2443,9.2287,9.1624,9.1233,9.1038,9.0335,8.9906,8.9789,8.9789,0.0,8.8461,8.8461,8.8032,8.7407,8.7407,8.7407,8.7407,8.7407,8.7407,8.7407,8.7407,8.7407,8.7212,8.6197,8.5768,8.5495,8.4792,8.448,8.4362,8.4362,8.4362,8.4362,8.4362,8.4362,8.4401,8.4519,8.4558,8.4629,8.4785,8.4785,8.4785,8.4785,8.4785,8.4785,8.4785,8.4464,8.4,8.3252,8.2675,8.2332,8.2328,8.1591,8.1093,8.1093,8.1093,8.1093,8.1093,8.1093,8.1093,8.1093,8.1093,8.1093,8.1093,8.1093,8.14,8.2093,8.2093,8.2516,8.3362,8.4093,8.4516,8.4709,8.5517,8.5901,8.5742,8.6523,8.664,8.5742,8.3515,8.0312,7.5586,0.0,0.0,0.0,0.0,6.2696,6.1837,0.0,0.0,0.0,0.0,0.0,0.0,0.0,0.0,0.0,0.0,0.0,0.0,0.0,0.0,0.0,0.0,9.3867,9.3945,9.3945,9.3549,9.2645,9.299,9.299,9.2561,9.2561,9.2522,9.2482,9.2092,9.1936,9.1897,9.1507,9.1077,9.0687,9.0687,0.0,8.9359,8.8891,8.8461,8.8032,8.7564,8.7407,8.7407,8.7407,8.7407,8.7407,8.7407,8.7407,8.7329,8.69,8.6471,8.6041,8.5612,8.5143,8.4792,8.4792,8.4792,8.4792,8.4792,8.4792,8.4909,8.5377,8.5807,8.6158,8.6158,8.6158,8.6158,8.6158,8.6158,8.6158,8.6158,8.5605,8.5036,8.4623,8.3911,8.3452,8.3421,8.2895,8.2314,8.1778,8.1362,8.1285,8.1708,8.1708,8.19,8.2362,8.2401,8.2401,8.2401,8.2401,8.2593,8.2978,8.2978,8.3401,8.4286,8.4709,8.5132,8.5517,8.594,8.6094,8.625,8.6992,8.7031,8.5117,8.1992,7.8086,7.289,6.9062,0.0,0.0,0.0,6.172,6.172,0.0,0.0,0.0,0.0,0.0,0.0,0.0,0.0,0.0,0.0,0.0,0.0,0.0,0.0,0.0,0.0,0.0,9.4609,9.4648,9.402,9.2624,9.3249,9.3288,9.2624,9.2606,9.2561,9.2482,9.2482,9.2482,9.2482,9.2482,9.217,9.1546,9.1546,0.0,0.0,8.9555,8.9164,8.8891,8.8227,8.7954,8.7954,8.7954,8.7837,8.7681,8.7681,8.7564,8.7407,8.7407,8.6939,8.6392,8.6392,8.5878,8.5371,8.5371,8.5371,8.5371,8.5371,8.5371,8.5527,8.6236,8.69,8.7407,8.7407,8.7407,8.7407,8.7407,8.7407,8.7407,8.7407,8.6705,8.608,8.5878,8.5107,8.4543,8.4514,8.4172,8.3668,8.2971,8.217,8.19,8.2516,8.2617,8.2948,8.3641,8.368,8.368,8.368,8.3587,8.367,8.3862,8.3862,8.4286,8.517,8.517,8.5478,8.6094,8.6286,8.6363,8.7148,8.7422,8.6875,8.4336,8.1133,7.7226,7.1992,0.0,0.0,0.0,6.1707,6.172,6.172,0.0,0.0,0.0,0.0,0.0,0.0,0.0,0.0,0.0,0.0,0.0,0.0,0.0,0.0,0.0,0.0,0.0,9.289,9.2851,9.2773,9.2617,9.2695,9.2695,9.2617,9.2551,9.2522,9.2482,9.2482,9.2482,9.2482,9.2482,9.2443,9.2404,9.2404,0.0,0.0,9.1077,9.0609,8.9867,8.9789,8.975,8.975,8.975,8.9242,8.8579,8.8579,8.8071,8.7407,8.7407,8.7368,8.729,8.729,8.7212,8.7173,8.7173,8.7173,8.7173,8.7173,8.7173,8.7173,8.7251,8.7329,8.7407,8.7407,8.7407,8.7407,8.7407,8.7407,8.7407,8.7407,8.7329,8.6978,8.6197,8.5832,8.5629,8.566,8.4626,8.4147,8.4856,8.4016,8.3401,8.3478,8.3635,8.3799,8.3876,8.3876,8.3876,8.3876,8.3672,8.3978,8.4786,8.4786,8.517,8.5978,8.5978,8.6017,8.6132,8.6901,8.7286,8.6211,8.7109,8.6758,8.3594,8.0234,7.6367,7.1172,0.0,0.0,6.2148,6.1713,6.1697,6.1681,6.2267,0.0,0.0,0.0,0.0,0.0,0.0,0.0,0.0,0.0,0.0,0.0,0.0,0.0,0.0,0.0,0.0,9.2656,9.3594,9.3672,9.2617,9.3125,9.3123,9.2599,9.2574,9.2522,9.2482,9.2482,9.2482,9.2482,9.2522,9.2522,9.2482,9.2522,0.0,0.0,9.1507,9.1116,9.0726,9.0218,8.9984,8.9984,8.9984,8.9789,8.9398,8.8891,8.8461,8.811,8.7564,8.7407,8.7407,8.7407,8.7407,8.7407,8.7407,8.7407,8.7407,8.7407,8.7407,8.7407,8.7407,8.7407,8.7407,8.7407,8.7798,8.8188,8.8188,8.8188,8.8188,8.8188,8.7759,8.729,8.6939,8.6822,8.6744,8.6744,8.6228,8.5888,8.6119,8.4734,8.3924,8.4356,8.4675,8.5002,8.5372,8.556,8.5584,8.541,8.5341,8.539,8.5632,8.6132,8.6555,8.6863,8.7401,8.7671,8.7671,8.8017,8.8171,8.5117,8.664,8.664,8.3164,7.9726,7.5859,0.0,0.0,6.3828,6.207,6.1716,6.1704,6.1686,6.172,6.2735,0.0,0.0,0.0,0.0,0.0,0.0,0.0,0.0,0.0,0.0,0.0,0.0,0.0,0.0,0.0,0.0,9.375,9.3867,9.2656,9.3203,9.3236,9.26,9.2561,9.2678,9.2873,9.26,9.2639,9.2873,9.2678,9.2574,9.2512,0.0,0.0,0.0,9.1926,9.1682,9.1624,9.0999,9.0765,9.0726,9.0726,9.0609,9.0296,8.9672,8.9281,8.8969,8.8383,8.8188,8.8188,8.8188,8.7798,8.7407,8.7407,8.7407,8.7446,8.772,8.7603,8.7446,8.772,8.7603,8.7407,8.7407,8.8071,8.8696,8.8696,8.893,8.9086,8.9086,8.8579,8.8071,8.7837,8.7798,8.7681,8.7446,8.7212,8.7146,8.7253,8.6056,8.5268,8.5329,8.5979,8.6554,8.6971,8.7429,8.7565,8.7398,8.7328,8.7151,8.6948,8.7564,8.7847,8.7786,8.8402,8.8709,8.8709,8.894,8.9171,8.4219,8.6172,8.664,8.3164,7.9726,7.582,0.0,6.6758,6.3828,6.207,6.1716,6.1704,6.1686,6.172,6.2579,6.5194,0.0,0.0,0.0,0.0,0.0,0.0,0.0,0.0,0.0,0.0,0.0,0.0,0.0,0.0,0.0,9.2617,9.2617,9.2617,9.2617,9.2611,9.26,9.2522,9.2912,9.3771,9.2912,9.2951,9.3771,9.2951,9.2595,0.0,0.0,0.0,0.0,9.2578,9.2609,9.26,9.2561,9.2522,9.2482,9.2482,9.1975,9.1272,9.1272,9.0726,8.9984,8.9984,8.9984,8.9984,8.9984,8.8774,8.7407,8.7407,8.7407,8.7603,8.8461,8.8032,8.7603,8.8461,8.8032,8.7407,8.7407,8.8071,8.8696,8.8696,8.9398,8.9984,8.9984,8.9984,8.9672,8.8813,8.8696,8.8383,8.7525,8.7212,8.7446,8.8305,8.8395,8.7797,8.6494,8.7602,8.8378,8.8378,8.9196,8.9664,8.9664,8.9389,8.9188,8.8996,8.8969,8.8905,8.8671,8.8709,8.8709,8.8709,8.9517,9.0364,7.7656,7.957,8.0351,7.6289,7.3594,7.1055,6.7578,6.5039,6.3086,6.1953,6.1718,6.1715,6.1686,6.172,6.3125,6.7498,6.863,0.0,0.0,0.0,0.0,0.0,0.0,0.0,0.0,0.0,0.0,0.0,0.0,0.0,0.0,9.2617,9.2617,9.2617,9.2617,9.2611,9.26,9.2561,9.299,9.381,9.3576,9.3576,9.3778,9.3579,9.3162,0.0,0.0,0.0,0.0,9.2617,9.2616,9.2609,9.2619,9.26,9.2561,9.2561,9.2404,9.2092,9.1507,9.1116,9.0804,9.0179,8.9984,8.9984,8.9984,8.9594,8.9164,8.9164,8.9164,8.9242,8.9516,8.9398,8.9242,8.9516,8.9398,8.9164,8.9164,8.9867,9.0492,9.0492,9.0687,9.0882,9.0882,9.0374,8.9906,8.9633,8.9594,8.9477,8.9203,8.9125,8.9125,8.9281,8.9408,8.9168,8.8458,8.9067,8.9447,8.9287,8.9671,8.9837,8.9716,8.9621,8.9372,8.8996,8.9577,8.9754,8.9517,9.0133,9.0402,9.0402,9.0671,9.0941,0.0,7.5273,7.6211,7.2851,7.0703,6.8789,6.6172,6.4258,6.2734,6.1875,6.1719,6.1717,6.1697,6.1686,6.2969,6.6834,6.8279,0.0,0.0,0.0,0.0,0.0,0.0,0.0,0.0,0.0,0.0,0.0,0.0,0.0,0.0,9.2617,9.2617,9.2617,9.2617,9.2615,9.2595,9.2613,9.3159,9.4274,9.4018,9.4214,9.4747,9.4177,9.3594,0.0,0.0,0.0,0.0,9.2617,9.2617,9.2617,9.2606,9.2595,9.2595,9.2595,9.2585,9.2522,9.1975,9.178,9.1663,9.1116,9.096,9.096,9.096,9.0492,8.9984,8.9984,8.9984,9.0062,9.0413,9.0257,9.0062,9.0413,9.0257,8.9984,8.9984,9.0687,9.1311,9.1311,9.1546,9.1741,9.1741,9.1311,9.0843,9.0531,9.0492,9.0374,9.0023,8.9984,9.0062,9.0296,9.0413,9.05,9.0495,9.0491,9.043,9.0295,9.0703,9.0898,9.0763,9.0752,9.054,9.0119,9.0636,9.0721,9.0402,9.0941,9.121,9.121,9.121,9.121,0.0,7.2578,7.3515,7.1719,7.0039,6.8242,6.5859,6.4062,0.0,6.1875,6.1719,6.1757,6.1868,6.1772,6.2384,6.4414,0.0,0.0,0.0,0.0,0.0,0.0,0.0,0.0,0.0,0.0,0.0,0.0,0.0,0.0,0.0,9.2617,9.2617,9.2617,9.2617,9.2617,9.2617,9.2673,9.3454,9.5,9.4391,9.486,9.625,9.4765,9.4023,0.0,0.0,0.0,0.0,9.2617,9.2617,9.2617,9.2617,9.2617,9.2617,9.2617,9.2606,9.26,9.26,9.2561,9.2482,9.2482,9.2482,9.2482,9.2482,9.1428,9.0179,9.0179,9.0179,9.0374,9.1194,9.0765,9.0374,9.1194,9.0765,9.0179,9.0179,9.0804,9.1389,9.1389,9.1975,9.2482,9.2482,9.2482,9.2248,9.1507,9.1389,9.1077,9.0296,9.0179,9.0492,9.1311,9.1389,9.1702,9.2443,9.1819,9.1389,9.1389,9.2092,9.2482,9.2482,9.2482,9.2312,9.1936,9.1894,9.1657,9.1206,9.121,9.121,9.121,9.121,9.121,6.3867,0.0,6.7148,6.4726,6.3828,6.3359,0.0,6.2305,0.0,0.0,0.0,0.0,0.0,0.0,0.0,0.0,0.0,0.0,0.0,0.0,0.0,0.0,0.0,0.0,0.0,0.0,0.0,0.0,0.0,0.0,0.0,9.2617,9.2617,9.2617,9.2617,9.2617,9.2617,9.3241,9.3788,9.4219,9.5349,9.5741,9.5508,9.5742,0.0,0.0,0.0,0.0,9.2617,9.2617,9.2617,9.2617,9.2617,9.2617,9.2617,9.2617,9.2606,9.26,9.26,9.2561,9.2482,9.2482,9.2482,9.2482,9.2482,9.2209,9.1897,9.1897,9.1897,9.1975,9.217,9.2053,9.1975,9.217,9.2053,9.1897,9.1897,9.2053,9.2209,9.2209,9.2365,9.2482,9.2482,9.2482,9.2443,9.2248,9.2209,9.2131,9.1936,9.1897,9.1975,9.2209,9.2209,9.2287,9.2482,9.2326,9.2209,9.2209,9.2404,9.2482,9.2482,9.2482,9.2393,9.2152,9.1789,9.155,9.1445,9.127,9.121,9.121,9.121,9.121,6.1719,6.3008,6.4062,6.2656,6.2305,6.2305,0.0,0.0,0.0,0.0,0.0,0.0,0.0,0.0,0.0,0.0,0.0,0.0,0.0,0.0,0.0,0.0,0.0,0.0,0.0,0.0,0.0,0.0,0.0,0.0,0.0,9.2617,9.2617,9.2617,9.3008,9.3203,9.3203,9.3672,9.4297,9.5117,9.6054,9.6445,9.6367,9.6445,9.5781,0.0,0.0,0.0,9.2617,9.2617,9.2617,9.2617,9.2617,9.2617,9.2617,9.2617,9.2606,9.26,9.26,9.2561,9.2482,9.2482,9.2482,9.2482,9.2482,9.2482,9.2482,9.2482,9.2482,9.2482,9.2482,9.2482,9.2482,9.2482,9.2482,9.2482,9.2482,9.2482,9.2482,9.2482,9.2482,9.2482,9.2482,9.2482,9.2482,9.2482,9.2482,9.2482,9.2482,9.2482,9.2482,9.2482,9.2482,9.2482,9.2482,9.2482,9.2482,9.2482,9.2482,9.2482,9.2482,9.2482,9.2403,9.2197,9.1727,9.1522,9.1522,9.1303,9.121,9.121,9.121,9.121,6.2344,6.3125,6.3633,6.2969,6.289,6.2969,0.0,0.0,0.0,0.0,0.0,0.0,0.0,0.0,0.0,0.0,0.0,0.0,0.0,0.0,0.0,0.0,0.0,0.0,0.0,0.0,0.0,0.0,0.0,0.0,0.0,9.2617,9.2656,9.2773,9.3515,9.4023,9.4297,9.4297,9.4961,9.6289,9.6562,9.6992,9.75,9.6797,9.6015,9.5156,0.0,0.0,9.2617,9.2617,9.2617,9.2617,9.2617,9.2617,9.2617,9.2617,9.2606,9.26,9.26,9.2561,9.2482,9.2482,9.2482,9.2482,9.2482,9.2482,9.2482,9.2482,9.2482,9.2482,9.2482,9.2482,9.2482,9.2482,9.2482,9.2482,9.2482,9.2482,9.2482,9.2482,9.2482,9.2482,9.2482,9.2482,9.2482,9.2482,9.26,9.2717,9.2717,9.2795,9.2912,9.2912,9.2912,9.2912,9.2912,9.2912,9.2834,9.2717,9.2561,9.2482,9.2482,9.2482,9.2412,9.2237,9.1816,9.1592,9.1539,9.1361,9.1206,9.121,9.121,9.121,6.5312,6.6758,6.6523,6.2812,6.2461,6.2812,0.0,0.0,0.0,0.0,0.0,0.0,0.0,0.0,0.0,0.0,0.0,0.0,0.0,0.0,0.0,0.0,0.0,0.0,0.0,0.0,0.0,0.0,0.0,0.0,0.0,9.2617,9.2929,9.3672,9.3828,9.4609,9.6094,9.6094,9.5859,9.5429,9.6836,9.7226,9.6679,9.6562,9.6015,9.5156,0.0,9.3398,9.2617,9.2617,9.2617,9.2617,9.2617,9.2617,9.2617,9.2617,9.2606,9.26,9.2522,9.2522,9.2482,9.2482,9.2482,9.2482,9.2482,9.2482,9.2482,9.2482,9.2482,9.2482,9.2482,9.2482,9.2482,9.2482,9.2482,9.2482,9.2482,9.2482,9.2482,9.2482,9.2482,9.2482,9.2482,9.2482,9.2482,9.2482,9.3146,9.3615,9.3615,9.4239,9.4715,9.4715,9.4715,9.4715,9.4715,9.4715,9.4395,9.3654,9.2912,9.2482,9.2482,9.2482,9.2475,9.2468,9.2224,9.2013,9.185,9.1604,9.1392,9.121,9.121,9.121,6.3633,6.4726,6.5234,6.4648,6.5859,0.0,0.0,0.0,0.0,0.0,0.0,0.0,0.0,0.0,0.0,0.0,0.0,0.0,0.0,0.0,0.0,0.0,0.0,0.0,0.0,0.0,0.0,0.0,0.0,0.0,0.0,0.0,9.3476,9.3906,9.4804,9.5703,9.6484,9.6914,9.6953,9.6562,9.7344,9.75,9.7148,9.6719,9.6015,9.5156,0.0,9.3398,9.2617,9.2617,9.2617,9.2617,9.2617,9.2617,9.2617,9.2617,9.2606,9.26,9.2561,9.2522,9.2482,9.2482,9.2482,9.2482,9.2482,9.2482,9.2482,9.2482,9.2482,9.2482,9.2482,9.2482,9.2482,9.2482,9.2482,9.2482,9.2482,9.2482,9.2482,9.2482,9.2482,9.2482,9.2482,9.2873,9.3185,9.3185,9.3927,9.4317,9.3849,9.4161,9.4239,9.3732,9.3693,9.3888,9.4356,9.4395,9.4239,9.381,9.299,9.2482,9.2482,9.2482,9.2482,9.2482,9.2286,9.2078,9.1899,9.1618,9.1418,9.121,9.121,9.121,6.2656,6.3242,6.418,0.0,0.0,0.0,0.0,0.0,0.0,0.0,0.0,0.0,0.0,0.0,0.0,0.0,0.0,0.0,0.0,0.0,0.0,0.0,0.0,0.0,0.0,0.0,0.0,0.0,0.0,0.0,0.0,0.0,9.4101,9.4492,9.5781,9.6601,9.6797,9.7383,9.7695,9.7695,9.7695,9.7617,9.7383,9.6562,9.5703,9.4844,9.3984,9.3203,9.2617,9.2617,9.2617,9.2617,9.2617,9.2617,9.2617,9.2617,9.2611,9.2585,9.2606,9.2561,9.2522,9.2522,9.2482,9.2482,9.2482,9.2639,9.2795,9.2795,9.2795,9.2756,9.2561,9.2639,9.2756,9.2561,9.2482,9.2482,9.2482,9.2482,9.2482,9.2482,9.2678,9.2795,9.2795,9.3341,9.381,9.381,9.4356,9.4552,9.388,9.3966,9.3849,9.3185,9.3107,9.3373,9.4037,9.392,9.381,9.381,9.3185,9.2717,9.2522,9.2482,9.2482,9.2482,9.2365,9.2131,9.1897,9.1694,9.1467,9.121,9.121,9.121,6.543,6.5976,0.0,0.0,0.0,0.0,0.0,0.0,0.0,0.0,0.0,0.0,0.0,0.0,0.0,0.0,0.0,0.0,0.0,0.0,0.0,0.0,0.0,0.0,0.0,0.0,0.0,0.0,0.0,0.0,0.0,0.0,0.0,9.625,9.6445,9.6875,9.7617,9.7656,9.7695,9.7695,9.7695,9.7304,9.6562,9.5703,9.4804,9.3945,9.3086,9.2656,9.2617,9.2617,9.2617,9.2617,9.2617,9.2617,9.2617,9.2617,9.2617,9.2615,9.2585,9.26,9.2561,9.2522,9.2482,9.2482,9.2482,9.3068,9.3693,9.3693,9.3693,9.3537,9.2717,9.3107,9.3497,9.2678,9.2482,9.2482,9.2482,9.2482,9.2482,9.2482,9.3146,9.3693,9.3693,9.3771,9.381,9.381,9.3841,9.388,9.3802,9.4512,9.4981,9.4903,9.4903,9.4942,9.502,9.4271,9.3802,9.3802,9.3732,9.3341,9.2522,9.2482,9.2482,9.2482,9.2482,9.2287,9.1897,9.1879,9.1629,9.121,9.121,9.121,6.3086,6.4609,0.0,0.0,0.0,0.0,0.0,0.0,0.0,0.0,0.0,0.0,0.0,0.0,0.0,0.0,0.0,0.0,0.0,0.0,0.0,0.0,0.0,0.0,0.0,0.0,0.0,0.0,0.0,0.0,0.0,0.0,0.0,9.5703,9.6211,9.664,9.6953,9.6953,9.6953,9.6953,9.7461,9.7539,9.7187,9.582,9.5039,9.4648,9.3203,9.2617,9.2617,9.2617,9.2929,9.3398,9.3398,9.3398,9.3359,9.2812,9.2929,9.332,9.2807,9.2556,9.26,9.3146,9.3302,9.3419,9.3966,9.4356,9.4512,9.3966,9.42,9.4395,9.3537,9.3146,9.2912,9.2561,9.2482,9.2482,9.2482,9.2482,9.2482,9.2482,9.2756,9.299,9.299,9.3458,9.381,9.381,9.4278,9.4395,9.3888,9.4083,9.4083,9.3537,9.3966,9.4278,9.4278,9.4473,9.4395,9.3849,9.3302,9.2834,9.2522,9.2482,9.2482,9.2482,9.2482,9.2365,9.2092,9.1936,9.1721,9.1364,9.1248,9.121,6.1523,6.3008,0.0,0.0,0.0,0.0,0.0,0.0,0.0,0.0,0.0,0.0,0.0,0.0,0.0,0.0,0.0,0.0,0.0,0.0,0.0,0.0,0.0,0.0,0.0,0.0,0.0,0.0,0.0,0.0,0.0,0.0,0.0,0.0,9.6328,9.6484,9.6484,9.6211,9.6094,9.6094,9.664,9.6758,9.6484,9.5586,9.4883,9.4297,9.3125,9.2617,9.2617,9.2617,9.2969,9.3515,9.3789,9.3906,9.3867,9.3554,9.3633,9.3828,9.3238,9.2985,9.2951,9.3302,9.3576,9.3849,9.4161,9.4473,9.4552,9.3966,9.4239,9.4552,9.3966,9.3341,9.2834,9.2561,9.2482,9.2482,9.2482,9.2482,9.2482,9.2482,9.2717,9.2912,9.2912,9.3419,9.381,9.381,9.4083,9.4044,9.3458,9.338,9.3146,9.2561,9.3029,9.338,9.338,9.3927,9.4005,9.3419,9.2834,9.2482,9.2482,9.2482,9.2482,9.2482,9.2482,9.2404,9.2209,9.2014,9.1753,9.1522,9.1279,9.121,6.168,0.0,0.0,0.0,0.0,0.0,0.0,0.0,0.0,0.0,0.0,0.0,0.0,0.0,0.0,0.0,0.0,0.0,0.0,0.0,0.0,0.0,0.0,0.0,0.0,0.0,0.0,0.0,0.0,0.0,0.0,0.0,9.6875,9.7656,9.6914,9.6484,9.6484,9.5625,9.5195,9.5195,9.5195,9.4765,9.3945,9.4804,9.4258,9.2617,9.2617,9.2617,9.2617,9.2617,9.2617,9.2695,9.3554,9.3906,9.4023,9.4883,9.4648,9.3906,9.3913,9.3849,9.3654,9.2795,9.3107,9.3646,9.2787,9.3139,9.3802,9.3802,9.381,9.381,9.3771,9.3771,9.3576,9.2717,9.2482,9.2482,9.2482,9.2482,9.2482,9.2482,9.3185,9.3771,9.3771,9.3771,9.3771,9.3771,9.3029,9.2482,9.2482,9.2482,9.2482,9.2482,9.2482,9.2482,9.2482,9.2482,9.2482,9.2482,9.2482,9.2482,9.2482,9.2482,9.2482,9.2482,9.2482,9.2404,9.2209,9.1977,9.1735,9.1502,9.1258,9.121,0.0,0.0,0.0,0.0,0.0,0.0,0.0,0.0,0.0,0.0,0.0,0.0,0.0,0.0,0.0,0.0,0.0,0.0,0.0,0.0,0.0,0.0,0.0,0.0,0.0,0.0,0.0,0.0,0.0,0.0,0.0,9.6484,9.6328,9.5937,9.5117,9.4687,9.4687,9.4414,9.4297,9.4297,9.4922,9.5078,9.4804,9.4453,9.3984,9.3476,9.2851,9.2617,9.2656,9.3242,9.3515,9.3594,9.4453,9.5195,9.5703,9.5312,9.539,9.5507,9.4303,9.3849,9.3771,9.3497,9.3576,9.3888,9.42,9.4512,9.4591,9.3966,9.381,9.3654,9.3029,9.2873,9.2834,9.2561,9.2482,9.2482,9.2482,9.2482,9.2482,9.2482,9.2717,9.2873,9.2873,9.2873,9.2873,9.2873,9.2678,9.2482,9.2482,9.2482,9.2482,9.2482,9.2482,9.2482,9.2482,9.2482,9.2482,9.2482,9.2482,9.2482,9.2482,9.2482,9.2482,9.2482,9.2482,9.2482,9.2404,9.207,9.1851,9.176,9.1395,9.121,0.0,0.0,0.0,0.0,0.0,0.0,0.0,0.0,0.0,0.0,0.0,0.0,0.0,0.0,0.0,0.0,0.0,0.0,0.0,0.0,0.0,0.0,0.0,0.0,0.0,0.0,0.0,0.0,0.0,0.0,0.0,9.6484,9.6094,9.5234,9.4336,9.3906,9.3906,9.3554,9.3398,9.3398,9.3906,9.4179,9.414,9.3984,9.3711,9.3359,9.2812,9.2617,9.2656,9.3164,9.3594,9.3984,9.4844,9.5742,9.6484,9.6289,9.6094,9.5781,9.4754,9.4147,9.3732,9.3419,9.3537,9.381,9.4005,9.4083,9.3966,9.3419,9.3263,9.3146,9.2639,9.2482,9.2482,9.2482,9.2482,9.2482,9.2482,9.2482,9.2482,9.2482,9.2482,9.2482,9.2482,9.2482,9.2482,9.2482,9.2482,9.2482,9.2482,9.2482,9.2482,9.2482,9.2482,9.2482,9.2482,9.2482,9.2482,9.2482,9.2482,9.2482,9.2482,9.2482,9.2482,9.2482,9.2482,9.2482,9.2482,9.2182,9.1989,9.19,9.1477,9.127,0.0,0.0,0.0,0.0,0.0,0.0,0.0,0.0,0.0,0.0,0.0,0.0,0.0,0.0,0.0,0.0,0.0,0.0,0.0,0.0,0.0,0.0,0.0,0.0,0.0,0.0,0.0,0.0,0.0,0.0,0.0,9.6211,9.5781,9.5,9.4023,9.3554,9.3554,9.2773,9.2344,9.2344,9.2422,9.2461,9.25,9.3398,9.3359,9.2617,9.2617,9.2617,9.2617,9.2617,9.3164,9.4101,9.4804,9.5703,9.6679,9.7265,9.6562,9.5312,9.5156,9.4523,9.3667,9.288,9.3107,9.3537,9.2756,9.2482,9.2482,9.2482,9.2482,9.2482,9.2482,9.2482,9.2482,9.2482,9.2482,9.2482,9.2482,9.2482,9.2482,9.2482,9.2482,9.2482,9.2482,9.2482,9.2482,9.2482,9.2482,9.2482,9.2482,9.2482,9.2482,9.2482,9.2482,9.2482,9.2482,9.2482,9.2482,9.2482,9.2482,9.2482,9.2482,9.2482,9.2482,9.2482,9.2482,9.2482,9.2482,9.23,9.2121,9.1915,9.1618,9.1385,0.0,0.0,0.0,0.0,0.0,0.0,0.0,0.0,0.0,0.0,0.0,0.0,0.0,0.0,0.0,0.0,0.0,0.0,0.0,0.0,0.0,0.0,0.0,0.0,0.0,0.0,0.0,0.0,0.0,0.0,9.5469,9.4179,9.3359,9.3164,9.164,9.0859,9.0859,9.0664,9.0547,0.0,9.125,9.1562,9.1601,9.2461,9.2773,9.2617,9.2617,9.2617,9.2617,9.2617,9.3515,9.4883,9.4375,9.5508,9.7304,9.6172,9.5937,9.6015,9.4648,9.4062,9.3744,9.2892,9.2717,9.2795,9.2561,9.2482,9.2482,9.2482,9.2482,9.2482,9.2482,9.2482,9.2482,9.2482,9.2482,9.2482,9.2482,9.2482,9.2482,9.2482,9.2482,9.2482,9.2482,9.2482,9.2482,9.2482,9.2482,9.2482,9.2482,9.2482,9.2482,9.2482,9.2482,9.2482,9.2482,9.2482,9.2482,9.2482,9.2482,9.2482,9.2482,9.2482,9.2482,9.2482,9.2482,9.2482,9.2482,9.23,9.2121,9.1915,9.1618,9.1385,0.0,0.0,0.0,0.0,0.0,0.0,0.0,0.0,0.0,0.0,0.0,0.0,0.0,0.0,0.0,0.0,0.0,0.0,0.0,0.0,0.0,0.0,0.0,0.0,0.0,0.0,0.0,0.0,0.0,9.4414,9.3984,9.2695,9.1797,9.1367,9.0469,9.0,9.0,9.0,9.0,9.0,9.0469,9.0664,9.0703,9.1992,9.2617,9.2617,9.2617,9.2617,9.2617,9.2617,9.3398,9.4531,9.4062,9.4961,9.6406,9.5508,9.5234,9.5117,9.4219,9.3633,9.3202,9.2741,9.26,9.26,9.2522,9.2482,9.2482,9.2482,9.2482,9.2482,9.2482,9.2482,9.2482,9.2482,9.2482,9.2482,9.2482,9.2482,9.2482,9.2482,9.2482,9.2482,9.2482,9.2482,9.2482,9.2482,9.2482,9.2482,9.2482,9.2482,9.2482,9.2482,9.2482,9.2482,9.2482,9.2482,9.2482,9.2482,9.2482,9.2482,9.2482,9.2482,9.2482,9.2482,9.2482,9.2482,9.2482,9.2403,9.2224,9.2013,9.1811,9.1577,0.0,0.0,0.0,0.0,0.0,0.0,0.0,0.0,0.0,0.0,0.0,0.0,0.0,0.0,0.0,0.0,0.0,0.0,0.0,0.0,0.0,0.0,0.0,0.0,0.0,0.0,0.0,0.0,0.0,9.289,9.2187,9.1328,9.0508,8.9804,8.9648,8.957,8.957,8.957,8.957,8.957,8.9726,8.9844,9.0039,9.1484,9.2226,9.2383,9.2383,9.2461,9.2617,9.2617,9.3125,9.3906,9.3711,9.4297,9.5156,9.4844,9.4375,9.3867,9.3711,9.3203,9.2617,9.2595,9.2613,9.26,9.2522,9.2522,9.2522,9.2482,9.2482,9.2482,9.2482,9.2482,9.2482,9.2482,9.2482,9.2482,9.2482,9.2482,9.2482,9.2482,9.2482,9.2482,9.2482,9.2482,9.2482,9.2482,9.2482,9.2482,9.2482,9.2482,9.2482,9.2482,9.2482,9.2482,9.2482,9.2482,9.2482,9.2482,9.2482,9.2482,9.2482,9.2482,9.2482,9.2482,9.2482,9.2482,9.2482,9.2482,9.2403,9.2197,9.1976,9.1742,0.0,0.0,0.0,0.0,0.0,0.0,0.0,0.0,0.0,0.0,0.0,0.0,0.0,0.0,0.0,0.0,0.0,0.0,0.0,0.0,0.0,0.0,0.0,0.0,0.0,0.0,0.0,0.0,9.1015,9.0469,9.0351,8.9531,8.8984,8.8867,8.8203,8.7812,8.7812,8.7812,8.7812,8.7851,8.8554,8.9258,9.0,9.0234,9.0742,9.1484,9.1484,9.1914,9.2617,9.2617,9.3125,9.3828,9.3086,9.3789,9.5039,9.3515,9.3359,9.3789,9.3047,9.2695,9.2617,9.2616,9.2603,9.26,9.26,9.26,9.2561,9.2522,9.2482,9.2482,9.2482,9.2482,9.2482,9.2482,9.2482,9.2482,9.2482,9.2482,9.2482,9.2482,9.2482,9.2482,9.2482,9.2482,9.2482,9.2482,9.2482,9.2482,9.2482,9.2482,9.2482,9.2482,9.2482,9.2482,9.2482,9.2482,9.2482,9.2482,9.2482,9.2482,9.2482,9.2482,9.2482,9.2482,9.2482,9.2482,9.2482,9.2482,9.2403,9.2197,9.1976,9.175,0.0,0.0,0.0,0.0,0.0,0.0,0.0,0.0,0.0,0.0,0.0,0.0,0.0,0.0,0.0,0.0,0.0,0.0,0.0,0.0,0.0,0.0,0.0,0.0,0.0,0.0,0.0,0.0,8.9765,8.9258,8.9258,8.8476,8.8047,8.8047,8.7695,8.75,8.75,8.75,8.75,8.75,8.7851,8.8242,8.8594,8.8594,8.9336,9.0586,9.0586,9.0781,9.1172,9.1679,9.2109,9.2461,9.2578,9.3086,9.3633,9.289,9.2851,9.3125,9.2734,9.2617,9.2617,9.2617,9.2615,9.2603,9.2595,9.2619,9.26,9.2522,9.2482,9.2482,9.2482,9.2482,9.2482,9.2482,9.2482,9.2482,9.2482,9.2482,9.2482,9.2482,9.2482,9.2482,9.2482,9.2482,9.2482,9.2482,9.2482,9.2482,9.2482,9.2482,9.2482,9.2482,9.2482,9.2482,9.2482,9.2482,9.2482,9.2482,9.2482,9.2482,9.2482,9.2482,9.2482,9.2482,9.2482,9.2482,9.2482,9.2482,9.2468,9.2344,9.2176,9.1957,0.0,0.0,0.0,0.0,0.0,0.0,0.0,0.0,0.0,0.0,0.0,0.0,0.0,0.0,0.0,0.0,0.0,0.0,0.0,0.0,0.0,0.0,0.0,0.0,0.0,0.0,0.0,0.0,8.8867,8.8398,8.8398,8.7812,8.75,8.75,8.75,8.75,8.75,8.75,8.75,8.75,8.75,8.75,8.75,8.75,8.8164,8.9375,8.957,8.9804,9.0039,9.0703,9.1094,9.1367,9.2031,9.2383,9.2617,9.2617,9.2617,9.2617,9.2617,9.2617,9.2617,9.2617,9.2617,9.2617,9.2611,9.259,9.26,9.2522,9.2482,9.2482,9.2482,9.2482,9.2482,9.2482,9.2482,9.2482,9.2482,9.2482,9.2482,9.2482,9.2482,9.2482,9.2482,9.2482,9.2482,9.2482,9.2482,9.2482,9.2482,9.2482,9.2482,9.2482,9.2482,9.2482,9.2482,9.2482,9.2482,9.2482,9.2482,9.2482,9.2482,9.2482,9.2482,9.2482,9.2482,9.2482,9.2482,9.2482,9.2482,9.2482,9.23,9.2074,0.0,0.0,0.0,0.0,0.0,0.0,0.0,0.0,0.0,0.0,0.0,0.0,0.0,0.0,0.0,0.0,0.0,0.0,0.0,0.0,0.0,0.0,0.0,0.0,0.0,0.0,0.0,0.0,8.8008,8.7578,8.7578,8.7539,8.75,8.75,8.75,8.75,8.75,8.75,8.75,8.75,8.75,8.75,8.75,8.75,8.7539,8.7656,8.8437,8.9258,9.0,9.0039,9.0547,9.1289,9.1367,9.1875,9.2617,9.2617,9.2617,9.2617,9.2617,9.2617,9.2617,9.2617,9.2617,9.2617,9.2617,9.2603,9.26,9.2522,9.2482,9.2482,9.2482,9.2482,9.2482,9.2482,9.2482,9.2482,9.2482,9.2482,9.2482,9.2482,9.2482,9.2482,9.2482,9.2482,9.2482,9.2482,9.2482,9.2482,9.2482,9.2482,9.2482,9.2482,9.2482,9.2482,9.2482,9.2482,9.2482,9.2482,9.2482,9.2482,9.2482,9.2482,9.2482,9.2482,9.2482,9.2482,9.2482,9.2482,9.2482,9.2482,9.228,9.2085,0.0,0.0,0.0,0.0,0.0,0.0,0.0,0.0,0.0,0.0,0.0,0.0,0.0,0.0,0.0,0.0,0.0,0.0,0.0,0.0,0.0,0.0,0.0,0.0,0.0,0.0,0.0,0.0,0.0,8.75,8.75,8.6953,8.6679,8.6679,8.6133,8.582,8.582,8.582,8.6094,8.6679,8.6679,8.6953,8.75,8.75,8.75,8.7539,8.7812,8.8125,8.8437,8.8945,8.9336,8.9726,9.0859,9.1484,9.1836,9.2383,9.2617,9.2617,9.2617,9.2617,9.2617,9.2617,9.2617,9.2617,9.2603,9.258,9.26,9.2522,9.2482,9.2482,9.2482,9.2482,9.2482,9.2482,9.2482,9.2482,9.2482,9.2482,9.2482,9.2482,9.2482,9.2482,9.2482,9.2482,9.2482,9.2482,9.2482,9.2482,9.2482,9.2482,9.2482,9.2482,9.2482,9.2482,9.2482,9.2482,9.2482,9.2482,9.2482,9.2482,9.2482,9.2482,9.2482,9.2482,9.2482,9.2482,9.2482,9.2482,9.2482,9.2482,9.2443,9.2209,0.0,0.0,0.0,0.0,0.0,0.0,0.0,0.0,0.0,0.0,0.0,0.0,0.0,0.0,0.0,0.0,0.0,0.0,0.0,0.0,0.0,0.0,0.0,0.0,0.0,0.0,0.0,0.0,0.0,0.0,8.707,8.625,8.5742,8.5742,8.5195,8.4883,8.4883,8.4883,8.5195,8.5742,8.5742,8.6211,8.707,8.707,8.7226,8.75,8.75,8.75,8.7539,8.8086,8.8476,8.8828,8.9961,9.0781,9.1367,9.1953,9.2344,9.2617,9.2617,9.2617,9.2617,9.2617,9.2617,9.2617,9.2603,9.2619,9.26,9.2561,9.2522,9.2482,9.2482,9.2482,9.2482,9.2482,9.2482,9.2482,9.2482,9.2482,9.2482,9.2482,9.2482,9.2482,9.2482,9.2482,9.2482,9.2482,9.2482,9.2482,9.2482,9.2482,9.2482,9.2482,9.2482,9.2482,9.2482,9.2482,9.2482,9.2482,9.2482,9.2482,9.2482,9.2482,9.2482,9.2482,9.2482,9.2482,9.2482,9.2482,9.2482,9.2482,9.2482,9.2295,0.0,0.0,0.0,0.0,0.0,0.0,0.0,0.0,0.0,0.0,0.0,0.0,0.0,0.0,0.0,0.0,0.0,0.0,0.0,0.0,0.0,0.0,0.0,0.0,0.0,0.0,0.0,0.0,8.664,8.6172,8.6172,8.5351,8.4844,8.4804,8.4804,8.4804,8.4804,8.4804,8.4844,8.4844,8.4844,8.5312,8.6172,8.6172,8.664,8.7461,8.75,8.75,8.75,8.75,8.7969,8.8672,8.8672,8.9765,9.125,9.1289,9.1836,9.2617,9.2617,9.2617,9.2617,9.2617,9.2617,9.2617,9.2617,9.2606,9.26,9.26,9.2561,9.2482,9.2482,9.2482,9.2482,9.2482,9.2482,9.2482,9.2482,9.2482,9.2482,9.2482,9.2482,9.2482,9.2482,9.2482,9.2482,9.2482,9.2482,9.2482,9.2482,9.2482,9.2482,9.2482,9.2482,9.2482,9.2482,9.2482,9.2482,9.2482,9.2482,9.2482,9.2482,9.2482,9.2482,9.2482,9.2482,9.2482,9.2482,9.2482,9.2482,9.2482,9.2482,9.2299,5.3281,0.0,0.0,0.0,0.0,0.0,0.0,0.0,0.0,0.0,0.0,0.0,0.0,0.0,0.0,0.0,0.0,0.0,0.0,0.0,0.0,0.0,0.0,0.0,0.0,0.0,0.0,0.0,8.539,8.5273,8.5273,8.4414,8.3672,8.3047,8.3008,8.3008,8.3008,8.3008,8.3359,8.3945,8.3945,8.4414,8.5273,8.5898,8.6328,8.6601,8.7226,8.75,8.75,8.75,8.7617,8.789,8.8476,8.9375,9.0429,9.1054,9.1836,9.2617,9.2617,9.2617,9.2617,9.2617,9.2617,9.2617,9.2617,9.2606,9.26,9.26,9.2561,9.2482,9.2482,9.2482,9.2482,9.2482,9.2482,9.2482,9.2482,9.2482,9.2482,9.2482,9.2482,9.2482,9.2482,9.2482,9.2482,9.2482,9.2482,9.2482,9.2482,9.2482,9.2482,9.2482,9.2482,9.2482,9.2482,9.2482,9.2482,9.2482,9.2482,9.2482,9.2482,9.2482,9.2482,9.2482,9.2482,9.2482,9.2482,9.2482,9.2482,9.2482,9.2365,9.2159,0.0,0.0,0.0,0.0,0.0,0.0,0.0,6.9726,0.0,0.0,0.0,0.0,0.0,0.0,0.0,0.0,0.0,0.0,0.0,0.0,0.0,0.0,0.0,0.0,0.0,8.5195,8.4883,8.4883,8.457,8.4219,8.3828,8.332,8.2812,8.2304,8.2304,8.2304,8.2304,8.2304,8.2539,8.3047,8.3047,8.3515,8.4375,8.5273,8.5859,8.625,8.7109,8.75,8.75,8.75,8.75,8.7539,8.8008,8.8945,9.0078,9.0586,9.1523,9.2617,9.2617,9.2617,9.2617,9.2617,9.2617,9.2617,9.2617,9.2606,9.26,9.26,9.2561,9.2482,9.2482,9.2482,9.2482,9.2482,9.2482,9.2482,9.2482,9.2482,9.2482,9.2482,9.2482,9.2482,9.2482,9.2482,9.2482,9.2482,9.2482,9.2482,9.2482,9.2482,9.2482,9.2482,9.2482,9.2482,9.2482,9.2482,9.2482,9.2482,9.2482,9.2482,9.2482,9.2482,9.2482,9.2482,9.2482,9.2482,9.2482,9.2482,9.2482,9.2482,9.2365,9.2209,0.0,0.0,0.0,0.0,0.0,0.0,6.9336,6.8867,6.8594,0.0,0.0,0.0,0.0,0.0,0.0,0.0,0.0,0.0,0.0,0.0,0.0,0.0,0.0,0.0,8.4765,8.4687,8.4609,8.4609,8.3906,8.3125,8.2344,8.2304,8.2304,8.2304,8.2304,8.2304,8.2304,8.2304,8.2304,8.2304,8.2304,8.2695,8.3476,8.4453,8.5312,8.6094,8.707,8.75,8.75,8.75,8.75,8.75,8.75,8.8476,8.9883,8.9961,9.1054,9.2461,9.2578,9.2617,9.2617,9.2617,9.2617,9.2617,9.2617,9.2606,9.2613,9.26,9.2561,9.2482,9.2482,9.2482,9.2482,9.2482,9.2482,9.2482,9.2482,9.2482,9.2482,9.2482,9.2482,9.2482,9.2482,9.2482,9.2482,9.2482,9.2482,9.2482,9.2482,9.2482,9.2482,9.2482,9.2482,9.2482,9.2482,9.2482,9.2482,9.2482,9.2482,9.2482,9.2482,9.2482,9.2482,9.2482,9.2482,9.2482,9.2482,9.2482,9.2482,9.2482,9.2482,9.2404,0.0,0.0,5.789,0.0,0.0,0.0,0.0,6.1836,6.3984,0.0,0.0,0.0,0.0,0.0,0.0,0.0,0.0,0.0,0.0,0.0,0.0,0.0,0.0,0.0,8.3867,8.3203,8.2812,8.2812,8.2656,8.2461,8.2304,8.2304,8.2304,8.2304,8.2304,8.2304,8.2304,8.2304,8.2304,8.2304,8.2304,8.2383,8.2617,8.4179,8.5,8.5234,8.6836,8.75,8.75,8.75,8.75,8.75,8.75,8.8086,8.9023,8.9726,9.0664,9.164,9.2344,9.2617,9.2617,9.2617,9.2617,9.2617,9.2617,9.2617,9.2611,9.2619,9.2561,9.2482,9.2482,9.2482,9.2482,9.2482,9.2482,9.2482,9.2482,9.2482,9.2482,9.2482,9.2482,9.2482,9.2482,9.2482,9.2482,9.2482,9.2482,9.2482,9.2482,9.2482,9.2482,9.2482,9.2482,9.2482,9.2482,9.2482,9.2482,9.2482,9.2482,9.2482,9.2482,9.2482,9.2482,9.2482,9.2482,9.2482,9.2482,9.2482,9.2482,9.2482,9.2482,9.2404,0.0,0.0,5.9687,5.9258,0.0,0.0,0.0,0.0,6.168,6.6015,6.6211,0.0,0.0,0.0,0.0,0.0,0.0,0.0,0.0,0.0,0.0,0.0,0.0,0.0,8.2969,8.2578,8.2304,8.2304,8.2304,8.2304,8.2304,8.2304,8.2304,8.2304,8.2304,8.2304,8.2304,8.2304,8.2304,8.2304,8.2304,8.2304,8.2344,8.3633,8.4492,8.4961,8.6289,8.7109,8.75,8.75,8.75,8.75,8.75,8.8008,8.8828,8.9687,9.0547,9.1406,9.2304,9.2617,9.2617,9.2617,9.2617,9.2617,9.2617,9.2617,9.2616,9.258,9.2561,9.2522,9.2522,9.2482,9.2482,9.2482,9.2482,9.2482,9.2482,9.2482,9.2482,9.2482,9.2482,9.2482,9.2482,9.2482,9.2482,9.2482,9.2482,9.2482,9.2482,9.2482,9.2482,9.2482,9.2482,9.2482,9.2482,9.2482,9.2482,9.2482,9.2482,9.2482,9.2482,9.2482,9.2482,9.2482,9.2482,9.2482,9.2482,9.2482,9.2482,9.2482,9.2482,9.2443,0.0,0.0,0.0,0.0,0.0,5.9805,0.0,0.0,0.0,6.4609,0.0,0.0,0.0,0.0,0.0,0.0,0.0,0.0,0.0,0.0,0.0,0.0,0.0,0.0,8.2031,8.1601,8.1601,8.2265,8.1679,8.1601,8.2265,8.2304,8.2304,8.2304,8.2304,8.2304,8.2304,8.2304,8.2304,8.2304,8.2304,8.2304,8.2344,8.3203,8.4062,8.4961,8.582,8.6679,8.75,8.75,8.75,8.75,8.75,8.789,8.8554,8.9414,9.0312,9.1172,9.2031,9.2461,9.2617,9.2617,9.2617,9.2617,9.2617,9.2617,9.2616,9.2595,9.2613,9.2561,9.2522,9.2482,9.2482,9.2482,9.2482,9.2482,9.2482,9.2482,9.2482,9.2482,9.2482,9.2482,9.2482,9.2482,9.2482,9.2482,9.2482,9.2482,9.2482,9.2482,9.2482,9.2482,9.2482,9.2482,9.2482,9.2482,9.2482,9.2482,9.2482,9.2482,9.2482,9.2482,9.2482,9.2482,9.2482,9.2482,9.2482,9.2482,9.2482,9.2482,9.2482,9.2482,0.0,0.0,0.0,0.0,6.3203,0.0,0.0,0.0,0.0,6.0117,0.0,0.0,0.0,0.0,0.0,0.0,0.0,0.0,0.0,0.0,0.0,0.0,0.0,0.0,0.0,7.9101,7.9023,8.207,7.9492,7.9101,8.2148,8.2304,8.2304,8.2304,8.2304,8.2304,8.2304,8.2304,8.2304,8.2304,8.2304,8.2304,8.2344,8.3203,8.4062,8.4961,8.582,8.6679,8.75,8.75,8.75,8.75,8.75,8.7578,8.7734,8.8554,8.9414,9.0273,9.1133,9.1953,9.2617,9.2617,9.2617,9.2617,9.2617,9.2617,9.2617,9.2617,9.2599,9.2561,9.2522,9.2482,9.2482,9.2482,9.2482,9.2482,9.2482,9.2482,9.2482,9.2482,9.2482,9.2482,9.2482,9.2482,9.2482,9.2482,9.2482,9.2482,9.2482,9.2482,9.2482,9.2482,9.2482,9.2482,9.2482,9.2482,9.2482,9.2482,9.2482,9.2482,9.2482,9.2482,9.2482,9.2482,9.2482,9.2482,9.2482,9.2482,9.2482,9.2482,9.2482,9.2482,0.0,0.0,0.0,0.0,0.0,0.0,0.0,0.0,5.8984,0.0,0.0,0.0,0.0,0.0,0.0,0.0,0.0,0.0,0.0,0.0,0.0,0.0,0.0,0.0,0.0,0.0,0.0,0.0,7.8555,7.8476,8.1406,8.2031,8.2304,8.2304,8.2304,8.2304,8.2304,8.2304,8.2304,8.2304,8.2304,8.2304,8.2304,8.2695,8.3594,8.4922,8.5273,8.6211,8.75,8.75,8.75,8.75,8.75,8.75,8.7656,8.8984,8.9687,9.0195,9.1562,9.2304,9.2617,9.2617,9.2617,9.2617,9.2617,9.2617,9.2617,9.2617,9.2603,9.26,9.2561,9.2522,9.2482,9.2482,9.2482,9.2482,9.2482,9.2482,9.2482,9.2482,9.2482,9.2482,9.2482,9.2482,9.2482,9.2482,9.2482,9.2482,9.2482,9.2482,9.2482,9.2482,9.2482,9.2482,9.2482,9.2482,9.2482,9.2482,9.2482,9.2482,9.2482,9.2482,9.2482,9.2482,9.2482,9.2482,9.2482,9.2482,9.2482,9.2482,9.2482,9.2482,6.8661,0.0,0.0,0.0,0.0,0.0,0.0,0.0,0.0,0.0,0.0,0.0,0.0,0.0,0.0,0.0,0.0,0.0,0.0,0.0,0.0,0.0,0.0,0.0,0.0,0.0,0.0,0.0,0.0,7.7031,8.0781,8.1601,8.2031,8.2304,8.2304,8.2304,8.2304,8.2304,8.2304,8.2304,8.2304,8.2304,8.2304,8.2539,8.3476,8.4922,8.5156,8.6094,8.75,8.75,8.75,8.75,8.75,8.75,8.7656,8.9101,8.9804,9.0234,9.1719,9.2383,9.2617,9.2617,9.2617,9.2617,9.2617,9.2617,9.2617,9.2617,9.2609,9.2585,9.2606,9.2561,9.2522,9.2482,9.2482,9.2482,9.2482,9.2482,9.2482,9.2482,9.2482,9.2482,9.2482,9.2482,9.2482,9.2482,9.2482,9.2482,9.2482,9.2482,9.2482,9.2482,9.2482,9.2482,9.2482,9.2482,9.2482,9.2482,9.2482,9.2482,9.2482,9.2482,9.2482,9.2482,9.2482,9.2482,9.2482,9.2482,9.2482,9.2482,9.2482,9.2482,0.0,0.0,0.0,0.0,0.0,0.0,0.0,0.0,6.1601,0.0,0.0,0.0,0.0,0.0,0.0,0.0,0.0,0.0,0.0,0.0,0.0,0.0,0.0,0.0,0.0,0.0,7.0937,0.0,7.332,0.0,8.0625,8.1015,8.1445,8.2265,8.2304,8.2304,8.2304,8.2304,8.2304,8.2304,8.2304,8.2304,8.2344,8.3164,8.4062,8.4961,8.5781,8.6679,8.75,8.75,8.75,8.75,8.75,8.75,8.7617,8.8437,8.9297,9.0117,9.1015,9.1875,9.2617,9.2617,9.2617,9.2617,9.2617,9.2617,9.2617,9.2617,9.2617,9.2615,9.2619,9.26,9.2561,9.2522,9.2482,9.2482,9.2482,9.2482,9.2482,9.2482,9.2482,9.2482,9.2482,9.2482,9.2482,9.2482,9.2482,9.2482,9.2482,9.2482,9.2482,9.2482,9.2482,9.2482,9.2482,9.2482,9.2482,9.2482,9.2482,9.2482,9.2482,9.2482,9.2482,9.2482,9.2482,9.2482,9.2482,9.2482,9.2482,9.2482,9.2482,9.2482,0.0,0.0,7.6767,7.0098,0.0,0.0,0.0,0.0,0.0,0.0,0.0,0.0,0.0,0.0,0.0,0.0,0.0,0.0,0.0,0.0,0.0,0.0,0.0,0.0,0.0,0.0,0.0,0.0,7.293,0.0,0.0,8.1211,8.1992,8.2304,8.2304,8.2304,8.2304,8.2304,8.2304,8.2304,8.2304,8.2617,8.3164,8.2851,8.3828,8.5742,8.5469,8.6172,8.75,8.75,8.75,8.75,8.75,8.75,8.7617,8.8398,8.9258,9.0195,9.164,9.2344,9.2617,9.2617,9.2617,9.2617,9.2617,9.2617,9.2617,9.2617,9.2617,9.2617,9.2613,9.259,9.26,9.2561,9.2561,9.2561,9.2522,9.2482,9.2482,9.2482,9.2482,9.2482,9.2482,9.2482,9.2482,9.2482,9.2482,9.2482,9.2482,9.2482,9.2482,9.2482,9.2482,9.2482,9.2482,9.2482,9.2482,9.2482,9.2482,9.2482,9.2482,9.2482,9.2482,9.2482,9.2482,9.2482,9.2482,9.2482,9.2482,9.2482,9.2482,9.2482,7.7001,7.8332,0.0,7.2847,7.1572,0.0,6.4765,0.0,0.0,0.0,0.0,0.0,0.0,0.0,0.0,0.0,0.0,0.0,0.0,0.0,0.0,0.0,0.0,0.0,0.0,0.0,6.8164,7.1719,7.1953,0.0,0.0,0.0,8.1992,8.2304,8.2304,8.2304,8.2304,8.2304,8.2304,8.2304,8.2304,8.2773,8.3594,8.3359,8.4297,8.6172,8.5937,8.6445,8.75,8.75,8.75,8.75,8.75,8.7656,8.8047,8.8867,8.9922,9.1094,9.2226,9.2617,9.2617,9.2617,9.2617,9.2617,9.2617,9.2617,9.2617,9.2617,9.2617,9.2617,9.2617,9.2611,9.2595,9.2595,9.2619,9.26,9.2522,9.2522,9.2482,9.2482,9.2482,9.2482,9.2482,9.2482,9.2482,9.2482,9.2482,9.2482,9.2482,9.2482,9.2482,9.2482,9.2482,9.2482,9.2482,9.2482,9.2482,9.2482,9.2482,9.2482,9.2482,9.2482,9.2482,9.2482,9.2482,9.2482,9.2482,9.2482,9.2482,9.2482,9.2482,9.2482]},{"header":{"parameterUnit":"m.s-1","parameterCategory":1,"la1":30.6,"la2":29.2853,"lo1":-89.7004,"lo2":-87.6739,"dy":0.0162,"dx":0.0183,"nx":112,"ny":82,"refTime":"2025-01-01T18:00:00:Z","depth":0,"parameterNumber":3,"parameterNumberName":"V-component_of_WINDS"},"data":[0.0,0.0,0.0,0.0,0.0,0.0,0.0,0.0,0.0,0.0,0.0,0.0,0.0,0.0,0.0,0.0,0.0,0.0,0.0,0.0,0.0,0.0,0.0,0.0,0.0,0.0,0.0,0.0,0.0,0.0,0.0,0.0,0.0,0.0,0.0,0.0,0.0,0.0,0.0,0.0,0.0,0.0,0.0,0.0,0.0,0.0,0.0,0.0,0.0,0.0,0.0,0.0,0.0,0.0,0.0,0.0,0.0,0.0,0.0,0.0,0.0,0.0,0.0,0.0,0.0,0.0,0.0,0.0,0.0,0.0,0.0,0.0,0.0,0.0,0.0,0.0,0.0,0.0,0.0,0.0,0.0,0.0,0.0,0.0,0.0,0.0,0.0,0.0,0.0,0.0,0.0,-1.202,-1.3024,-1.3526,-1.3268,-1.2888,-1.2128,-1.0867,0.0,0.0,0.0,0.0,0.0,0.0,0.0,0.0,0.0,0.0,0.0,0.0,0.0,0.0,0.0,0.0,0.0,0.0,0.0,0.0,0.0,0.0,0.0,0.0,0.0,0.0,0.0,0.0,0.0,0.0,0.0,0.0,0.0,0.0,0.0,0.0,0.0,0.0,0.0,0.0,0.0,0.0,0.0,0.0,0.0,0.0,0.0,0.0,0.0,0.0,0.0,0.0,0.0,0.0,0.0,0.0,0.0,0.0,0.0,0.0,0.0,0.0,0.0,0.0,0.0,0.0,0.0,0.0,0.0,0.0,0.0,0.0,0.0,0.0,0.0,0.0,0.0,0.0,0.0,0.0,0.0,0.0,0.0,0.0,0.0,0.0,0.0,0.0,0.0,0.0,0.0,0.0,0.0,0.0,0.0,0.0,0.0,0.0,0.0,0.0,0.0,0.0,0.0,0.0,-1.1423,-1.3166,-1.3519,-1.3607,-1.3566,-1.282,-1.1993,-1.1151,0.0,0.0,0.0,0.0,0.0,0.0,0.0,0.0,0.0,0.0,0.0,0.0,0.0,0.0,0.0,0.0,0.0,0.0,0.0,0.0,0.0,0.0,0.0,0.0,0.0,0.0,0.0,0.0,0.0,0.0,0.0,0.0,0.0,0.0,0.0,0.0,0.0,0.0,0.0,0.0,0.0,0.0,0.0,0.0,0.0,0.0,0.0,0.0,0.0,0.0,0.0,0.0,0.0,0.0,0.0,0.0,0.0,0.0,0.0,0.0,0.0,0.0,0.0,0.0,0.0,0.0,0.0,0.0,0.0,0.0,0.0,0.0,0.0,0.0,0.0,0.0,0.0,0.0,0.0,0.0,0.0,0.0,0.0,0.0,0.0,0.0,0.0,0.0,0.0,0.0,0.0,0.0,0.0,0.0,0.0,0.0,0.0,0.0,0.0,0.0,0.0,0.0,0.0,-1.1165,-1.1945,-1.3573,-1.3675,-1.3661,-1.3736,-1.2922,-1.2047,-1.1212,-1.0385,0.0,0.0,0.0,0.0,0.0,0.0,0.0,0.0,0.0,0.0,0.0,0.0,0.0,0.0,0.0,0.0,0.0,0.0,0.0,0.0,0.0,0.0,0.0,0.0,0.0,0.0,0.0,0.0,0.0,0.0,0.0,0.0,0.0,0.0,0.0,0.0,0.0,0.0,0.0,0.0,0.0,0.0,0.0,0.0,0.0,0.0,0.0,0.0,0.0,0.0,0.0,0.0,0.0,0.0,0.0,0.0,0.0,0.0,0.0,0.0,0.0,0.0,0.0,0.0,0.0,0.0,0.0,0.0,0.0,0.0,0.0,0.0,0.0,0.0,0.0,0.0,0.0,0.0,0.0,0.0,0.0,0.0,0.0,0.0,0.0,0.0,0.0,0.0,0.0,0.0,0.0,0.0,0.0,0.0,0.0,0.0,0.0,0.0,0.0,0.0,0.0,0.0,-1.2047,-1.2596,-1.377,-1.3736,-1.3688,-1.3831,-1.2922,-1.2006,-1.1212,-1.0215,0.0,0.0,0.0,0.0,0.0,0.0,0.0,0.0,0.0,0.0,0.0,0.0,0.0,0.0,0.0,0.0,0.0,0.0,0.0,0.0,0.0,0.0,0.0,0.0,0.0,0.0,0.0,0.0,0.0,0.0,0.0,0.0,0.0,0.0,0.0,0.0,0.0,0.0,0.0,0.0,0.0,0.0,0.0,0.0,0.0,0.0,0.0,0.0,0.0,0.0,0.0,0.0,0.0,0.0,0.0,0.0,0.0,0.0,0.0,0.0,0.0,0.0,0.0,0.0,0.0,0.0,0.0,0.0,0.0,0.0,0.0,0.0,0.0,0.0,0.0,0.0,0.0,0.0,0.0,0.0,0.0,0.0,0.0,0.0,0.0,0.0,0.0,0.0,0.0,0.0,0.0,0.0,0.0,0.0,0.0,0.0,0.0,0.0,0.0,0.0,0.0,0.0,-1.24,-1.3329,-1.3987,-1.3797,-1.3688,-1.3831,-1.2637,-1.1674,-1.1192,-0.993,0.0,0.0,0.0,0.0,0.0,0.0,0.0,0.0,0.0,0.0,0.0,0.0,0.0,0.0,0.0,0.0,0.0,0.0,0.0,0.0,0.0,0.0,0.0,0.0,0.0,0.0,0.0,0.0,0.0,0.0,0.0,0.0,0.0,0.0,0.0,0.0,0.0,0.0,0.0,0.0,0.0,0.0,0.0,0.0,0.0,0.0,0.0,0.0,0.0,0.0,0.0,0.0,0.0,0.0,0.0,0.0,0.0,0.0,0.0,0.0,0.0,0.0,0.0,0.0,0.0,0.0,0.0,0.0,0.0,0.0,0.0,0.0,0.0,0.0,0.0,0.0,0.0,0.0,0.0,0.0,0.0,0.0,0.0,0.0,0.0,0.0,0.0,0.0,0.0,0.0,0.0,0.0,0.0,0.0,0.0,0.0,0.0,0.0,0.0,0.0,0.0,0.0,-1.2054,-1.2922,0.0,-1.3614,-1.3505,-1.3559,-1.2678,-1.1762,-1.0941,0.0,0.0,0.0,0.0,0.0,0.0,0.0,0.0,0.0,0.0,0.0,0.0,0.0,0.0,0.0,0.0,0.0,0.0,0.0,0.0,0.0,0.0,0.0,0.0,0.0,0.0,0.0,0.0,0.0,0.0,0.0,0.0,0.0,0.0,0.0,0.0,0.0,0.0,0.0,0.0,0.0,0.0,0.0,0.0,0.0,0.0,0.0,0.0,0.0,0.0,0.0,0.0,0.0,0.0,0.0,0.0,0.0,0.0,0.0,0.0,0.0,0.0,0.0,0.0,0.0,0.0,0.0,0.0,0.0,0.0,0.0,0.0,0.0,0.0,0.0,0.0,0.0,0.0,0.0,0.0,0.0,0.0,0.0,0.0,0.0,0.0,0.0,0.0,0.0,0.0,0.0,0.0,0.0,0.0,0.0,0.0,0.0,0.0,0.0,0.0,0.0,0.0,-1.1118,-1.202,-1.284,0.0,-1.3492,-1.3403,-1.3403,-1.2589,-1.1687,-1.0778,0.0,0.0,0.0,0.0,0.0,0.0,0.0,0.0,0.0,0.0,0.0,0.0,0.0,0.0,0.0,0.0,0.0,0.0,0.0,0.0,0.0,0.0,0.0,0.0,0.0,0.0,0.0,0.0,0.0,0.0,0.0,0.0,0.0,0.0,0.0,0.0,0.0,0.0,0.0,0.0,0.0,0.0,0.0,0.0,0.0,0.0,0.0,0.0,0.0,0.0,0.0,0.0,0.0,0.0,0.0,0.0,0.0,0.0,0.0,0.0,0.0,0.0,0.0,0.0,0.0,0.0,0.0,0.0,0.0,0.0,0.0,0.0,0.0,0.0,0.0,0.0,0.0,0.0,0.0,0.0,0.0,0.0,0.0,0.0,0.0,0.0,0.0,0.0,0.0,0.0,0.0,0.0,0.0,0.0,0.0,0.0,0.0,0.0,0.0,0.0,0.0,0.0,-1.1314,-1.2433,-1.3288,-1.3593,-1.3492,-1.3397,-1.3397,-1.2305,-1.1362,0.0,0.0,0.0,0.0,0.0,0.0,0.0,0.0,0.0,0.0,0.0,0.0,0.0,0.0,0.0,0.0,0.0,0.0,0.0,0.0,0.0,0.0,0.0,0.0,0.0,0.0,0.0,0.0,0.0,0.0,0.0,0.0,0.0,0.0,0.0,0.0,0.0,0.0,0.0,0.0,0.0,0.0,0.0,0.0,0.0,0.0,0.0,0.0,0.0,0.0,0.0,0.0,0.0,0.0,0.0,0.0,0.0,0.0,0.0,0.0,0.0,0.0,0.0,0.0,0.0,0.0,0.0,0.0,0.0,0.0,0.0,0.0,0.0,0.0,0.0,0.0,0.0,0.0,0.0,0.0,0.0,0.0,0.0,0.0,0.0,0.0,0.0,0.0,0.0,0.0,0.0,0.0,0.0,0.0,0.0,0.0,0.0,0.0,0.0,0.0,0.0,0.0,0.0,0.0,-1.2528,-1.337,-1.3458,-1.3424,-1.3315,-1.3112,-1.2379,-1.1497,-1.0473,0.0,0.0,0.0,0.0,0.0,0.0,0.0,0.0,0.0,0.0,0.0,0.0,0.0,0.0,0.0,0.0,0.0,0.0,0.0,0.0,0.0,0.0,0.0,0.0,0.0,0.0,0.0,0.0,0.0,0.0,0.0,0.0,0.0,0.0,0.0,0.0,0.0,0.0,0.0,0.0,0.0,0.0,0.0,0.0,0.0,0.0,0.0,0.0,0.0,0.0,0.0,0.0,0.0,0.0,0.0,0.0,0.0,0.0,0.0,0.0,0.0,0.0,0.0,0.0,0.0,0.0,0.0,0.0,0.0,0.0,0.0,0.0,0.0,0.0,0.0,0.0,0.0,0.0,0.0,0.0,0.0,0.0,0.0,0.0,0.0,0.0,0.0,0.0,0.0,0.0,0.0,0.0,0.0,0.0,0.0,0.0,0.0,0.0,0.0,0.0,0.0,0.0,-1.1416,-1.2603,-1.3403,-1.3403,-1.3403,-1.3281,-1.2983,-1.2406,-1.1579,-1.0439,0.0,0.0,0.0,0.0,0.0,0.0,0.0,0.0,0.0,0.0,0.0,0.0,0.0,0.0,0.0,0.0,0.0,0.0,0.0,0.0,0.0,0.0,0.0,0.0,0.0,0.0,0.0,0.0,0.0,0.0,0.0,0.0,0.0,0.0,0.0,0.0,0.0,0.0,0.0,0.0,0.0,0.0,0.0,0.0,0.0,0.0,0.0,0.0,0.0,0.0,0.0,0.0,0.0,0.0,0.0,0.0,0.0,0.0,0.0,0.0,0.0,0.0,0.0,0.0,0.0,0.0,0.0,0.0,0.0,0.0,0.0,0.0,0.0,0.0,0.0,0.0,0.0,0.0,0.0,0.0,0.0,0.0,0.0,0.0,0.0,0.0,0.0,0.0,0.0,0.0,0.0,0.0,0.0,0.0,0.0,0.0,0.0,0.0,0.0,0.0,0.0,0.0,-1.1545,-1.2664,-1.3403,-1.3403,-1.3403,-1.3288,-1.3003,-1.2427,-1.1647,-1.0616,0.0,0.0,0.0,0.0,0.0,0.0,0.0,0.0,0.0,0.0,0.0,0.0,0.0,0.0,0.0,0.0,0.0,0.0,0.0,0.0,0.0,0.0,0.0,0.0,0.0,0.0,0.0,0.0,0.0,0.0,0.0,0.0,0.0,0.0,0.0,0.0,0.0,0.0,0.0,0.0,0.0,0.0,0.0,0.0,0.0,0.0,0.0,0.0,0.0,0.0,0.0,0.0,0.0,0.0,0.0,0.0,0.0,0.0,0.0,0.0,-0.8667,0.0,0.0,0.0,0.0,0.0,0.0,0.0,0.0,0.0,0.0,0.0,0.0,0.0,0.0,0.0,0.0,0.0,0.0,0.0,0.0,0.0,0.0,0.0,0.0,0.0,0.0,0.0,0.0,0.0,0.0,0.0,0.0,0.0,0.0,0.0,0.0,0.0,0.0,0.0,0.0,0.0,-1.1545,-1.2664,-1.3403,-1.3403,-1.3403,-1.3329,-1.3146,-1.2583,-1.1891,-1.107,0.0,0.0,0.0,0.0,0.0,0.0,0.0,0.0,0.0,0.0,0.0,0.0,0.0,0.0,0.0,0.0,0.0,0.0,0.0,0.0,0.0,0.0,0.0,0.0,0.0,0.0,0.0,0.0,0.0,0.0,0.0,0.0,0.0,0.0,0.0,0.0,0.0,0.0,0.0,0.0,0.0,0.0,0.0,0.0,0.0,0.0,0.0,0.0,0.0,0.0,0.0,0.0,0.0,0.0,0.0,0.0,0.0,0.0,0.0,0.0,0.0,-0.8744,0.0,0.0,0.0,0.0,0.0,0.0,0.0,0.0,0.0,0.0,0.0,0.0,0.0,0.0,0.0,0.0,0.0,0.0,0.0,0.0,0.0,0.0,0.0,0.0,0.0,0.0,0.0,0.0,0.0,0.0,0.0,0.0,0.0,0.0,0.0,0.0,0.0,0.0,0.0,0.0,-1.1633,-1.2705,-1.3403,-1.3403,-1.3403,-1.3342,-1.3186,-1.2691,-1.2101,-1.1423,-1.0534,0.0,0.0,0.0,0.0,0.0,0.0,0.0,0.0,0.0,0.0,0.0,0.0,0.0,0.0,0.0,0.0,0.0,0.0,0.0,0.0,0.0,0.0,0.0,0.0,0.0,0.0,0.0,0.0,0.0,0.0,0.0,0.0,0.0,0.0,0.0,0.0,0.0,0.0,0.0,0.0,0.0,0.0,0.0,0.0,0.0,0.0,0.0,0.0,0.0,0.0,0.0,0.0,0.0,-0.3858,-0.2245,-0.2407,-0.6118,-0.588,-0.2601,-0.5769,-0.7897,-0.9144,0.0,0.0,0.0,0.0,0.0,0.0,0.0,0.0,0.0,0.0,0.0,0.0,0.0,0.0,0.0,0.0,0.0,0.0,0.0,0.0,0.0,0.0,0.0,0.0,0.0,-1.0974,-1.0551,0.0,0.0,0.0,0.0,0.0,0.0,0.0,0.0,0.0,0.0,0.0,0.0,-1.1742,-1.2752,-1.3403,-1.3403,-1.3403,-1.3349,-1.322,-1.28,-1.2318,-1.1809,-1.1063,-1.0337,0.0,0.0,0.0,0.0,0.0,0.0,0.0,0.0,0.0,0.0,0.0,0.0,0.0,0.0,0.0,0.0,0.0,0.0,0.0,0.0,0.0,0.0,0.0,0.0,0.0,0.0,0.0,0.0,0.0,0.0,0.0,0.0,-0.2811,-0.2913,0.0,0.0,0.0,0.0,0.0,0.0,0.0,0.0,0.0,0.0,0.0,0.0,0.0,-0.2417,-0.3166,-0.3145,-0.3188,-0.316,-0.283,-0.2565,-0.2699,-0.3184,-0.3222,-0.2639,-0.3113,0.0,-0.3534,-0.3242,0.0,0.0,0.0,0.0,0.0,0.0,0.0,0.0,0.0,0.0,0.0,0.0,0.0,0.0,0.0,0.0,0.0,0.0,0.0,0.0,0.0,0.0,-1.1626,-1.2072,-1.2272,-1.223,0.0,-1.0637,-0.9854,-1.0965,0.0,0.0,0.0,0.0,0.0,0.0,0.0,0.0,-1.1901,-1.291,-1.3403,-1.3403,-1.3403,-1.339,-1.337,-1.2956,-1.261,-1.24,-1.1687,-1.1056,-1.0561,-0.9863,0.0,0.0,0.0,0.0,0.0,0.0,0.0,0.0,0.0,0.0,0.0,0.0,0.0,0.0,0.0,0.0,0.0,0.0,0.0,0.0,0.0,0.0,0.0,0.0,0.0,0.0,0.0,0.0,0.0,-0.5053,-0.2076,-0.2107,-0.4171,-0.6422,0.0,0.0,0.0,0.0,0.0,0.0,0.0,0.0,0.0,-0.5583,-0.3582,-0.2494,-0.2543,-0.2496,-0.2552,-0.2559,-0.2631,-0.2661,-0.2652,-0.2665,-0.266,-0.2641,-0.2654,-0.2729,-0.2564,-0.2326,-0.3445,-0.5046,0.0,0.0,0.0,0.0,-0.7046,-1.0362,-1.0353,-1.0649,0.0,0.0,0.0,0.0,0.0,0.0,0.0,0.0,0.0,0.0,0.0,0.0,0.0,-1.2906,-1.3034,-1.2902,-1.2588,-1.1907,-1.1228,0.0,-1.0273,-0.9379,-0.9044,0.0,0.0,0.0,0.0,0.0,-1.1978,-1.2816,-1.3325,-1.341,-1.3403,-1.3403,-1.3403,-1.3139,-1.2881,-1.2644,-1.2169,-1.1694,-1.1246,-1.0588,-0.9992,0.0,0.0,0.0,0.0,0.0,0.0,0.0,0.0,0.0,0.0,0.0,0.0,0.0,0.0,0.0,0.0,0.0,0.0,0.0,0.0,0.0,0.0,0.0,0.0,0.0,0.0,0.0,0.0,-0.669,-0.3819,-0.241,-0.217,-0.3928,0.0,0.0,0.0,0.0,0.0,0.0,-0.2214,-0.2279,-0.2348,-0.2417,-0.2656,-0.2724,-0.2769,-0.2695,-0.2751,-0.2773,-0.2818,-0.284,-0.284,-0.2831,-0.2804,-0.2761,-0.2752,-0.2712,-0.2637,-0.2482,-0.2353,-0.2244,-0.2166,-0.2119,-0.2099,-0.2165,-0.6054,-1.1483,-1.1859,-1.1596,-1.1077,-1.0644,0.0,-1.1918,-1.0936,0.0,0.0,0.0,0.0,-1.1281,-1.1721,-1.2278,-1.2769,-1.3352,-1.338,-1.3267,-1.2822,-1.2807,-1.2318,0.0,-1.0921,-1.0809,-1.0315,0.0,0.0,0.0,0.0,-1.1495,-1.2542,-1.301,-1.3358,-1.341,-1.3403,-1.3403,-1.3403,-1.3261,-1.3078,-1.2854,-1.2569,-1.2237,-1.1864,-1.1267,-1.0717,-1.0236,0.0,0.0,0.0,0.0,0.0,0.0,0.0,0.0,0.0,0.0,0.0,0.0,0.0,0.0,0.0,0.0,0.0,0.0,0.0,0.0,0.0,0.0,0.0,0.0,0.0,0.0,0.0,0.0,0.0,-0.2888,-0.2143,0.0,0.0,0.0,0.0,-0.2177,-0.2243,-0.2318,-0.2405,-0.2651,-0.2745,-0.2671,-0.2735,-0.2796,-0.2856,-0.2861,-0.2866,-0.3046,-0.305,-0.3052,-0.305,-0.302,-0.2827,-0.2822,-0.2793,-0.2778,-0.2762,-0.2612,-0.2652,-0.2409,-0.2375,-0.2343,-0.2319,-0.2487,-0.7125,-1.3312,-1.329,-1.2962,-1.2359,-1.2326,-1.1663,-1.0842,-1.0677,-1.0625,0.0,0.0,-1.2009,-1.2367,-1.2515,-1.2895,-1.3363,-1.3338,-1.3418,-1.3418,-1.3412,-1.3349,-1.3068,0.0,-1.161,-1.1612,-1.1544,0.0,-0.9348,-1.0451,-1.167,-1.2885,-1.401,-1.3725,-1.341,-1.3403,-1.3403,-1.3403,-1.3403,-1.3261,-1.3166,-1.3152,-1.2874,-1.263,-1.2467,-1.1891,-1.1294,-1.0697,-0.9802,0.0,0.0,0.0,0.0,0.0,0.0,0.0,0.0,0.0,0.0,0.0,0.0,0.0,0.0,0.0,0.0,0.0,0.0,0.0,0.0,0.0,0.0,0.0,0.0,0.0,0.0,0.0,0.0,-0.903,-0.4746,0.0,0.0,-0.3248,-0.2309,-0.2394,-0.2457,-0.2538,-0.2649,-0.2705,-0.2929,-0.2984,-0.3026,-0.3059,-0.3082,-0.2939,-0.3145,-0.3145,-0.3165,-0.3165,-0.3145,-0.3133,-0.2921,-0.2885,-0.2874,-0.2859,-0.2837,-0.2784,-0.2686,-0.2567,-0.2556,-0.2522,-0.2639,-0.2682,-0.7183,-1.3394,-1.3324,-1.3303,-1.3089,-1.267,-1.2155,-1.1809,-1.1873,-1.1873,-1.1949,-1.2182,-1.2658,-1.3033,-1.3119,-1.3535,-1.3902,-1.3926,-1.3961,-1.394,-1.394,-1.4027,-1.3839,-1.3471,-1.2752,-1.2199,-1.2113,-1.1696,-1.1345,-1.1717,-1.2845,-1.3713,-1.3711,-1.359,-1.3546,-1.372,-1.3458,-1.3444,-1.3539,-1.3315,-1.3132,-1.3044,-1.284,-1.2623,-1.2379,-1.2067,-1.1619,-1.1016,-1.0405,-0.9659,0.0,0.0,0.0,0.0,0.0,0.0,0.0,0.0,0.0,0.0,0.0,0.0,0.0,0.0,0.0,0.0,0.0,0.0,0.0,0.0,0.0,0.0,0.0,0.0,0.0,0.0,-0.8319,-0.9118,-0.5133,-0.229,-0.2398,-0.2436,-0.2503,-0.2598,-0.2816,-0.2893,-0.2823,-0.2857,-0.3068,-0.31,-0.3131,-0.3147,-0.3147,-0.3189,-0.3022,-0.3022,-0.3043,-0.3041,-0.3022,-0.3011,-0.2984,-0.2946,-0.2936,-0.2921,-0.2904,-0.2904,-0.2838,-0.2907,-0.2716,-0.2679,-0.2804,-0.2672,-0.57,-1.0221,-1.251,-1.3453,-1.3356,-1.2868,-1.2759,-1.2727,-1.2804,-1.1131,-0.9159,-0.9162,-0.9475,-0.9798,-0.984,-1.0083,-1.1174,-1.3634,-1.4333,-1.4277,-1.4277,-1.4319,-1.4312,-1.4337,-1.3631,-1.3078,-1.3054,-1.3151,-1.3123,-1.3123,-1.3796,-1.4002,-1.3526,-1.3378,-1.3573,-1.3796,-1.3492,-1.3444,-1.3546,-1.3227,-1.2963,-1.2813,-1.2569,-1.2338,-1.2142,-1.1891,-1.1552,-1.1097,-1.0548,-0.9849,-0.9008,0.0,0.0,0.0,0.0,0.0,0.0,0.0,0.0,0.0,0.0,0.0,0.0,0.0,0.0,0.0,0.0,0.0,0.0,0.0,0.0,0.0,0.0,0.0,-1.0444,-0.5801,-0.2555,-0.2684,-0.2642,-0.2709,-0.2685,-0.2766,-0.2691,-0.2781,-0.2992,-0.3037,-0.31,-0.3133,-0.3163,-0.3007,-0.3037,-0.3052,-0.3052,-0.3052,-0.3052,-0.3052,-0.3052,-0.3052,-0.3051,-0.3022,-0.3009,-0.3006,-0.3163,-0.3149,-0.3149,-0.3149,-0.313,-0.3095,-0.2855,-0.2814,-0.2959,-0.2778,-0.2755,-0.3745,-1.0645,-1.3072,-1.3117,-1.3117,-1.3016,-1.3091,-1.307,-0.825,-0.2643,-0.2703,-0.272,-0.2732,-0.2782,-0.3121,-0.5189,-1.2595,-1.4352,-1.4242,-1.4242,-1.4359,-1.4245,-1.4277,-1.4365,-1.4294,-1.4311,-1.4282,-1.4383,-1.4337,-1.4294,0.0,-1.3449,-1.3405,-1.3458,-1.3789,-1.3492,-1.3403,-1.3403,-1.2983,-1.2657,-1.2508,-1.2074,-1.1823,-1.1823,-1.1402,-1.1097,-1.0955,-1.0209,-0.9612,-0.9178,0.0,0.0,0.0,0.0,0.0,0.0,0.0,0.0,0.0,0.0,0.0,0.0,0.0,0.0,0.0,0.0,0.0,0.0,0.0,0.0,0.0,0.0,-0.4735,-0.4692,-0.354,-0.2727,-0.263,-0.2705,-0.2758,-0.2773,-0.2797,-0.3017,-0.2908,-0.3103,-0.3136,-0.3011,-0.3022,-0.3031,-0.304,-0.3048,-0.3052,-0.3052,-0.3052,-0.3052,-0.3052,-0.3052,-0.3052,-0.3052,-0.3043,-0.304,-0.3039,-0.3031,-0.3028,-0.3028,-0.3028,-0.3009,-0.3165,-0.2939,-0.2894,-0.2849,-0.2846,-0.2796,-0.3067,-0.4927,-0.5726,-0.5665,-0.5665,-0.5654,-0.5645,-0.5668,-0.4338,-0.2839,-0.2862,-0.2885,-0.2906,-0.2916,-0.707,-1.1641,-1.3281,-1.3953,-1.4263,-1.4263,-1.3939,-1.3807,-1.4235,-1.4361,-1.4326,-1.4222,-1.4319,-1.427,-1.4354,-1.4288,0.0,-1.3506,-1.3351,-1.3458,-1.3445,-1.3492,-1.3403,-1.3403,-1.2888,-1.2501,-1.2359,-1.1925,-1.1681,-1.1681,-1.145,-1.1206,-1.0955,-1.0317,-0.9924,0.0,0.0,0.0,0.0,0.0,0.0,0.0,0.0,0.0,0.0,0.0,0.0,0.0,0.0,0.0,0.0,0.0,0.0,0.0,0.0,0.0,0.0,-0.2491,-0.2636,-0.2542,-0.2611,-0.2684,-0.2766,-0.2818,-0.2864,-0.2906,-0.3092,-0.3118,-0.3182,-0.3187,-0.3014,-0.3051,-0.3052,-0.3052,-0.3052,-0.3052,-0.3052,-0.3052,-0.3052,-0.3052,-0.3052,-0.3052,-0.3052,-0.3052,-0.3052,-0.3052,0.0,-0.3052,-0.3052,-0.3052,-0.3052,-0.3041,0.0,0.0,0.0,0.0,0.0,-0.283,-0.2766,-0.274,-0.271,-0.2683,-0.2683,-0.2683,-0.2686,-0.2701,-0.2705,-0.2878,-0.2895,-0.2743,-0.2755,-0.2748,-0.8268,-1.3878,-1.3555,-1.3666,-1.394,-1.394,-1.3633,-1.3495,-1.3878,-1.4112,0.0,-1.427,-1.427,-1.4228,-1.3987,-1.3954,-1.3803,-1.3459,-1.3325,-1.3478,-1.3519,-1.3587,-1.3498,-1.3498,-1.2942,0.0,0.0,0.0,-1.1443,-1.1253,-1.1158,0.0,0.0,0.0,0.0,0.0,0.0,0.0,0.0,-1.0114,-1.0053,0.0,0.0,0.0,0.0,0.0,0.0,0.0,0.0,0.0,0.0,0.0,0.0,0.0,0.0,0.0,0.0,-0.2526,-0.2677,-0.2748,-0.2761,-0.2784,-0.2837,-0.305,-0.3092,-0.3152,-0.3158,-0.3181,-0.3048,-0.3052,-0.3052,-0.3052,0.0,0.0,0.0,0.0,-0.3052,-0.3052,-0.3052,-0.3052,-0.3052,-0.3052,-0.3052,-0.3052,-0.3052,-0.3052,-0.3052,-0.3052,-0.3052,-0.3052,-0.3052,-0.3052,-0.305,-0.3022,-0.3181,-0.3146,-0.2908,-0.2867,-0.283,-0.2773,0.0,0.0,-0.2699,-0.2695,-0.2698,-0.2725,-0.2732,-0.2737,-0.2765,-0.2773,-0.2772,-0.2765,-0.7388,-1.2198,-1.211,-1.2192,-1.2427,-1.329,-1.3383,-1.3429,-1.3479,-1.3749,-1.4187,-1.4173,-1.4284,-1.398,-1.3488,-1.3349,-1.3432,-1.3432,-1.3485,-1.3498,-1.3763,0.0,0.0,-1.36,-1.3064,-1.2562,-1.2162,-1.1714,-1.1287,-1.0887,-1.0887,-1.0962,-1.1097,-1.1362,-1.1626,-1.1904,-1.2291,-1.2427,-1.2311,-1.1097,-1.0812,0.0,0.0,0.0,0.0,0.0,0.0,0.0,0.0,0.0,0.0,0.0,0.0,0.0,0.0,0.0,-0.2518,-0.2626,-0.2729,-0.3042,-0.3084,-0.3105,-0.3117,-0.3147,-0.3182,-0.3031,-0.3035,-0.304,-0.3051,-0.3052,-0.3052,-0.3052,-0.3052,0.0,-0.3052,-0.3052,-0.3052,-0.3052,-0.3052,-0.3052,-0.3052,0.0,0.0,-0.3052,-0.3052,-0.3052,-0.3052,-0.3052,-0.3052,-0.3052,-0.3052,-0.3052,-0.3051,-0.3046,-0.3025,-0.3184,-0.2986,-0.2946,-0.2894,-0.2681,-0.2635,-0.2762,-0.2737,-0.2713,-0.2694,-0.2699,-0.2701,0.0,-0.2709,-0.271,-0.2709,-0.2702,-0.3707,-0.4715,-0.4715,-0.4698,-0.6359,-1.2124,-1.3412,-1.3316,-1.3459,-1.3566,-1.3626,-1.3519,-1.3519,-1.3532,-1.3499,-1.3372,-1.3444,-1.3444,-1.3417,-1.3424,-1.3478,-1.3458,-1.3444,-1.3444,-1.3003,-1.2691,-1.261,-1.2182,-1.1891,-1.1803,-1.1925,-1.1999,-1.2033,-1.2088,-1.2203,-1.2372,-1.2345,-1.244,-1.2637,-1.225,-1.2135,0.0,0.0,0.0,0.0,0.0,0.0,0.0,0.0,0.0,0.0,0.0,-0.2,0.0,0.0,-0.2507,-0.2627,-0.2748,-0.3032,-0.3111,-0.3165,-0.3188,-0.3172,-0.3011,-0.3036,-0.3051,-0.3052,-0.3052,-0.3052,-0.3052,-0.3052,-0.3052,-0.3052,-0.3052,-0.3052,-0.3052,-0.3052,-0.3052,-0.3052,-0.3052,-0.3052,-0.3052,-0.3052,-0.3052,-0.3052,-0.3052,-0.3052,-0.3052,-0.3052,-0.3052,-0.3052,-0.3052,-0.3052,-0.3052,-0.3043,-0.3028,-0.3013,-0.2977,-0.2935,-0.2905,-0.2866,-0.2821,-0.2776,-0.275,-0.2732,-0.2702,-0.2692,-0.2692,-0.2692,-0.2692,-0.2691,-0.2688,-0.2698,-0.2709,-0.2702,-0.2707,-0.4581,-1.1769,-1.3356,-1.3559,-1.3736,-1.3619,-1.3462,-1.3396,-1.3389,-1.3336,-1.3365,-1.3451,-1.3403,-1.3403,-1.3403,-1.3431,-1.3338,-1.3512,-1.3512,-1.3512,-1.3105,-1.2813,-1.2732,-1.2379,-1.2176,-1.2176,-1.225,-1.2325,-1.2393,-1.2549,-1.2732,-1.2949,-1.303,-1.318,-1.3397,-1.3322,-1.3166,0.0,0.0,0.0,0.0,0.0,0.0,0.0,0.0,-0.2177,-0.2219,-0.2204,-0.2318,-0.2382,-0.2542,-0.2683,-0.2736,-0.3046,-0.315,-0.3163,-0.3021,-0.3043,-0.3018,-0.3037,-0.3052,-0.3052,-0.3052,-0.3052,-0.3052,-0.3058,-0.3061,-0.3061,-0.3061,-0.3061,-0.3061,-0.3055,-0.3052,-0.3052,-0.3052,-0.3052,-0.3052,-0.3052,-0.3052,-0.3052,-0.3052,-0.3052,-0.3052,-0.3052,-0.3052,-0.3052,-0.3052,-0.3052,-0.3052,-0.3052,-0.3052,-0.305,-0.3025,-0.3188,-0.316,-0.3129,-0.3097,-0.2882,-0.2827,-0.2801,-0.2782,-0.2733,-0.2714,-0.271,-0.271,-0.271,-0.271,-0.271,-0.2728,-0.2746,-0.274,-0.3956,-0.657,-1.2318,-1.3541,-1.37,-1.4208,-1.3878,-1.3535,-1.3508,-1.3502,-1.3593,-1.3351,-1.3458,-1.3444,-1.3444,-1.3417,-1.3444,-1.3398,-1.3587,-1.3587,-1.3587,-1.3281,-1.3024,-1.2868,-1.261,-1.2474,-1.2508,-1.2535,-1.2617,-1.2759,-1.3037,-1.3295,-1.3532,-1.3736,-1.3905,-1.4027,-1.4027,-1.3851,-0.0121,-0.0238,0.0,-0.0124,-0.0125,-0.0385,0.0,0.0,-0.2279,-0.2214,-0.2435,-0.2511,-0.2596,-0.2675,-0.2773,-0.3091,-0.3133,-0.3166,-0.3035,-0.3048,-0.3051,-0.3048,-0.305,-0.3052,-0.3052,-0.3052,-0.3052,-0.3052,-0.3077,-0.3092,-0.3092,-0.3092,-0.3092,-0.3092,-0.3066,-0.3052,-0.3052,-0.3052,-0.3052,-0.3052,-0.3052,-0.3052,-0.3052,-0.3052,-0.3052,-0.3052,-0.3052,-0.3052,-0.3052,-0.3052,-0.3052,-0.3052,-0.3052,-0.3052,-0.3052,-0.3048,-0.3044,-0.3037,-0.3007,-0.3163,-0.313,-0.3094,-0.2866,-0.2646,-0.2639,-0.262,-0.2773,-0.2773,-0.2773,-0.2773,-0.2773,-0.2776,-0.2778,-0.2777,-0.7988,-1.3236,-1.3946,-1.4174,-1.4194,-1.4263,-1.418,-1.4228,-1.4263,-1.4242,-1.4043,-1.3449,-1.3336,-1.3432,-1.3432,-1.3485,-1.341,-1.3424,-1.3424,-1.3424,-1.3424,-1.3505,-1.3492,-1.3336,-1.3166,-1.3132,-1.3268,-1.341,-1.3546,-1.3688,-1.3858,-1.3966,-1.3994,-1.3892,-1.3851,-1.3865,-1.3865,-1.3912,-0.1051,0.0,0.0,0.0,-0.0684,-0.1547,-0.2193,-0.2378,-0.2561,-0.2465,-0.2552,-0.2635,-0.2858,-0.2966,-0.2889,0.0,-0.3178,-0.3024,-0.3048,-0.3037,-0.3025,-0.3025,-0.301,-0.3013,-0.3048,-0.3069,-0.3078,-0.3078,-0.3107,-0.3125,-0.3125,-0.3125,-0.3115,-0.3099,-0.3085,-0.307,-0.3052,-0.3052,-0.3052,-0.3052,-0.3052,-0.3052,-0.3052,-0.3052,-0.3052,-0.3052,-0.3052,-0.3052,-0.3052,-0.3052,-0.3052,-0.3052,-0.3052,-0.3052,-0.3052,-0.3052,-0.3052,-0.3051,-0.3037,-0.3025,-0.3006,-0.3143,-0.3108,-0.29,-0.2866,-0.2834,-0.281,-0.281,-0.281,-0.2806,-0.2788,-0.281,-0.283,-0.2808,-0.5304,-0.8905,-1.3331,-1.4306,-1.4346,-1.4217,-1.0636,-0.7626,-0.7622,-1.133,-1.4177,-1.4041,-1.396,-1.3756,-1.3402,-1.3526,-1.3654,-1.3654,-1.3654,-1.3654,-1.3654,-1.3715,-1.3722,-1.3661,-1.3593,-1.3587,-1.3654,-1.3715,-1.3783,-1.3838,-1.3905,-1.398,-1.4075,-1.4007,-1.4021,-1.4109,-1.4109,-1.4143,-0.1235,0.0,0.0,0.0,-0.0883,-0.1816,-0.2447,-0.2656,-0.2714,-0.2755,-0.2683,-0.2763,-0.2969,-0.3076,0.0,-0.3172,-0.3024,-0.3052,-0.3052,-0.3026,-0.3007,-0.3007,-0.298,-0.2979,-0.3022,-0.3062,-0.3088,-0.3097,-0.3133,-0.2957,-0.2366,-0.2957,-0.3141,-0.3111,-0.3101,-0.3082,-0.3052,-0.3052,-0.3052,-0.3052,-0.3052,-0.3052,-0.3052,-0.3052,-0.3052,-0.3052,-0.3052,-0.3052,-0.3052,-0.3052,-0.3052,-0.3052,-0.3052,-0.3052,-0.3052,-0.3052,-0.3047,-0.304,-0.304,-0.304,-0.3032,-0.3175,-0.3153,-0.3136,-0.2901,-0.3045,-0.3019,-0.2841,-0.2841,-0.2836,-0.299,-0.2841,-0.2867,-0.284,-0.2871,-0.435,-0.9922,-1.1257,-1.1118,-1.1194,-0.6643,-0.287,-0.2875,-0.933,-1.4401,-1.4316,-1.438,-1.4132,-1.3733,-1.3693,-1.3844,-1.3838,-1.3838,-1.3838,-1.3838,-1.3838,-1.3858,-1.3899,-1.3865,-1.3858,-1.3905,-1.3905,-1.3905,-1.3905,-1.3946,-1.4021,-1.4136,-1.4136,-1.419,-1.4299,-1.4299,-1.4299,0.0,0.0,0.0,0.0,-0.0,-0.0475,-0.2294,-0.2687,-0.2747,-0.2632,-0.2689,-0.2739,-0.3134,-0.3169,-0.3016,-0.3044,-0.3051,-0.3052,-0.3052,-0.3026,-0.3007,-0.3006,-0.298,-0.2962,0.0,-0.3018,-0.3066,-0.3096,-0.3153,-0.2191,-0.0199,-0.1991,-0.3172,-0.3142,-0.3112,-0.3082,-0.3052,-0.3052,-0.3052,-0.3052,-0.3052,-0.3052,-0.3052,-0.3052,-0.3052,-0.3052,-0.3052,-0.3052,-0.3052,-0.3052,-0.3052,-0.3052,-0.3052,-0.3052,-0.3052,-0.3052,-0.3033,-0.3009,-0.3009,-0.3009,-0.3007,-0.3006,-0.3172,-0.314,-0.3107,-0.3076,-0.3052,-0.2872,-0.2872,-0.2872,-0.3052,-0.3052,-0.2874,-0.2872,-0.2889,-0.3087,-0.345,-0.3288,-0.3299,-0.3273,-0.3085,-0.2893,-0.286,-0.9674,-1.4984,-1.4316,-1.438,-1.4238,-1.4263,-1.4112,-1.4016,-1.3838,-1.3838,-1.3838,-1.3838,-1.3838,-1.3905,-1.4055,-1.3926,-1.3905,-1.4061,-1.4061,-1.4061,-1.4061,-1.4211,-1.4285,-1.4292,-1.4292,-1.4292,-1.4299,-1.4299,-1.4299,0.0,0.0,0.0,0.0,0.0,-0.0169,-0.0689,-0.0874,-0.1235,-0.2628,-0.1956,-0.0902,-0.1078,-0.2197,-0.3173,-0.3017,-0.3039,-0.3052,-0.3052,-0.3009,-0.2977,-0.2976,-0.2934,0.0,0.0,0.0,0.0,-0.116,-0.0985,-0.0799,-0.0,-0.0603,-0.1802,-0.3174,-0.3163,-0.3144,-0.3112,-0.3112,-0.3101,-0.3082,-0.3062,-0.3052,-0.3052,-0.3052,-0.3052,-0.3052,-0.3052,-0.3052,-0.3052,-0.3052,-0.3052,-0.3052,-0.3052,-0.3052,-0.305,-0.3029,-0.3191,-0.3166,-0.2999,-0.2994,-0.3163,-0.3163,-0.2969,-0.296,-0.2949,-0.2926,-0.2902,-0.2902,-0.2902,-0.2897,-0.2879,-0.2887,-0.2897,-0.2879,-0.2894,-0.2908,-0.3069,-0.3087,-0.3098,-0.3071,-0.2885,-0.2885,-0.2887,-0.937,-1.462,-1.4956,-1.4606,-1.4421,-1.4551,-1.4414,-1.4183,-1.4272,-1.4204,-1.4143,-1.4143,-1.4143,-1.417,-1.4217,-1.4177,-1.417,-1.4224,-1.4224,-1.4224,-1.4224,-1.4272,-1.4299,-1.4299,-1.4299,-1.4299,-1.4299,-1.4299,-1.4299,0.0,0.0,0.0,0.0,0.0,0.0,0.0,0.0,-0.0358,-0.1764,-0.0884,0.0,0.0,-0.1603,-0.3084,-0.3149,-0.3178,-0.3014,-0.3048,-0.3187,-0.2961,-0.2961,-0.2919,-0.2898,0.0,0.0,0.0,-0.0192,0.0,0.0,0.0,0.0,-0.1006,-0.3189,-0.3189,-0.3174,-0.3144,-0.3142,-0.3127,-0.3097,-0.3078,-0.3063,-0.3052,-0.3052,-0.3052,-0.3052,-0.3052,-0.3052,-0.3052,-0.3052,-0.3052,-0.3052,-0.3052,-0.3052,-0.305,-0.3031,-0.3191,-0.3165,-0.2987,-0.2971,-0.2945,-0.2945,-0.2945,-0.2943,-0.2932,-0.2916,-0.2901,-0.2901,-0.2901,-0.2897,-0.2879,-0.2887,-0.2897,-0.2878,-0.2896,-0.2911,-0.3074,-0.3094,-0.3107,-0.3075,-0.2889,-0.2889,-0.289,-0.7034,-1.1346,-1.4367,-1.4627,-1.4309,-1.4448,-1.436,-1.4333,-1.4428,-1.4353,-1.4299,-1.4299,-1.4299,-1.4319,-1.4373,-1.4326,-1.4326,-1.4373,-1.4326,-1.4299,-1.4299,-1.4299,-1.4299,-1.4299,-1.4299,-1.4299,-1.4299,-1.4353,-1.4373,0.0,0.0,0.0,0.0,0.0,0.0,0.0,0.0,0.0,0.0,0.0,-0.0,0.0,0.0,-0.2949,-0.3071,-0.31,-0.3137,-0.304,-0.3188,-0.2964,0.0,0.0,0.0,0.0,0.0,0.0,0.0,0.0,0.0,0.0,0.0,-0.1006,-0.3191,-0.3191,-0.3176,-0.3148,-0.3146,-0.313,-0.3101,-0.3099,-0.3082,-0.3055,-0.3052,-0.3052,-0.3052,-0.3052,-0.3052,-0.3052,-0.3052,-0.3052,-0.3052,-0.3052,-0.3052,-0.3052,-0.3052,-0.3033,-0.3003,-0.2973,-0.2943,-0.2917,-0.2916,-0.2916,-0.2911,-0.2882,-0.2874,-0.2874,-0.2874,-0.2874,-0.2874,-0.2874,-0.2874,-0.2874,-0.2874,-0.2894,-0.2913,-0.2913,-0.2936,-0.2949,-0.2919,-0.2913,-0.2904,-0.287,-0.2874,-0.5573,-1.3096,-1.4256,-1.4269,-1.4326,-1.4306,-1.4306,-1.4312,-1.4306,-1.4299,-1.4299,-1.4299,-1.436,-1.4489,-1.4373,-1.436,-1.4496,-1.4373,-1.4299,-1.4299,-1.4299,-1.4299,-1.4299,-1.4306,-1.4312,-1.4312,-1.4455,-1.4523,0.0,0.0,0.0,0.0,0.0,0.0,0.0,0.0,0.0,0.0,0.0,-0.0329,-0.144,0.0,0.0,-0.2984,-0.3113,0.0,-0.305,-0.302,0.0,0.0,0.0,-0.2247,-0.0942,-0.0378,0.0,0.0,0.0,0.0,0.0,0.0,-0.1009,-0.3223,-0.3223,-0.3217,-0.3208,-0.3187,-0.3172,-0.3164,-0.3119,-0.3093,-0.3085,-0.3063,-0.3052,-0.3052,-0.3052,-0.3052,-0.3052,-0.3052,-0.3052,-0.3052,-0.3052,-0.3052,-0.3052,-0.3052,-0.3033,-0.3006,-0.2998,-0.2975,-0.2946,-0.2923,-0.2916,-0.2911,-0.2882,-0.2874,-0.2874,-0.2874,-0.2874,-0.2874,-0.2874,-0.2874,-0.2874,-0.2874,-0.2879,-0.2885,-0.2885,-0.289,-0.2894,-0.2886,-0.2885,-0.2882,-0.2872,-0.2866,-0.5544,-1.3115,-1.4367,-1.438,-1.4448,-1.4367,-1.434,-1.4448,-1.4367,-1.4299,-1.4299,-1.4299,-1.4319,-1.4353,-1.4319,-1.4319,-1.4353,-1.4319,-1.4299,-1.4299,-1.4299,-1.4299,-1.4299,-1.4407,-1.4455,-1.4462,-1.4611,-1.4679,0.0,0.0,0.0,0.0,0.0,0.0,0.0,0.0,0.0,0.0,0.0,0.0,0.0,0.0,0.0,0.0,0.0,0.0,-0.3065,-0.3046,-0.2658,0.0,-0.1719,0.0,-0.0192,0.0,0.0,0.0,0.0,0.0,0.0,0.0,-0.101,-0.3032,-0.3234,-0.3232,-0.323,-0.3215,-0.3201,-0.3187,-0.3153,-0.313,-0.3116,-0.31,-0.3085,-0.3071,0.0,-0.3065,-0.3052,-0.3052,-0.3052,-0.3052,-0.3052,-0.3052,-0.3052,-0.3052,-0.3041,-0.3026,-0.3026,-0.3016,-0.2994,-0.295,-0.2927,-0.2913,-0.2897,-0.2883,-0.2874,-0.2874,-0.2874,-0.2874,-0.2874,-0.2874,-0.2876,-0.2889,-0.2893,-0.2896,-0.2909,-0.2912,-0.2912,-0.2912,-0.2912,-0.2912,-0.2912,-0.5604,-0.937,-1.3579,-1.438,-1.4326,-1.4407,-1.4353,-1.4333,-1.4414,-1.4346,-1.4299,-1.4299,-1.4299,-1.4299,-1.4299,-1.4299,-1.4299,-1.4299,-1.4299,-1.4299,-1.4299,-1.4299,-1.4333,-1.4394,-1.4475,-1.455,-1.4618,-1.4767,-1.4841,0.0,0.0,0.0,0.0,0.0,0.0,0.0,0.0,-0.0,-0.0309,0.0,0.0,-0.2022,0.0,-0.3024,-0.2995,0.0,-0.3145,-0.3081,-0.2882,-0.2111,-0.0194,0.0,0.0,0.0,0.0,0.0,0.0,0.0,0.0,0.0,0.0,-0.101,-0.3032,-0.3234,-0.3232,-0.323,-0.323,-0.3217,-0.3194,-0.319,-0.3174,-0.3149,-0.3145,-0.3129,-0.3103,0.0,0.0,-0.3058,-0.3058,-0.3055,-0.3052,-0.3052,-0.3052,-0.3052,-0.3052,-0.3052,-0.3052,-0.3052,-0.3052,-0.3043,-0.3172,-0.295,-0.2927,-0.2923,-0.2905,-0.2886,-0.2886,-0.2886,-0.2886,-0.2886,-0.2886,-0.2891,-0.2916,-0.2921,-0.293,-0.2956,-0.2961,-0.2961,-0.2961,-0.2961,-0.2961,-0.2961,-0.8446,-1.2969,-1.3512,-1.3905,-1.4155,-1.3971,-1.4135,-1.4299,-1.4299,-1.4299,-1.4299,-1.4299,-1.4299,-1.4299,-1.4299,-1.4299,-1.4299,-1.4299,-1.4299,-1.4306,-1.4326,-1.4326,-1.4401,-1.4543,-1.4563,-1.4638,-1.4774,-1.493,-1.4997,0.0,0.0,0.0,0.0,0.0,0.0,0.0,0.0,0.0,0.0,0.0,-0.1965,-0.2195,-0.2345,0.0,-0.2765,0.0,0.0,0.0,0.0,-0.0389,0.0,0.0,0.0,0.0,0.0,0.0,0.0,0.0,0.0,0.0,0.0,-0.101,-0.3032,-0.3232,-0.3231,-0.323,-0.323,-0.3228,-0.3223,-0.32,-0.3186,-0.3179,-0.3155,-0.314,-0.3135,-0.3135,0.0,-0.3089,-0.3089,-0.3074,-0.3052,-0.3052,-0.3052,-0.3052,-0.3052,-0.3052,-0.3052,-0.3052,-0.3052,-0.3046,-0.301,-0.2995,-0.2986,-0.2961,-0.295,-0.2946,-0.2946,-0.2946,-0.2946,-0.2946,-0.2946,-0.2947,-0.2951,-0.2953,-0.314,-0.3146,-0.3146,-0.3146,-0.3146,-0.3146,-0.3146,-0.3146,-0.4242,-0.6058,-0.9118,-1.2356,-1.3778,-1.2304,-1.3471,-1.4299,-1.4299,-1.4299,-1.4299,-1.4299,-1.4299,-1.4299,-1.4299,-1.4299,-1.4299,-1.4299,-1.4299,-1.4353,-1.4475,-1.4475,-1.455,-1.4699,-1.4828,-1.4903,-1.4936,-1.5079,-1.5147,0.0,0.0,0.0,0.0,0.0,0.0,0.0,0.0,0.0,0.0,0.0,-0.2189,-0.2159,0.0,0.0,0.0,0.0,0.0,0.0,0.0,0.0,0.0,0.0,0.0,0.0,0.0,0.0,0.0,0.0,0.0,0.0,0.0,-0.1021,-0.3033,-0.3247,-0.3247,-0.3232,-0.3232,-0.3231,-0.323,-0.3216,-0.321,-0.3209,-0.3195,-0.318,-0.3167,-0.3167,0.0,-0.312,-0.3104,-0.3089,-0.3074,-0.3058,-0.3052,-0.3052,-0.3052,-0.3052,-0.3052,-0.3052,-0.3052,-0.305,-0.3035,-0.302,-0.3005,-0.299,-0.2973,-0.2961,-0.2961,-0.2961,-0.2961,-0.2961,-0.2961,-0.2965,-0.2981,-0.2996,-0.3009,-0.3009,-0.3009,-0.3009,-0.3009,-0.3009,-0.3009,-0.3009,-0.3176,-0.3713,-0.5546,-0.8449,-1.0431,-1.0983,-1.2204,-1.3406,-1.4236,-1.4346,-1.4333,-1.4407,-1.4407,-1.4441,-1.4523,-1.4529,-1.4529,-1.4529,-1.4529,-1.4563,-1.4631,-1.4631,-1.4706,-1.4862,-1.4936,-1.5011,-1.5079,-1.5153,-1.5181,0.0,0.0,0.0,0.0,0.0,0.0,0.0,0.0,0.0,0.0,0.0,-0.2155,-0.2155,0.0,0.0,0.0,0.0,0.0,0.0,0.0,0.0,0.0,0.0,0.0,0.0,0.0,0.0,0.0,0.0,0.0,0.0,0.0,-0.082,-0.2425,-0.2442,-0.2443,-0.2425,-0.3032,-0.3232,-0.323,-0.323,-0.323,-0.323,-0.323,-0.3219,-0.3197,-0.3197,0.0,0.0,-0.3127,-0.3114,-0.3104,-0.3081,-0.3071,-0.3071,-0.3071,-0.3067,-0.3062,-0.3062,-0.3058,-0.3052,-0.3052,-0.3036,-0.3017,-0.3017,-0.3187,-0.3168,-0.3168,-0.3168,-0.3168,-0.3168,-0.3168,-0.3173,-0.3011,-0.3035,-0.3052,-0.3052,-0.3052,-0.3052,-0.3052,-0.3052,-0.3052,-0.3052,-0.3028,-0.3006,-0.3187,-0.4646,-0.6654,-0.8696,-1.0335,-1.2318,-1.4443,-1.4489,-1.4441,-1.455,-1.4196,-1.3881,-1.3997,-1.4003,-1.4003,-1.4003,-1.4551,-1.4753,-1.4787,-1.4787,-1.4862,-1.5018,-1.5018,-1.5072,-1.5181,-1.5215,-1.5228,0.0,0.0,0.0,0.0,0.0,0.0,0.0,0.0,0.0,0.0,-0.1212,-0.2155,-0.2155,0.0,0.0,0.0,0.0,0.0,0.0,0.0,0.0,0.0,0.0,0.0,0.0,0.0,0.0,0.0,0.0,0.0,0.0,0.0,-0.0,-0.0202,-0.0202,-0.0202,-0.0202,-0.2221,-0.3231,-0.323,-0.323,-0.323,-0.323,-0.323,-0.3228,-0.3227,-0.3227,0.0,0.0,-0.318,-0.3164,-0.3138,-0.3135,-0.3134,-0.3134,-0.3134,-0.3116,-0.3093,-0.3093,-0.3076,-0.3052,-0.3052,-0.3051,-0.3048,-0.3048,-0.3046,-0.3044,-0.3044,-0.3044,-0.3044,-0.3044,-0.3044,-0.3044,-0.3047,-0.305,-0.3052,-0.3052,-0.3052,-0.3052,-0.3052,-0.3052,-0.3052,-0.3052,-0.305,-0.3037,-0.301,-0.3372,-0.3552,-0.374,-0.7962,-1.2013,-1.4772,-1.4814,-1.4706,-1.4719,-1.3059,-1.1964,-1.1975,-1.1975,-1.1975,-1.1975,-1.3814,-1.4808,-1.495,-1.495,-1.5018,-1.516,-1.516,-1.5167,-1.5187,-1.5323,-1.5391,0.0,0.0,0.0,0.0,0.0,0.0,0.0,0.0,0.0,0.0,-0.0808,-0.1616,-0.2154,-0.2174,0.0,0.0,0.0,0.0,0.0,0.0,0.0,0.0,0.0,0.0,0.0,0.0,0.0,0.0,0.0,0.0,0.0,0.0,0.0,0.0,0.0,-0.0609,-0.1818,-0.2828,-0.3231,-0.323,-0.323,-0.323,-0.323,-0.3231,-0.3231,-0.323,-0.3231,0.0,0.0,-0.3195,-0.3182,-0.3168,-0.315,-0.3142,-0.3142,-0.3142,-0.3135,-0.3122,-0.3104,-0.3089,-0.3077,-0.3058,-0.3052,-0.3052,-0.3052,-0.3052,-0.3052,-0.3052,-0.3052,-0.3052,-0.3052,-0.3052,-0.3052,-0.3052,-0.3052,-0.3052,-0.3052,-0.3066,-0.308,-0.308,-0.308,-0.308,-0.308,-0.3065,-0.3048,-0.3036,-0.3032,-0.3029,-0.3029,-0.4896,-0.7892,-1.2295,-1.2853,-1.348,-1.4685,-1.19,-1.0625,-1.1998,-1.0885,-1.0698,-1.2004,-1.2754,-1.3715,-1.5099,-1.5187,-1.5262,-1.5316,-1.5411,-1.5459,-1.5459,-1.552,-1.5547,0.0,0.0,0.0,0.0,0.0,0.0,0.0,0.0,0.0,0.0,-0.0539,-0.1346,-0.2019,-0.2155,-0.2191,0.0,0.0,0.0,0.0,0.0,0.0,0.0,0.0,0.0,0.0,0.0,0.0,0.0,0.0,0.0,0.0,0.0,0.0,0.0,0.0,-0.1017,-0.3234,-0.3232,-0.3236,-0.3243,-0.3234,-0.3235,-0.3243,-0.3236,-0.2828,-0.2221,0.0,0.0,0.0,-0.2206,-0.2601,-0.32,-0.3178,-0.317,-0.3168,-0.3168,-0.3164,-0.3153,-0.3131,-0.3118,-0.3107,-0.3086,-0.308,-0.308,-0.308,-0.3066,-0.3052,-0.3052,-0.3052,-0.3054,-0.3063,-0.3059,-0.3054,-0.3063,-0.3059,-0.3052,-0.3052,-0.3076,-0.3097,-0.3097,-0.3106,-0.3111,-0.3111,-0.3093,-0.3076,-0.3067,-0.3066,-0.3062,-0.3054,-0.3046,-0.4567,-0.8401,-1.0376,-1.2173,-1.4088,-1.0367,-0.8716,-1.0294,-0.8996,-0.8817,-1.0344,-1.0916,-1.2248,-1.4355,-1.4457,-1.4898,-1.5479,-1.5588,-1.5642,-1.5642,-1.5683,-1.5723,0.0,0.0,0.0,0.0,0.0,0.0,0.0,0.0,0.0,0.0,-0.0539,-0.1346,-0.2019,-0.2155,-0.2185,-0.2277,0.0,0.0,0.0,0.0,0.0,0.0,0.0,0.0,0.0,0.0,0.0,0.0,0.0,0.0,0.0,0.0,0.0,0.0,0.0,-0.101,-0.3234,-0.3231,-0.3245,-0.3275,-0.3245,-0.3246,-0.3275,-0.3246,-0.202,0.0,0.0,0.0,0.0,-0.0,-0.1212,-0.3234,-0.3232,-0.3231,-0.323,-0.323,-0.3212,-0.3187,-0.3187,-0.3168,-0.3142,-0.3142,-0.3142,-0.3142,-0.3142,-0.31,-0.3052,-0.3052,-0.3052,-0.3059,-0.3089,-0.3074,-0.3059,-0.3089,-0.3074,-0.3052,-0.3052,-0.3076,-0.3097,-0.3097,-0.3122,-0.3142,-0.3142,-0.3142,-0.3131,-0.3101,-0.3097,-0.3086,-0.3056,-0.3046,-0.3054,-0.3084,-0.7928,-1.1559,-1.2156,-0.8435,-0.618,-0.618,-0.6237,-0.627,-0.627,-0.8214,-1.0162,-1.231,-1.2504,-1.3485,-1.5635,-1.5642,-1.5642,-1.5642,-1.5784,-1.5934,0.0,0.0,0.0,0.0,0.0,0.0,0.0,0.0,0.0,0.0,-0.0135,-0.0673,-0.2019,-0.2155,-0.2204,-0.2357,-0.2397,0.0,0.0,0.0,0.0,0.0,0.0,0.0,0.0,0.0,0.0,0.0,0.0,0.0,0.0,0.0,0.0,0.0,0.0,-0.101,-0.3234,-0.3232,-0.3247,-0.3276,-0.3268,-0.3268,-0.307,-0.1633,-0.061,0.0,0.0,0.0,0.0,0.0,-0.0404,-0.1212,-0.2628,-0.3234,-0.3232,-0.3232,-0.3227,-0.3216,-0.3195,-0.3182,-0.3171,-0.3149,-0.3142,-0.3142,-0.3142,-0.3129,-0.3114,-0.3114,-0.3114,-0.3116,-0.3126,-0.3122,-0.3116,-0.3126,-0.3122,-0.3114,-0.3114,-0.3138,-0.316,-0.316,-0.3167,-0.3174,-0.3174,-0.3156,-0.314,-0.313,-0.3129,-0.3125,-0.3115,-0.3112,-0.3112,-0.3118,-0.4686,-0.6626,-0.8518,-0.5838,-0.4688,-0.6048,-0.4896,-0.4708,-0.6077,-0.6857,-0.8802,-1.231,-1.239,-1.3614,-1.5784,-1.5893,-1.594,-1.594,-1.5988,-1.6035,0.0,0.0,0.0,0.0,0.0,0.0,0.0,0.0,0.0,0.0,0.0,-0.0404,-0.1616,-0.2019,-0.2199,-0.2334,-0.2384,0.0,0.0,0.0,0.0,0.0,0.0,0.0,0.0,0.0,0.0,0.0,0.0,0.0,0.0,0.0,0.0,0.0,0.0,-0.0606,-0.202,-0.283,-0.2846,-0.2057,-0.2873,-0.2878,-0.1861,-0.0616,0.0,0.0,0.0,0.0,0.0,0.0,0.0,-0.0202,-0.1414,-0.202,-0.202,-0.202,-0.2424,-0.3231,-0.3212,-0.3205,-0.3201,-0.3182,-0.3176,-0.3176,-0.3176,-0.316,-0.3142,-0.3142,-0.3142,-0.3145,-0.3157,-0.3152,-0.3145,-0.3157,-0.3152,-0.3142,-0.3142,-0.3167,-0.3189,-0.3189,-0.3197,-0.3204,-0.3204,-0.3189,-0.3172,-0.3161,-0.316,-0.3156,-0.3144,-0.3142,-0.3145,-0.3153,-0.3157,-0.3951,-0.5535,-0.4149,-0.3751,-0.493,-0.3762,-0.377,-0.4955,-0.5153,-0.7126,-1.1265,-1.153,-1.2952,-1.594,-1.6035,-1.6083,-1.6083,-1.6083,-1.6083,0.0,0.0,0.0,0.0,0.0,0.0,0.0,0.0,0.0,0.0,0.0,-0.0269,-0.0945,-0.1752,-0.2178,-0.2249,0.0,0.0,0.0,0.0,0.0,0.0,0.0,0.0,0.0,0.0,0.0,0.0,0.0,0.0,0.0,0.0,0.0,0.0,0.0,0.0,0.0,-0.2022,-0.2039,-0.0,-0.206,-0.207,0.0,0.0,0.0,0.0,0.0,0.0,0.0,0.0,0.0,0.0,0.0,0.0,0.0,0.0,-0.1414,-0.3234,-0.3234,-0.3232,-0.323,-0.323,-0.323,-0.323,-0.323,-0.3193,-0.3149,-0.3149,-0.3149,-0.3156,-0.3185,-0.317,-0.3156,-0.3185,-0.317,-0.3149,-0.3149,-0.3171,-0.3191,-0.3191,-0.3212,-0.323,-0.323,-0.323,-0.3221,-0.3195,-0.3191,-0.318,-0.3153,-0.3149,-0.316,-0.3189,-0.3191,-0.3202,-0.3228,-0.3206,-0.3191,-0.3191,-0.3216,-0.323,-0.323,-0.323,-0.5242,-0.946,-0.9861,-1.1864,-1.5877,-1.6083,-1.6083,-1.6083,-1.6083,-1.6083,0.0,0.0,0.0,0.0,0.0,0.0,0.0,0.0,0.0,0.0,0.0,0.0,0.0,0.0,0.0,0.0,0.0,0.0,0.0,0.0,0.0,0.0,0.0,0.0,0.0,0.0,0.0,0.0,0.0,0.0,0.0,0.0,0.0,0.0,0.0,0.0,0.0,-0.0407,-0.0409,-0.0,-0.0624,-0.0418,0.0,0.0,0.0,0.0,0.0,0.0,0.0,0.0,0.0,0.0,0.0,0.0,0.0,0.0,-0.1414,-0.3234,-0.3234,-0.3232,-0.323,-0.323,-0.323,-0.323,-0.323,-0.322,-0.3209,-0.3209,-0.3209,-0.3212,-0.3219,-0.3215,-0.3212,-0.3219,-0.3215,-0.3209,-0.3209,-0.3215,-0.322,-0.322,-0.3225,-0.323,-0.323,-0.323,-0.3228,-0.3221,-0.322,-0.3217,-0.321,-0.3209,-0.3212,-0.322,-0.322,-0.3223,-0.323,-0.3224,-0.322,-0.322,-0.3227,-0.323,-0.323,-0.323,-0.4438,-0.705,-1.0458,-1.2663,-1.3667,-1.5273,-1.6083,-1.6083,-1.6083,-1.6083,0.0,0.0,0.0,0.0,0.0,0.0,0.0,0.0,0.0,0.0,0.0,0.0,0.0,0.0,0.0,0.0,0.0,0.0,0.0,0.0,0.0,0.0,0.0,0.0,0.0,0.0,0.0,0.0,0.0,0.0,0.0,0.0,0.0,0.0,0.0,0.0,0.0,0.0,0.0,0.0,0.0,0.0,0.0,0.0,0.0,0.0,0.0,0.0,0.0,0.0,0.0,0.0,0.0,0.0,0.0,0.0,-0.1414,-0.3234,-0.3234,-0.3232,-0.323,-0.323,-0.323,-0.323,-0.323,-0.323,-0.323,-0.323,-0.323,-0.323,-0.323,-0.323,-0.323,-0.323,-0.323,-0.323,-0.323,-0.323,-0.323,-0.323,-0.323,-0.323,-0.323,-0.323,-0.323,-0.323,-0.323,-0.323,-0.323,-0.323,-0.323,-0.323,-0.323,-0.323,-0.323,-0.323,-0.323,-0.323,-0.323,-0.323,-0.323,-0.323,-0.4236,-0.6447,-1.0654,-1.2863,-1.2863,-1.5074,-1.6083,-1.6083,-1.6083,-1.6083,0.0,0.0,0.0,0.0,0.0,0.0,0.0,0.0,0.0,0.0,0.0,0.0,0.0,0.0,0.0,0.0,0.0,0.0,0.0,0.0,0.0,0.0,0.0,0.0,0.0,0.0,0.0,0.0,0.0,0.0,0.0,0.0,0.0,0.0,0.0,0.0,0.0,0.0,0.0,0.0,0.0,0.0,0.0,0.0,0.0,0.0,0.0,0.0,0.0,0.0,0.0,0.0,0.0,0.0,0.0,0.0,-0.1414,-0.3234,-0.3234,-0.3232,-0.323,-0.323,-0.323,-0.323,-0.323,-0.323,-0.323,-0.323,-0.323,-0.323,-0.323,-0.323,-0.323,-0.323,-0.323,-0.323,-0.323,-0.323,-0.323,-0.323,-0.323,-0.323,-0.323,-0.323,-0.323,-0.323,-0.3234,-0.3238,-0.3238,-0.324,-0.3245,-0.3245,-0.3245,-0.3245,-0.3245,-0.3245,-0.3242,-0.3238,-0.3232,-0.323,-0.323,-0.323,-0.4035,-0.5843,-0.9853,-1.2058,-1.2458,-1.447,-1.5877,-1.6083,-1.6083,-1.6083,0.0,0.0,0.0,0.0,0.0,0.0,0.0,0.0,0.0,0.0,0.0,0.0,0.0,0.0,0.0,0.0,0.0,0.0,0.0,0.0,0.0,0.0,0.0,0.0,0.0,0.0,0.0,0.0,0.0,0.0,0.0,0.0,0.0,0.0,0.0,0.0,0.0,0.0,0.0,0.0,0.0,0.0,0.0,0.0,0.0,0.0,0.0,0.0,0.0,0.0,0.0,0.0,0.0,0.0,0.0,0.0,-0.1414,-0.3234,-0.3231,-0.3231,-0.323,-0.323,-0.323,-0.323,-0.323,-0.323,-0.323,-0.323,-0.323,-0.323,-0.323,-0.323,-0.323,-0.323,-0.323,-0.323,-0.323,-0.323,-0.323,-0.323,-0.323,-0.323,-0.323,-0.323,-0.323,-0.323,-0.3253,-0.3269,-0.3269,-0.3291,-0.3101,-0.3101,-0.3101,-0.3101,-0.3101,-0.3101,-0.3296,-0.327,-0.3245,-0.323,-0.323,-0.323,-0.3431,-0.3633,-0.6045,-0.8252,-1.0262,-1.2263,-1.4271,-1.6083,-1.6083,-1.6083,0.0,0.0,0.0,0.0,0.0,0.0,0.0,0.0,0.0,0.0,0.0,0.0,0.0,0.0,0.0,0.0,0.0,0.0,0.0,0.0,0.0,0.0,0.0,0.0,0.0,0.0,0.0,0.0,0.0,0.0,0.0,0.0,0.0,0.0,0.0,0.0,0.0,0.0,0.0,0.0,0.0,0.0,0.0,0.0,0.0,0.0,0.0,0.0,0.0,0.0,0.0,0.0,0.0,0.0,0.0,0.0,-0.1414,-0.3234,-0.3232,-0.3231,-0.323,-0.323,-0.323,-0.323,-0.323,-0.323,-0.323,-0.323,-0.323,-0.323,-0.323,-0.323,-0.323,-0.323,-0.323,-0.323,-0.323,-0.323,-0.323,-0.323,-0.323,-0.323,-0.323,-0.3243,-0.3254,-0.3254,-0.328,-0.3294,-0.3277,-0.3288,-0.3291,-0.3273,-0.3272,-0.3279,-0.3295,-0.3296,-0.3291,-0.3276,-0.3247,-0.323,-0.323,-0.323,-0.323,-0.323,-0.4231,-0.5229,-0.6225,-1.1858,-1.5093,-1.6083,-1.6083,-1.6083,0.0,0.0,0.0,0.0,0.0,0.0,0.0,0.0,0.0,0.0,0.0,0.0,0.0,0.0,0.0,0.0,0.0,0.0,0.0,0.0,0.0,0.0,0.0,0.0,0.0,0.0,0.0,0.0,0.0,0.0,0.0,0.0,0.0,0.0,0.0,0.0,0.0,0.0,0.0,0.0,0.0,0.0,0.0,0.0,0.0,0.0,0.0,0.0,0.0,0.0,0.0,0.0,0.0,0.0,0.0,0.0,-0.101,-0.2424,-0.3032,-0.3232,-0.3231,-0.3231,-0.323,-0.323,-0.323,-0.3235,-0.324,-0.324,-0.324,-0.3239,-0.3232,-0.3235,-0.3239,-0.3232,-0.323,-0.323,-0.323,-0.323,-0.323,-0.323,-0.3236,-0.324,-0.324,-0.326,-0.3276,-0.3276,-0.3295,-0.3302,-0.3483,-0.3281,-0.3277,-0.3254,-0.3251,-0.3465,-0.3489,-0.3485,-0.3276,-0.3276,-0.3254,-0.3238,-0.3231,-0.323,-0.323,-0.323,-0.3225,-0.3217,-0.3209,-1.1259,-1.5512,-1.6083,-1.6083,-1.6083,0.0,0.0,0.0,0.0,0.0,0.0,0.0,0.0,0.0,0.0,0.0,0.0,0.0,0.0,0.0,0.0,0.0,0.0,0.0,0.0,0.0,0.0,0.0,0.0,0.0,0.0,0.0,0.0,0.0,0.0,0.0,0.0,0.0,0.0,0.0,0.0,0.0,0.0,0.0,0.0,0.0,0.0,0.0,0.0,0.0,0.0,0.0,0.0,0.0,0.0,0.0,0.0,0.0,0.0,0.0,0.0,-0.0,-0.0606,-0.2424,-0.3234,-0.3232,-0.3231,-0.323,-0.323,-0.323,-0.325,-0.3272,-0.3272,-0.3272,-0.3266,-0.3238,-0.3251,-0.3265,-0.3236,-0.323,-0.323,-0.323,-0.323,-0.323,-0.323,-0.3253,-0.3272,-0.3272,-0.3275,-0.3276,-0.3276,-0.3482,-0.3483,-0.3481,-0.33,-0.3317,-0.3314,-0.3314,-0.3315,-0.3318,-0.3498,-0.3481,-0.3481,-0.3273,-0.326,-0.3231,-0.323,-0.323,-0.323,-0.323,-0.3223,-0.3209,-0.9252,-1.349,-1.6083,-1.6083,-1.6083,0.0,0.0,0.0,0.0,0.0,0.0,0.0,0.0,0.0,0.0,0.0,0.0,0.0,0.0,0.0,0.0,0.0,0.0,0.0,0.0,0.0,0.0,0.0,0.0,0.0,0.0,0.0,0.0,0.0,0.0,0.0,0.0,0.0,0.0,0.0,0.0,0.0,0.0,0.0,0.0,0.0,0.0,0.0,0.0,0.0,0.0,0.0,0.0,0.0,0.0,0.0,0.0,0.0,0.0,0.0,0.0,0.0,-0.0204,-0.1012,-0.202,-0.3234,-0.3253,-0.3258,-0.3262,-0.3281,-0.3295,-0.33,-0.3281,-0.329,-0.3296,-0.3266,-0.3253,-0.3245,-0.3232,-0.323,-0.323,-0.323,-0.323,-0.323,-0.323,-0.3239,-0.3247,-0.3247,-0.3264,-0.3276,-0.3276,-0.3292,-0.3296,-0.3279,-0.3285,-0.3285,-0.3266,-0.3281,-0.3292,-0.3292,-0.3299,-0.3296,-0.3277,-0.3258,-0.3242,-0.3231,-0.323,-0.323,-0.323,-0.323,-0.3225,-0.3216,-1.0881,-1.4938,-1.611,-1.609,-1.6083,0.0,0.0,0.0,0.0,0.0,0.0,0.0,0.0,0.0,0.0,0.0,0.0,0.0,0.0,0.0,0.0,0.0,0.0,0.0,0.0,0.0,0.0,0.0,0.0,0.0,0.0,0.0,0.0,0.0,0.0,0.0,0.0,0.0,0.0,0.0,0.0,0.0,0.0,0.0,0.0,0.0,0.0,0.0,0.0,0.0,0.0,0.0,0.0,0.0,0.0,0.0,0.0,0.0,0.0,0.0,0.0,0.0,-0.0,-0.0814,-0.2029,-0.3246,-0.3258,-0.3268,-0.3277,-0.3288,-0.3299,-0.3302,-0.3281,-0.3291,-0.3302,-0.3281,-0.326,-0.3242,-0.3232,-0.323,-0.323,-0.323,-0.323,-0.323,-0.323,-0.3238,-0.3245,-0.3245,-0.3262,-0.3276,-0.3276,-0.3285,-0.3284,-0.3264,-0.3261,-0.3253,-0.3232,-0.3249,-0.3261,-0.3261,-0.328,-0.3283,-0.3262,-0.3242,-0.323,-0.323,-0.323,-0.323,-0.323,-0.323,-0.3227,-0.322,-1.0891,-1.4738,-1.47,-1.5685,-1.6083,0.0,0.0,0.0,0.0,0.0,0.0,0.0,0.0,0.0,0.0,0.0,0.0,0.0,0.0,0.0,0.0,0.0,0.0,0.0,0.0,0.0,0.0,0.0,0.0,0.0,0.0,0.0,0.0,0.0,0.0,0.0,0.0,0.0,0.0,0.0,0.0,0.0,0.0,0.0,0.0,0.0,0.0,0.0,0.0,0.0,0.0,0.0,0.0,0.0,0.0,0.0,0.0,0.0,0.0,0.0,0.0,0.0,-0.0205,-0.2459,-0.3277,-0.327,-0.324,-0.3251,-0.3475,-0.3443,-0.3456,-0.3481,-0.3481,-0.3276,-0.3276,-0.3275,-0.3275,-0.3268,-0.3238,-0.323,-0.323,-0.323,-0.323,-0.323,-0.323,-0.3254,-0.3275,-0.3275,-0.3275,-0.3275,-0.3275,-0.3249,-0.323,-0.323,-0.323,-0.323,-0.323,-0.323,-0.323,-0.323,-0.323,-0.323,-0.323,-0.323,-0.323,-0.323,-0.323,-0.323,-0.323,-0.323,-0.3227,-0.322,-0.9059,-1.1874,-1.1843,-1.4862,-1.6083,0.0,0.0,0.0,0.0,0.0,0.0,0.0,0.0,0.0,0.0,0.0,0.0,0.0,0.0,0.0,0.0,0.0,0.0,0.0,0.0,0.0,0.0,0.0,0.0,0.0,0.0,0.0,0.0,0.0,0.0,0.0,0.0,0.0,0.0,0.0,0.0,0.0,0.0,0.0,0.0,0.0,0.0,0.0,0.0,0.0,0.0,0.0,0.0,0.0,0.0,0.0,0.0,0.0,0.0,0.0,0.0,0.0,-0.0208,-0.2469,-0.3277,-0.3275,-0.3265,-0.3268,-0.3279,-0.329,-0.33,-0.3303,-0.3281,-0.3276,-0.327,-0.3249,-0.3243,-0.3242,-0.3232,-0.323,-0.323,-0.323,-0.323,-0.323,-0.323,-0.3238,-0.3243,-0.3243,-0.3243,-0.3243,-0.3243,-0.3236,-0.323,-0.323,-0.323,-0.323,-0.323,-0.323,-0.323,-0.323,-0.323,-0.323,-0.323,-0.323,-0.323,-0.323,-0.323,-0.323,-0.323,-0.323,-0.323,-0.3227,-0.8055,-1.1889,-1.4944,-1.5704,-1.6083,0.0,0.0,0.0,0.0,0.0,0.0,0.0,0.0,0.0,0.0,0.0,0.0,0.0,0.0,0.0,0.0,0.0,0.0,0.0,0.0,0.0,0.0,0.0,0.0,0.0,0.0,0.0,0.0,0.0,0.0,0.0,0.0,0.0,0.0,0.0,0.0,0.0,0.0,0.0,0.0,0.0,0.0,0.0,0.0,0.0,0.0,0.0,0.0,0.0,0.0,0.0,0.0,0.0,0.0,0.0,0.0,0.0,-0.0209,-0.1447,-0.2465,-0.3273,-0.3262,-0.3266,-0.3276,-0.3283,-0.3285,-0.3281,-0.3262,-0.3257,-0.3253,-0.3235,-0.323,-0.323,-0.323,-0.323,-0.323,-0.323,-0.323,-0.323,-0.323,-0.323,-0.323,-0.323,-0.323,-0.323,-0.323,-0.323,-0.323,-0.323,-0.323,-0.323,-0.323,-0.323,-0.323,-0.323,-0.323,-0.323,-0.323,-0.323,-0.323,-0.323,-0.323,-0.323,-0.323,-0.323,-0.323,-0.323,-0.6648,-1.0074,-1.353,-1.4488,-1.5273,0.0,0.0,0.0,0.0,0.0,0.0,0.0,0.0,0.0,0.0,0.0,0.0,0.0,0.0,0.0,0.0,0.0,0.0,0.0,0.0,0.0,0.0,0.0,0.0,0.0,0.0,0.0,0.0,0.0,0.0,0.0,0.0,0.0,0.0,0.0,0.0,0.0,0.0,0.0,0.0,0.0,0.0,0.0,0.0,0.0,0.0,0.0,0.0,0.0,0.0,0.0,0.0,0.0,0.0,0.0,0.0,0.0,0.0,0.0,-0.1237,-0.2862,-0.3041,-0.3251,-0.3266,-0.3239,-0.323,-0.323,-0.323,-0.323,-0.323,-0.323,-0.323,-0.323,-0.323,-0.323,-0.323,-0.323,-0.323,-0.323,-0.323,-0.323,-0.323,-0.323,-0.323,-0.323,-0.323,-0.323,-0.323,-0.323,-0.323,-0.323,-0.323,-0.323,-0.323,-0.323,-0.323,-0.323,-0.323,-0.323,-0.323,-0.323,-0.323,-0.323,-0.323,-0.323,-0.323,-0.323,-0.5443,-0.7452,-0.9661,-1.1858,-1.4065,0.0,0.0,0.0,0.0,0.0,0.0,0.0,0.0,0.0,0.0,0.0,0.0,0.0,0.0,0.0,0.0,0.0,0.0,0.0,0.0,0.0,0.0,0.0,0.0,0.0,0.0,0.0,0.0,0.0,0.0,0.0,0.0,0.0,0.0,0.0,0.0,0.0,0.0,0.0,0.0,0.0,0.0,0.0,0.0,0.0,0.0,0.0,0.0,0.0,0.0,0.0,0.0,0.0,0.0,0.0,0.0,0.0,0.0,0.0,-0.0205,-0.1023,-0.2635,-0.3238,-0.324,-0.3232,-0.323,-0.323,-0.323,-0.323,-0.323,-0.323,-0.323,-0.323,-0.323,-0.323,-0.323,-0.323,-0.323,-0.323,-0.323,-0.323,-0.323,-0.323,-0.323,-0.323,-0.323,-0.323,-0.323,-0.323,-0.323,-0.323,-0.323,-0.323,-0.323,-0.323,-0.323,-0.323,-0.323,-0.323,-0.323,-0.323,-0.323,-0.323,-0.323,-0.323,-0.323,-0.323,-0.5443,-0.7452,-0.9661,-1.1858,-1.4065,0.0,0.0,0.0,0.0,0.0,0.0,0.0,0.0,0.0,0.0,0.0,0.0,0.0,0.0,0.0,0.0,0.0,0.0,0.0,0.0,0.0,0.0,0.0,0.0,0.0,0.0,0.0,0.0,0.0,0.0,0.0,0.0,0.0,0.0,0.0,0.0,0.0,0.0,0.0,0.0,0.0,0.0,0.0,0.0,0.0,0.0,0.0,0.0,0.0,0.0,0.0,0.0,0.0,0.0,0.0,0.0,0.0,0.0,0.0,0.0,-0.0407,-0.2429,-0.3234,-0.3234,-0.3231,-0.323,-0.323,-0.323,-0.323,-0.323,-0.323,-0.323,-0.323,-0.323,-0.323,-0.323,-0.323,-0.323,-0.323,-0.323,-0.323,-0.323,-0.323,-0.323,-0.323,-0.323,-0.323,-0.323,-0.323,-0.323,-0.323,-0.323,-0.323,-0.323,-0.323,-0.323,-0.323,-0.323,-0.323,-0.323,-0.323,-0.323,-0.323,-0.323,-0.323,-0.323,-0.323,-0.4236,-0.6045,-0.8252,-1.0258,-1.2463,0.0,0.0,0.0,0.0,0.0,0.0,0.0,0.0,0.0,0.0,0.0,0.0,0.0,0.0,0.0,0.0,0.0,0.0,0.0,0.0,0.0,0.0,0.0,0.0,0.0,0.0,0.0,0.0,0.0,0.0,0.0,0.0,0.0,0.0,0.0,0.0,0.0,0.0,0.0,0.0,0.0,0.0,0.0,0.0,0.0,0.0,0.0,0.0,0.0,0.0,0.0,0.0,0.0,0.0,0.0,0.0,0.0,0.0,0.0,0.0,-0.0202,-0.202,-0.283,-0.3234,-0.3231,-0.3231,-0.3231,-0.323,-0.323,-0.323,-0.323,-0.323,-0.323,-0.323,-0.323,-0.323,-0.323,-0.323,-0.323,-0.323,-0.323,-0.323,-0.323,-0.323,-0.323,-0.323,-0.323,-0.323,-0.323,-0.323,-0.323,-0.323,-0.323,-0.323,-0.323,-0.323,-0.323,-0.323,-0.323,-0.323,-0.323,-0.323,-0.323,-0.323,-0.323,-0.323,-0.323,-0.323,-0.4236,-0.6447,-0.8654,-1.0858,0.0,0.0,0.0,0.0,0.0,0.0,0.0,0.0,0.0,0.0,0.0,0.0,0.0,0.0,0.0,0.0,0.0,0.0,0.0,0.0,0.0,0.0,0.0,0.0,0.0,0.0,0.0,0.0,0.0,0.0,0.0,0.0,0.0,0.0,0.0,0.0,0.0,0.0,0.0,0.0,0.0,0.0,0.0,0.0,0.0,0.0,0.0,0.0,0.0,0.0,0.0,0.0,0.0,0.0,0.0,0.0,0.0,0.0,0.0,0.0,-0.0,-0.0404,-0.1616,-0.3234,-0.3234,-0.3234,-0.3232,-0.3231,-0.323,-0.323,-0.323,-0.323,-0.323,-0.323,-0.323,-0.323,-0.323,-0.323,-0.323,-0.323,-0.323,-0.323,-0.323,-0.323,-0.323,-0.323,-0.323,-0.323,-0.323,-0.323,-0.323,-0.323,-0.323,-0.323,-0.323,-0.323,-0.323,-0.323,-0.323,-0.323,-0.323,-0.323,-0.323,-0.323,-0.323,-0.323,-0.323,-0.323,-0.4236,-0.6447,-0.8654,-1.0454,0.0,0.0,0.0,0.0,0.0,0.0,0.0,0.0,0.0,0.0,0.0,0.0,0.0,0.0,0.0,0.0,0.0,0.0,0.0,0.0,0.0,0.0,0.0,0.0,0.0,0.0,0.0,0.0,0.0,0.0,0.0,0.0,0.0,0.0,0.0,0.0,0.0,0.0,0.0,0.0,0.0,0.0,0.0,0.0,0.0,0.0,0.0,0.0,0.0,0.0,0.0,0.0,0.0,0.0,0.0,0.0,0.0,0.0,0.0,0.0,0.0,0.0,-0.0606,-0.1616,-0.202,-0.2628,-0.3234,-0.3231,-0.323,-0.323,-0.323,-0.323,-0.323,-0.323,-0.323,-0.323,-0.323,-0.323,-0.323,-0.323,-0.323,-0.323,-0.323,-0.323,-0.323,-0.323,-0.323,-0.323,-0.323,-0.323,-0.323,-0.323,-0.323,-0.323,-0.323,-0.323,-0.323,-0.323,-0.323,-0.323,-0.323,-0.323,-0.323,-0.323,-0.323,-0.323,-0.323,-0.323,-0.3633,-0.4638,-0.7254,-0.926,0.0,0.0,0.0,0.0,0.0,0.0,0.0,0.0,0.0,0.0,0.0,0.0,0.0,0.0,0.0,0.0,0.0,0.0,0.0,0.0,0.0,0.0,0.0,0.0,0.0,0.0,0.0,0.0,0.0,0.0,0.0,0.0,0.0,0.0,0.0,0.0,0.0,0.0,0.0,0.0,0.0,0.0,0.0,0.0,0.0,0.0,0.0,0.0,0.0,0.0,0.0,0.0,0.0,0.0,0.0,0.0,0.0,0.0,0.0,0.0,0.0,0.0,0.0,-0.0202,-0.101,-0.2222,-0.3234,-0.3231,-0.323,-0.323,-0.323,-0.323,-0.323,-0.323,-0.323,-0.323,-0.323,-0.323,-0.323,-0.323,-0.323,-0.323,-0.323,-0.323,-0.323,-0.323,-0.323,-0.323,-0.323,-0.323,-0.323,-0.323,-0.323,-0.323,-0.323,-0.323,-0.323,-0.323,-0.323,-0.323,-0.323,-0.323,-0.323,-0.323,-0.323,-0.323,-0.323,-0.323,-0.323,-0.323,-0.5443,-0.7044,0.0,0.0,0.0,0.0,0.0,0.0,0.0,0.0,0.0,0.0,0.0,0.0,0.0,0.0,0.0,0.0,0.0,0.0,0.0,0.0,0.0,0.0,0.0,0.0,0.0,0.0,0.0,0.0,0.0,0.0,0.0,0.0,0.0,0.0,0.0,0.0,0.0,0.0,0.0,0.0,0.0,0.0,0.0,0.0,0.0,0.0,0.0,0.0,0.0,0.0,0.0,0.0,0.0,0.0,0.0,0.0,0.0,0.0,0.0,0.0,0.0,0.0,0.0,-0.0,-0.0,-0.1616,-0.3234,-0.3231,-0.323,-0.323,-0.323,-0.323,-0.323,-0.323,-0.323,-0.323,-0.323,-0.323,-0.323,-0.323,-0.323,-0.323,-0.323,-0.323,-0.323,-0.323,-0.323,-0.323,-0.323,-0.323,-0.323,-0.323,-0.323,-0.323,-0.323,-0.323,-0.323,-0.323,-0.323,-0.323,-0.323,-0.323,-0.323,-0.323,-0.323,-0.323,-0.323,-0.323,-0.323,-0.323,-0.3424,-0.3417,0.0,0.0,0.0,0.0,0.0,0.0,0.0,0.0,0.0,0.0,0.0,0.0,0.0,0.0,0.0,0.0,0.0,0.0,0.0,0.0,0.0,0.0,0.0,0.0,0.0,0.0,0.0,0.0,0.0,0.0,0.0,0.0,0.0,0.0,0.0,0.0,0.0,0.0,0.0,0.0,0.0,0.0,0.0,0.0,0.0,0.0,0.0,0.0,0.0,0.0,0.0,0.0,0.0,0.0,0.0,0.0,0.0,0.0,0.0,0.0,0.0,0.0,0.0,-0.0202,-0.1616,-0.2626,-0.3234,-0.3231,-0.323,-0.323,-0.323,-0.323,-0.323,-0.323,-0.323,-0.323,-0.323,-0.323,-0.323,-0.323,-0.323,-0.323,-0.323,-0.323,-0.323,-0.323,-0.323,-0.323,-0.323,-0.323,-0.323,-0.323,-0.323,-0.323,-0.323,-0.323,-0.323,-0.323,-0.323,-0.323,-0.323,-0.323,-0.323,-0.323,-0.323,-0.323,-0.323,-0.323,-0.323,-0.323,-0.3228,-0.322,0.0,0.0,0.0,0.0,0.0,0.0,0.0,0.0,0.0,0.0,0.0,0.0,0.0,0.0,0.0,0.0,0.0,0.0,0.0,0.0,0.0,0.0,0.0,0.0,0.0,0.0,0.0,0.0,0.0,0.0,0.0,0.0,0.0,0.0,0.0,0.0,0.0,0.0,0.0,0.0,0.0,0.0,0.0,0.0,0.0,0.0,0.0,0.0,0.0,0.0,0.0,0.0,0.0,0.0,0.0,0.0,0.0,0.0,0.0,0.0,0.0,0.0,0.0,-0.0202,-0.1616,-0.2628,-0.3234,-0.3232,-0.3231,-0.323,-0.323,-0.323,-0.323,-0.323,-0.323,-0.323,-0.323,-0.323,-0.323,-0.323,-0.323,-0.323,-0.323,-0.323,-0.323,-0.323,-0.323,-0.323,-0.323,-0.323,-0.323,-0.323,-0.323,-0.323,-0.323,-0.323,-0.323,-0.323,-0.323,-0.323,-0.323,-0.323,-0.323,-0.323,-0.323,-0.323,-0.323,-0.323,-0.323,-0.323,-0.323,-0.4837,0.0,0.0,0.0,0.0,0.0,0.0,0.0,0.0,0.0,0.0,0.0,0.0,0.0,0.0,0.0,0.0,0.0,0.0,0.0,0.0,0.0,0.0,0.0,0.0,0.0,0.0,0.0,0.0,0.0,0.0,0.0,0.0,0.0,0.0,0.0,0.0,0.0,0.0,0.0,0.0,0.0,0.0,0.0,0.0,0.0,0.0,0.0,0.0,0.0,0.0,0.0,0.0,0.0,0.0,0.0,0.0,0.0,0.0,0.0,0.0,0.0,0.0,0.0,0.0,0.0,-0.1414,-0.3234,-0.3234,-0.3232,-0.323,-0.323,-0.323,-0.323,-0.323,-0.323,-0.323,-0.323,-0.323,-0.323,-0.323,-0.323,-0.323,-0.323,-0.323,-0.323,-0.323,-0.323,-0.323,-0.323,-0.323,-0.323,-0.323,-0.323,-0.323,-0.323,-0.323,-0.323,-0.323,-0.323,-0.323,-0.323,-0.323,-0.323,-0.323,-0.323,-0.323,-0.323,-0.323,-0.323,-0.323,-0.323,-0.7669,0.0,0.0,0.0,0.0,0.0,0.0,0.0,0.0,0.0,0.0,0.0,0.0,0.0,0.0,0.0,0.0,0.0,0.0,0.0,0.0,0.0,0.0,0.0,0.0,0.0,0.0,0.0,0.0,0.0,0.0,0.0,0.0,0.0,0.0,0.0,0.0,0.0,0.0,0.0,0.0,0.0,0.0,0.0,0.0,0.0,0.0,0.0,0.0,0.0,0.0,0.0,0.0,0.0,0.0,0.0,0.0,0.0,0.0,0.0,0.0,0.0,0.0,0.0,0.0,0.0,-0.1414,-0.3234,-0.3234,-0.3232,-0.323,-0.323,-0.323,-0.323,-0.323,-0.323,-0.323,-0.323,-0.323,-0.323,-0.323,-0.323,-0.323,-0.323,-0.323,-0.323,-0.323,-0.323,-0.323,-0.323,-0.323,-0.323,-0.323,-0.323,-0.323,-0.323,-0.323,-0.323,-0.323,-0.323,-0.323,-0.323,-0.323,-0.323,-0.323,-0.323,-0.323,-0.323,-0.323,-0.323,-0.323,-0.3225,-0.4427,0.0,0.0,0.0,0.0,0.0,0.0,0.0,0.0,0.0,0.0,0.0,0.0,0.0,0.0,0.0,0.0,0.0,0.0,0.0,0.0,0.0,0.0,0.0,0.0,0.0,0.0,0.0,0.0,0.0,0.0,0.0,0.0,0.0,0.0,0.0,0.0,0.0,0.0,0.0,0.0,0.0,0.0,0.0,0.0,0.0,0.0,0.0,0.0,0.0,0.0,0.0,0.0,0.0,0.0,0.0,0.0,0.0,0.0,0.0,0.0,0.0,0.0,0.0,0.0,0.0,-0.1414,-0.3234,-0.3234,-0.3232,-0.323,-0.323,-0.323,-0.323,-0.323,-0.323,-0.323,-0.323,-0.323,-0.323,-0.323,-0.323,-0.323,-0.323,-0.323,-0.323,-0.323,-0.323,-0.323,-0.323,-0.323,-0.323,-0.323,-0.323,-0.323,-0.323,-0.323,-0.323,-0.323,-0.323,-0.323,-0.323,-0.323,-0.323,-0.323,-0.323,-0.323,-0.323,-0.323,-0.323,-0.323,-0.3225,-0.322,0.0,0.0,0.0,0.0,0.0,0.0,0.0,0.0,0.0,0.0,0.0,0.0,0.0,0.0,0.0,0.0,0.0,0.0,0.0,0.0,0.0,0.0,0.0,0.0,0.0,0.0,0.0,0.0,0.0,0.0,0.0,0.0,0.0,0.0,0.0,0.0,0.0,0.0,0.0,0.0,0.0,0.0,0.0,0.0,0.0,0.0,0.0,0.0,0.0,0.0,0.0,0.0,0.0,0.0,0.0,0.0,0.0,0.0,0.0,0.0,0.0,0.0,0.0,0.0,0.0,-0.1414,-0.283,-0.3234,-0.3232,-0.323,-0.323,-0.323,-0.323,-0.323,-0.323,-0.323,-0.323,-0.323,-0.323,-0.323,-0.323,-0.323,-0.323,-0.323,-0.323,-0.323,-0.323,-0.323,-0.323,-0.323,-0.323,-0.323,-0.323,-0.323,-0.323,-0.323,-0.323,-0.323,-0.323,-0.323,-0.323,-0.323,-0.323,-0.323,-0.323,-0.323,-0.323,-0.323,-0.323,-0.323,-0.323,-0.3227,0.0,0.0,0.0,0.0,0.0,0.0,0.0,0.0,0.0,0.0,0.0,0.0,0.0,0.0,0.0,0.0,0.0,0.0,0.0,0.0,0.0,0.0,0.0,0.0,0.0,0.0,0.0,0.0,0.0,0.0,0.0,0.0,0.0,0.0,0.0,0.0,0.0,0.0,0.0,0.0,0.0,0.0,0.0,0.0,0.0,0.0,0.0,0.0,0.0,0.0,0.0,0.0,0.0,0.0,0.0,0.0,0.0,0.0,0.0,0.0,0.0,0.0,0.0,0.0,0.0,-0.0202,-0.101,-0.2628,-0.3232,-0.323,-0.323,-0.323,-0.323,-0.323,-0.323,-0.323,-0.323,-0.323,-0.323,-0.323,-0.323,-0.323,-0.323,-0.323,-0.323,-0.323,-0.323,-0.323,-0.323,-0.323,-0.323,-0.323,-0.323,-0.323,-0.323,-0.323,-0.323,-0.323,-0.323,-0.323,-0.323,-0.323,-0.323,-0.323,-0.323,-0.323,-0.323,-0.323,-0.323,-0.323,-0.323,-0.3227,0.0,0.0,0.0,0.0,0.0,0.0,0.0,0.0,0.0,0.0,0.0,0.0,0.0,0.0,0.0,0.0,0.0,0.0,0.0,0.0,0.0,0.0,0.0,0.0,0.0,0.0,0.0,0.0,0.0,0.0,0.0,0.0,0.0,0.0,0.0,0.0,0.0,0.0,0.0,0.0,0.0,0.0,0.0,0.0,0.0,0.0,0.0,0.0,0.0,0.0,0.0,0.0,0.0,0.0,0.0,0.0,0.0,0.0,0.0,0.0,0.0,0.0,0.0,0.0,0.0,0.0,-0.0404,-0.2626,-0.3232,-0.3231,-0.3231,-0.323,-0.323,-0.323,-0.323,-0.323,-0.323,-0.323,-0.323,-0.323,-0.323,-0.323,-0.323,-0.323,-0.323,-0.323,-0.323,-0.323,-0.323,-0.323,-0.323,-0.323,-0.323,-0.323,-0.323,-0.323,-0.323,-0.323,-0.323,-0.323,-0.323,-0.323,-0.323,-0.323,-0.323,-0.323,-0.323,-0.323,-0.323,-0.323,-0.323,-0.3228,0.0,0.0,0.0,0.0,0.0,0.0,0.0,0.0,0.0,0.0,0.0,0.0,0.0,0.0,0.0,0.0,0.0,0.0,0.0,0.0,0.0,0.0,0.0,0.0,0.0,0.0,0.0,0.0,0.0,0.0,0.0,0.0,0.0,0.0,0.0,0.0,0.0,0.0,0.0,0.0,0.0,0.0,0.0,0.0,0.0,0.0,0.0,0.0,0.0,0.0,0.0,0.0,0.0,0.0,0.0,0.0,0.0,0.0,0.0,0.0,0.0,0.0,0.0,0.0,0.0,0.0,-0.0404,-0.202,-0.283,-0.3232,-0.3231,-0.323,-0.323,-0.323,-0.323,-0.323,-0.323,-0.323,-0.323,-0.323,-0.323,-0.323,-0.323,-0.323,-0.323,-0.323,-0.323,-0.323,-0.323,-0.323,-0.323,-0.323,-0.323,-0.323,-0.323,-0.323,-0.323,-0.323,-0.323,-0.323,-0.323,-0.323,-0.323,-0.323,-0.323,-0.323,-0.323,-0.323,-0.323,-0.323,-0.323,-0.323,0.0,0.0,0.0,0.0,0.0,0.0,0.0,0.0,0.0,0.0,0.0,0.0,0.0,0.0,0.0,0.0,0.0,0.0,0.0,0.0,0.0,0.0,0.0,0.0,0.0,0.0,0.0,0.0,0.0,0.0,0.0,0.0,0.0,0.0,0.0,0.0,0.0,0.0,0.0,0.0,0.0,0.0,0.0,0.0,0.0,0.0,0.0,0.0,0.0,0.0,0.0,0.0,0.0,0.0,0.0,0.0,0.0,0.0,0.0,0.0,0.0,0.0,0.0,0.0,0.0,0.0,-0.0,-0.0202,-0.1818,-0.3232,-0.3231,-0.323,-0.323,-0.323,-0.323,-0.323,-0.323,-0.323,-0.323,-0.323,-0.323,-0.323,-0.323,-0.323,-0.323,-0.323,-0.323,-0.323,-0.323,-0.323,-0.323,-0.323,-0.323,-0.323,-0.323,-0.323,-0.323,-0.323,-0.323,-0.323,-0.323,-0.323,-0.323,-0.323,-0.323,-0.323,-0.323,-0.323,-0.323,-0.323,-0.323,-0.323,0.0,0.0,0.0,0.0,0.0,0.0,0.0,0.0,0.0,0.0,0.0,0.0,0.0,0.0,0.0,0.0,0.0,0.0,0.0,0.0,0.0,0.0,0.0,0.0,0.0,0.0,0.0,0.0,0.0,0.0,0.0,0.0,0.0,0.0,0.0,0.0,0.0,0.0,0.0,0.0,0.0,0.0,0.0,0.0,0.0,0.0,0.0,0.0,0.0,0.0,0.0,0.0,0.0,0.0,0.0,0.0,0.0,0.0,0.0,0.0,0.0,0.0,0.0,0.0,0.0,0.0,0.0,0.0,-0.1616,-0.3234,-0.3232,-0.3231,-0.323,-0.323,-0.323,-0.323,-0.323,-0.323,-0.323,-0.323,-0.323,-0.323,-0.323,-0.323,-0.323,-0.323,-0.323,-0.323,-0.323,-0.323,-0.323,-0.323,-0.323,-0.323,-0.323,-0.323,-0.323,-0.323,-0.323,-0.323,-0.323,-0.323,-0.323,-0.323,-0.323,-0.323,-0.323,-0.323,-0.323,-0.323,-0.323,-0.323,0.7065,0.0,0.0,0.0,0.0,0.0,0.0,0.0,0.0,0.0,0.0,0.0,0.0,0.0,0.0,0.0,0.0,0.0,0.0,0.0,0.0,0.0,0.0,0.0,0.0,0.0,0.0,0.0,0.0,0.0,0.0,0.0,0.0,0.0,0.0,0.0,0.0,0.0,0.0,0.0,0.0,0.0,0.0,0.0,0.0,0.0,0.0,0.0,0.0,0.0,0.0,0.0,0.0,0.0,0.0,0.0,0.0,0.0,0.0,0.0,0.0,0.0,0.0,0.0,0.0,0.0,0.0,0.0,-0.1212,-0.2424,-0.3032,-0.3232,-0.3231,-0.323,-0.323,-0.323,-0.323,-0.323,-0.323,-0.323,-0.323,-0.323,-0.323,-0.323,-0.323,-0.323,-0.323,-0.323,-0.323,-0.323,-0.323,-0.323,-0.323,-0.323,-0.323,-0.323,-0.323,-0.323,-0.323,-0.323,-0.323,-0.323,-0.323,-0.323,-0.323,-0.323,-0.323,-0.323,-0.323,-0.323,-0.323,-0.323,0.0,0.0,0.0,0.0,0.0,0.0,0.0,0.0,0.0,0.0,0.0,0.0,0.0,0.0,0.0,0.0,0.0,0.0,0.0,0.0,0.0,0.0,0.0,0.0,0.0,0.0,0.0,0.0,0.0,0.0,0.0,0.0,0.0,0.0,0.0,0.0,0.0,0.0,0.0,0.0,0.0,0.0,0.0,0.0,0.0,0.0,0.0,0.0,0.0,0.0,0.0,0.0,0.0,0.0,0.0,0.0,0.0,0.0,0.0,0.0,0.0,0.0,0.0,0.0,0.0,0.0,0.0,0.0,-0.0,-0.0606,-0.2628,-0.3234,-0.3232,-0.3231,-0.323,-0.323,-0.323,-0.323,-0.323,-0.323,-0.323,-0.323,-0.323,-0.323,-0.323,-0.323,-0.323,-0.323,-0.323,-0.323,-0.323,-0.323,-0.323,-0.323,-0.323,-0.323,-0.323,-0.323,-0.323,-0.323,-0.323,-0.323,-0.323,-0.323,-0.323,-0.323,-0.323,-0.323,-0.323,-0.323,-0.323,-0.323,0.0,0.0,0.9426,0.7213,0.0,0.0,0.0,0.0,0.0,0.0,0.0,0.0,0.0,0.0,0.0,0.0,0.0,0.0,0.0,0.0,0.0,0.0,0.0,0.0,0.0,0.0,0.0,0.0,0.0,0.0,0.0,0.0,0.0,0.0,0.0,0.0,0.0,0.0,0.0,0.0,0.0,0.0,0.0,0.0,0.0,0.0,0.0,0.0,0.0,0.0,0.0,0.0,0.0,0.0,0.0,0.0,0.0,0.0,0.0,0.0,0.0,0.0,0.0,0.0,0.0,0.0,0.0,0.0,0.0,-0.0202,-0.0808,-0.2222,-0.3234,-0.3232,-0.3232,-0.3232,-0.3231,-0.323,-0.323,-0.323,-0.323,-0.323,-0.323,-0.323,-0.323,-0.323,-0.323,-0.323,-0.323,-0.323,-0.323,-0.323,-0.323,-0.323,-0.323,-0.323,-0.323,-0.323,-0.323,-0.323,-0.323,-0.323,-0.323,-0.323,-0.323,-0.323,-0.323,-0.323,-0.323,-0.323,-0.323,-0.323,0.9114,0.7715,0.0,0.6373,0.3125,0.0,0.0,0.0,0.0,0.0,0.0,0.0,0.0,0.0,0.0,0.0,0.0,0.0,0.0,0.0,0.0,0.0,0.0,0.0,0.0,0.0,0.0,0.0,0.0,0.0,0.0,0.0,0.0,0.0,0.0,0.0,0.0,0.0,0.0,0.0,0.0,0.0,0.0,0.0,0.0,0.0,0.0,0.0,0.0,0.0,0.0,0.0,0.0,0.0,0.0,0.0,0.0,0.0,0.0,0.0,0.0,0.0,0.0,0.0,0.0,0.0,0.0,0.0,0.0,0.0,0.0,-0.101,-0.202,-0.202,-0.2628,-0.3234,-0.3231,-0.3231,-0.323,-0.323,-0.323,-0.323,-0.323,-0.323,-0.323,-0.323,-0.323,-0.323,-0.323,-0.323,-0.323,-0.323,-0.323,-0.323,-0.323,-0.323,-0.323,-0.323,-0.323,-0.323,-0.323,-0.323,-0.323,-0.323,-0.323,-0.323,-0.323,-0.323,-0.323,-0.323,-0.323,-0.323]}]]